     2.10           OBSERVATION DATA    G (GPS)             RINEX VERSION / TYPE
teqc 2000Jul20 Karen Wendt 20040524 19:27:30UTC             PGM / RUN BY / DATE
Linux 2.0.36|Pentium II|gcc -static|Linux|486/DX+           COMMENT
teqc 2000Jul20 Karen Wendt 20040524 19:27:29UTC             COMMENT
BIT 2 OF LLI FLAGS DATA COLLECTED UNDER A/S CONDITION       COMMENT
blab Black_Butte_1951_USC&GS_(Reno_Net)                     MARKER NAME
CHS USGS                                                    OBSERVER / AGENCY
ZE120023202 ASHTECH UZ-12 ZE00                              REC # / TYPE / VERS
CR520031615 ASH701945E_M NONE                               ANT # / TYPE
 -2391405.0000 -4303960.0000  4043002.0000                  APPROX POSITION XYZ
        1.2582        0.0000        0.0000                  ANTENNA: DELTA H/E/N
     1     1                                                WAVELENGTH FACT L1/2
     5    C1    L1    L2    P1    P2                        # / TYPES OF OBSERV
    30.0000                                                 INTERVAL
                                                            COMMENT
National Earthquake Hazard Reduction Program                COMMENT
Crustal Strain Project                                      COMMENT
345 Middlefield Road, MS/977                                COMMENT
U.S. Geological Survey, Menlo Park, California 94025        COMMENT
Contact: kwendt@usgs.gov (Ph: 650-329-4866)                 COMMENT
Antenna height is vertical to base of antenna               COMMENT
                                                            COMMENT
SNR is mapped to RINEX snr flag value [1-9]                 COMMENT
L1: 1 -> 1; 90 -> 5; 210 -> 9                               COMMENT
L2: 1 -> 1; 150 -> 5; 250 -> 9                              COMMENT
  2004     5    14    16     9    0.0000000     GPS         TIME OF FIRST OBS
                                                            END OF HEADER
 04  5 14 16  9  0.0000000  0  8G24G21G17G 5G 6G30G29G10
  24200657.767     6569451.36153   5112121.14052  24200658.401    24200656.536
  22794935.650     -143264.36753   -100557.58652  22794936.981    22794932.943
  21327523.367     6512241.57953   5069826.03152  21327524.143    21327521.366
  23258052.021     6671018.03553   5187242.62052  23258053.331    23258051.459
  20650736.585     6265706.29154   4885512.90752  20650738.040    20650734.558
  20972981.320     6535997.62754   5075458.57952  20972983.219    20972979.448
  24491573.130     6179099.68653   4821778.17652  24491574.286    24491573.535
  21117233.787     6482211.63553   5042110.57352  21117234.523    21117231.681
 04  5 14 16  9 30.0000000  0  8G24G21G17G 5G 6G30G29G10
  24216931.653     6654972.40543   5178760.86542  24216932.501    24216930.807
  22780775.914     -217673.68543   -158538.83842  22780777.239    22780773.369
  21337269.552     6563458.06443   5109734.95842  21337270.305    21337267.546
  23278210.267     6776949.74243   5269786.72642  23278211.421    23278209.652
  20643854.469     6229540.76444   4857331.97442  20643855.990    20643852.483
  20984354.896     6595766.27644   5122031.52242  20984356.798    20984353.028
  24476691.571     6100897.40843   4760841.40942  24476693.035    24476691.832
  21124649.587     6521182.11943   5072477.17242  21124650.348    21124647.548
 04  5 14 16 10  0.0000000  0  8G24G21G17G 5G 6G30G29G10
  24233203.490     6740481.95143   5245391.62242  24233204.399    24233202.757
  22766652.495     -291892.50943   -216371.66842  22766653.799    22766650.016
  21347055.621     6614884.08043   5149807.15342  21347056.360    21347053.612
  23298394.909     6883020.26843   5352438.99542  23298395.990    23298394.260
  20637027.573     6193665.26544   4829377.04442  20637029.121    20637025.601
  20995822.478     6656028.81544   5168989.31142  20995824.384    20995820.622
  24461829.904     6022799.84343   4699986.23842  24461831.559    24461830.339
  21132176.187     6560734.89743   5103297.50742  21132176.984    21132174.195
 04  5 14 16 10 30.0000000  0  8G24G21G17G 5G 6G30G29G10
  24249472.635     6825976.97143   5312011.05842  24249473.671    24249472.028
  22752565.019     -365922.60743   -274057.42442  22752566.314    22752562.578
  21356880.874     6666515.82543   5190039.66042  21356881.549    21356878.817
  23318605.012     6989224.49843   5435195.43842  23318605.998    23318604.308
  20630255.655     6158078.75044   4801647.29342  20630257.253    20630253.715
  21007383.192     6716780.62744   5216328.35442  21007385.108    21007381.332
  24446988.285     5944807.43743   4639213.02442  24446990.048    24446988.822
  21139812.843     6600865.81943   5134568.34642  21139813.645    21139810.865
 04  5 14 16 11  0.0000000  0  8G24G21G17G 5G 6G30G29G10
  24265739.050     6911457.50543   5378619.21342  24265740.079    24265738.425
  22738513.770     -439762.29343   -331594.81142  22738515.064    22738511.355
  21366745.322     6718353.61043   5230432.71542  21366745.963    21366743.220
  23338840.307     7095561.16643   5518055.09042  23338841.252    23338839.588
  20623539.337     6122784.15544   4774145.01442  20623540.924    20623537.382
  21019036.878     6778020.99844   5264048.09442  21019038.804    21019035.018
  24432167.546     5866924.68943   4578525.25742  24432169.422    24432168.335
  21147559.420     6641574.38343   5166289.28942  21147560.224    21147557.454
 04  5 14 16 11 30.0000000  0  8G24G21G17G 5G 6G30G29G10
  24282003.832     6996929.48243   5445220.69642  24282004.913    24282003.255
  22724500.050     -513404.92443   -388978.63942  22724501.295    22724497.610
  21376649.971     6770402.76743   5270990.47842  21376650.621    21376647.884
  23359101.474     7202033.88443   5601020.74642  23359102.380    23359100.733
  20616880.165     6087789.78044   4746876.66642  20616881.762    20616878.165
  21030784.358     6839754.28044   5312151.91842  21030786.279    21030782.496
  24417369.501     5789161.10743   4517930.33742  24417371.505    24417370.462
  21155416.802     6682865.15143   5198463.90142  21155417.612    21155414.852
 04  5 14 16 12  0.0000000  0  8G24G21G17G 5G 6G30G29G10
  24298267.063     7082393.19343   5511815.73242  24298268.199    24298266.546
  22710524.047     -586849.19243   -446207.90042  22710525.307    22710521.618
  21386594.828     6822663.15843   5311712.83842  21386595.474    21386592.726
  23379388.309     7308641.26043   5684091.32242  23379389.192    23379387.507
  20610278.578     6053098.10544   4719844.19542  20610280.197    20610276.586
  21042625.445     6901979.54344   5360639.10742  21042627.374    21042623.608
  24402595.014     5711520.81543   4457431.50042  24402596.904    24402595.828
  21163384.868     6724737.54943   5231091.73142  21163385.686    21163382.940
 04  5 14 16 12 30.0000000  0  8G24G21G17G 5G 6G30G29G10
  24314528.391     7167846.64343   5578402.77042  24314529.465    24314527.915
  22696585.652     -660095.98743   -503283.29642  22696586.908    22696583.186
  21396579.344     6875131.88643   5352597.53942  21396579.962    21396577.207
  23399699.977     7415379.33743   5767263.77142  23399700.854    23399699.231
  20603734.553     6018708.79444   4693047.32842  20603736.171    20603732.533
  21054559.455     6964693.01344   5409506.71042  21054561.376    21054557.624
  24387844.333     5634005.53143   4397030.07342  24387846.159    24387845.128
  21171463.046     6767188.37543   5264170.27542  21171463.855    21171461.094
 04  5 14 16 13  0.0000000  0  8G24G21G17G 5G 6G30G29G10
  24330787.889     7253290.53343   5644982.36342  24330788.913    24330787.438
  22682685.222     -733143.36643   -560203.30842  22682686.464    22682682.724
  21406603.657     6927809.93343   5393645.34642  21406604.281    21406601.543
  23420036.331     7522247.28543   5850537.40242  23420037.202    23420035.605
  20597248.710     5984625.30744   4666488.77142  20597250.335    20597246.660
  21066586.341     7027894.49644   5458754.59042  21066588.268    21066584.518
  24373118.334     5556620.19943   4336729.90642  24373120.303    24373119.215
  21179651.285     6810217.69343   5297699.59842  21179652.110    21179649.317
 04  5 14 16 13 30.0000000  0  8G24G21G17G 5G 6G30G29G10
  24347044.332     7338718.58243   5711549.63142  24347045.418    24347044.001
  22668821.677     -805996.65543   -616972.07042  22668822.961    22668819.183
  21416666.551     6980690.44343   5434850.91342  21416667.119    21416664.404
  23440395.786     7629236.62843   5933905.64142  23440396.694    23440395.104
  20590820.319     5950843.78244   4640165.51042  20590821.966    20590818.280
  21078704.577     7091576.04243   5508376.54342  21078706.516    21078702.763
  24358416.563     5479362.19843   4276528.95142  24358418.501    24358417.382
  21187948.104     6853817.67443   5331673.60042  21187948.952    21187946.139
 04  5 14 16 14  0.0000000  0  8G24G21G17G 5G 6G30G29G10
  24363299.564     7424140.01543   5778111.70942  24363300.577    24363299.164
  22654997.083     -878645.18643   -673581.27642  22654998.386    22654994.637
  21426769.579     7033782.02843   5476220.95742  21426770.148    21426767.419
  23460779.783     7736354.88543   6017374.30242  23460780.710    23460779.123
  20584451.505     5917375.24044   4614086.12642  20584453.136    20584449.439
  21090915.676     7155745.57944   5558378.75442  21090917.621    21090913.871
  24343741.515     5402244.72843   4216437.50342  24343743.515    24343742.334
  21196355.128     6897996.69643   5366098.79642  21196355.955    21196353.137
 04  5 14 16 14 30.0000000  0  8G24G21G17G 5G 6G30G29G10
  24379551.285     7509542.77043   5844659.25242  24379552.232    24379550.788
  22641209.297     -951100.29943   -730039.77842  22641210.628    22641206.888
  21436910.380     7087072.24543   5517745.77642  21436910.967    21436908.251
  23481185.525     7843587.46843   6100932.06742  23481186.483    23481184.951
  20578140.376     5884209.87244   4588242.98842  20578141.987    20578138.280
  21103216.991     7220389.30144   5608750.45642  21103218.961    21103215.211
  24329091.627     5325259.25743   4156448.89842  24329093.595    24329092.389
  21204869.770     6942741.18643   5400964.61842  21204870.591    21204867.742
 04  5 14 16 15  0.0000000  0  8G24G21G17G 5G 6G30G29G10
  24395799.984     7594930.01943   5911194.71842  24395800.999    24395799.480
  22627459.192    -1023357.68943   -786344.20442  22627460.532    22627456.748
  21447089.538     7140564.03043   5559427.66242  21447090.137    21447087.451
  23501613.420     7950936.24343   6184580.35942  23501614.334    23501612.870
  20571887.980     5851353.22044   4562640.40242  20571889.592    20571885.855
  21115608.914     7285509.09043   5659493.11242  21115610.872    21115607.144
  24314468.255     5248412.88743   4096568.69642  24314470.191    24314468.928
  21213492.428     6988053.30643   5436272.74642  21213493.248    21213490.348
 04  5 14 16 15 30.0000000  0  8G24G21G17G 5G 6G30G29G10
  24412045.803     7680302.17443   5977718.41842  24412046.850    24412045.376
  22613746.914    -1095415.94443   -842493.45242  22613748.347    22613744.531
  21457306.989     7194257.10943   5601266.40642  21457307.590    21457304.954
  23522063.126     8058399.46343   6268317.82942  23522064.035    23522062.568
  20565694.824     5818807.92544   4537280.43442  20565696.453    20565692.688
  21128091.172     7351103.59643   5710605.68342  21128093.127    21128089.446
  24299872.029     5171709.71343   4036800.06942  24299874.073    24299872.788
  21222222.892     7033932.24843   5472022.55542  21222223.746    21222220.852
 04  5 14 16 16  0.0000000  0  8G24G21G17G 5G 6G30G29G10
  24428288.509     7765657.82743   6044229.25142  24428289.529    24428287.999
  22600072.519    -1167275.36343   -898487.77142  22600073.963    22600070.147
  21467562.413     7248149.64343   5643260.56542  21467563.032    21467560.396
  23542533.848     8165973.73943   6352141.84542  23542534.808    23542533.298
  20559560.974     5786574.35844   4512163.37242  20559562.633    20559558.873
  21140663.206     7417169.98643   5762085.95242  21140665.168    21140661.514
  24285303.545     5095152.23843   3977144.97842  24285305.580    24285304.334
  21231060.697     7080375.16643   5508211.82442  21231061.548    21231058.667
 04  5 14 16 16 30.0000000  0  8G24G21G17G 5G 6G30G29G10
  24444527.823     7850995.90843   6110726.39142  24444528.969    24444527.353
  22586435.997    -1238935.78743   -954327.02242  22586437.422    22586433.619
  21477855.523     7302240.19443   5685409.02442  21477856.147    21477853.533
  23563025.293     8273656.53443   6436050.41042  23563026.262    23563024.711
  20553486.796     5754654.28744   4487290.59742  20553488.456    20553484.684
  21153324.598     7483705.83543   5813932.03142  21153326.536    21153322.907
  24270763.366     5018743.41643   3917605.70842  24270765.393    24270764.124
  21240005.469     7127380.31543   5544839.19242  21240006.307    21240003.475
 04  5 14 16 17  0.0000000  0  8G24G21G17G 5G 6G30G29G10
  24460763.852     7936316.38743   6177209.82742  24460764.940    24460763.410
  22572837.492    -1310396.40043  -1010010.58042  22572838.974    22572835.083
  21488186.332     7356528.83143   5727711.83642  21488186.940    21488184.335
  23583536.987     8381445.90043   6520042.02242  23583537.976    23583536.448
  20547472.648     5723049.72744   4462663.67042  20547474.321    20547470.532
  21166075.046     7550709.68343   5866142.79142  21166077.004    21166073.326
  24256252.179     4942487.11643   3858185.28842  24256254.285    24256252.996
  21249056.957     7174946.09843   5581903.41942  21249057.780    21249054.983
 04  5 14 16 17 30.0000000  0  8G24G21G17G 5G 6G30G29G10
  24476995.926     8021615.98743   6243676.97442  24476996.980    24476995.515
  22559276.665    -1381659.13543  -1065539.95442  22559278.110    22559274.175
  21498554.035     7411011.30643   5770165.69342  21498554.625    21498552.036
  23604068.040     8489336.98343   6604112.88742  23604068.980    23604067.514
  20541518.325     5691759.54344   4438281.71342  20541520.005    20541516.223
  21178913.598     7618176.50043   5918714.30442  21178915.573    21178911.857
  24241770.127     4866383.74843   3798884.03842  24241772.193    24241770.902
  21258214.259     7223067.96343   5619400.96142  21258215.080    21258212.294
 04  5 14 16 18  0.0000000  0  8G24G21G17G 5G 6G30G29G10
  24493224.638     8106898.06543   6310130.48042  24493225.669    24493224.189
  22545754.257    -1452719.84843  -1120911.91042  22545755.694    22545751.715
  21508959.211     7465690.78543   5812773.06342  21508959.806    21508957.238
  23624618.597     8597330.47843   6688263.55742  23624619.485    23624618.109
  20535624.871     5660789.12444   4414148.92742  20535626.533    20535622.760
  21191840.575     7686107.95243   5971647.87642  21191842.566    21191838.800
  24227318.622     4790440.53243   3739707.58642  24227320.695    24227319.244
  21267477.764     7271748.05743   5657333.48342  21267478.627    21267475.839
 04  5 14 16 18 30.0000000  0  8G24G21G17G 5G 6G30G29G10
  24509448.758     8192156.04443   6376565.19842  24509449.741    24509448.349
  22532269.153    -1523584.48743  -1176131.08142  22532270.608    22532266.576
  21519400.512     7520560.02043   5855528.29042  21519401.082    21519398.539
  23645187.071     8705418.05843   6772487.55142  23645187.939    23645186.533
  20529791.453     5630134.26944   4390262.03042  20529793.146    20529789.343
  21204854.373     7754495.66843   6024936.97342  21204856.377    21204852.593
  24212896.978     4714654.47843   3680653.58442  24212899.077    24212897.590
  21276845.969     7320978.11143   5695694.54542  21276846.807    21276844.039
 04  5 14 16 19  0.0000000  0  8G24G21G17G 5G 6G30G29G10
  24525670.047     8277399.20143   6442988.38042  24525671.036    24525669.690
  22518823.332    -1594242.58443  -1231189.30442  22518824.776    22518820.781
  21529879.608     7575627.86443   5898438.27342  21529880.142    21529877.671
  23665774.807     8813607.21043   6856790.67842  23665775.627    23665774.372
  20524020.245     5599806.37644   4366629.91242  20524021.922    20524018.178
  21217956.414     7823347.38143   6078587.63542  21217958.428    21217954.735
  24198507.783     4639038.65243   3621732.21942  24198509.800    24198508.355
  21286320.330     7370766.16843   5734490.42042  21286321.164    21286318.442
 04  5 14 16 19 30.0000000  0  9G24G21G18G17G 5G 6G30G29G10
  24541884.714     2060929.70253   1598986.13052  24541884.827    24541884.586
  22505413.626    -1664711.02743  -1286099.73942  22505415.018    22505411.056
  24792058.563    -1915537.76753  -1476702.09352  24792060.320    24792060.248
  21540393.028     7630875.94043   5941488.70042  21540393.537    21540391.089
  23686378.144     8921877.96243   6941157.40642  23686378.907    23686377.792
  20518308.250     5569789.53344   4343240.16642  20518309.922    20518306.181
  21231143.083     7892643.50643   6132584.58242  21231145.067    21231141.413
  24184148.206     4563578.84143   3562932.42642  24184150.197    24184148.673
  21295897.210     7421092.82043   5773705.97342  21295898.030    21295895.336
 04  5 14 16 20  0.0000000  0  9G24G21G18G17G 5G 6G30G29G10
  24558097.532     2146126.50343   1665373.16942  24558098.473    24558097.450
  22492043.783    -1734969.93243  -1340846.90842  22492045.193    22492041.230
  24770765.783    -2027430.86743  -1563891.36742  24770767.634    24770767.599
  21550944.283     7686323.00743   5984694.18242  21550944.779    21550942.356
  23707000.297     9030247.45143   7025601.06142  23707001.059    23706999.933
  20512659.432     5540104.84344   4320109.24342  20512661.093    20512657.383
  21244417.583     7962401.25943   6186941.24242  21244419.554    21244415.916
  24169822.688     4488298.01543   3504272.11542  24169824.589    24169823.217
  21305579.901     7471975.52043   5813354.82042  21305580.701    21305578.031
 04  5 14 16 20 30.0000000  0  9G24G21G18G17G 5G 6G30G29G10
  24574305.374     2231298.80143   1731741.12942  24574306.244    24574305.383
  22478711.977    -1805028.89143  -1395438.26542  22478713.395    22478709.437
  24749479.844    -2139288.54043  -1651053.01142  24749481.648    24749481.611
  21561531.266     7741957.89043   6028046.01442  21561531.772    21561529.374
  23727638.818     9138702.87843   7110111.67942  23727639.596    23727638.440
  20507072.219     5510743.80444   4297230.51842  20507073.863    20507070.163
  21257777.586     8032608.39343   6241648.06742  21257779.542    21257775.908
  24155529.878     4413189.10943   3445745.76042  24155531.685    24155530.388
  21315366.113     7523402.37843   5853427.68642  21315366.929    21315364.253
 04  5 14 16 21  0.0000000  0  9G24G21G18G17G 5G 6G30G29G10
  24590508.833     2316448.20943   1798091.26242  24590509.779    24590508.900
  22465418.659    -1874885.51643  -1449871.95942  22465420.092    22465416.123
  24728201.562    -2251106.15443  -1738183.49542  24728203.372    24728203.243
  21572154.187     7797781.74343   6071545.09542  21572154.744    21572152.355
  23748293.611     9247244.24743   7194689.26942  23748294.377    23748293.258
  20501547.370     5481710.48344   4274607.16042  20501548.999    20501545.297
  21271223.067     8103264.73143   6296704.91742  21271225.027    21271221.402
  24141270.854     4338257.65443   3387357.68242  24141272.625    24141271.281
  21325255.884     7575373.52743   5893924.67342  21325256.723    21325254.028
 04  5 14 16 21 30.0000000  0  9G24G21G18G17G 5G 6G30G29G10
  24606708.066     2401575.55443   1864424.19842  24606708.955    24606708.102
  22452164.208    -1944538.16143  -1504146.70942  22452165.608    22452161.652
  24706931.593    -2362879.99543  -1825279.83042  24706933.201    24706933.194
  21582813.096     7853794.65843   6115191.49542  21582813.658    21582811.287
  23768964.468     9355870.02743   7279332.61942  23768965.315    23768964.190
  20496085.283     5453007.05144   4252240.85642  20496086.914    20496083.222
  21284753.793     8174369.07743   6352110.86642  21284755.748    21284752.155
  24127046.421     4263507.81943   3329111.12242  24127048.170    24127046.886
  21335249.117     7627888.16843   5934845.15642  21335249.926    21335247.230
 04  5 14 16 22  0.0000000  0  9G24G21G18G17G 5G 6G30G29G10
  24622901.591     2486672.96443   1930733.80342  24622902.541    24622901.650
  22438947.310    -2013993.55143  -1558267.75442  22438948.687    22438944.698
  24685668.951    -2474615.08943  -1912345.98142  24685670.494    24685670.362
  21593506.454     7909988.45943   6158978.84942  21593507.018    21593504.644
  23789649.518     9464570.56643   7364034.22442  23789650.385    23789649.379
  20490684.951     5424628.17444   4230127.45042  20490686.594    20490682.901
  21298367.973     8245911.82543   6407858.42842  21298369.921    21298366.344
  24112855.783     4188935.66243   3271003.00442  24112857.590    24112856.239
  21345343.989     7680936.84543   5976181.77642  21345344.776    21345342.071
 04  5 14 16 22 30.0000000  0  9G24G21G18G17G 5G 6G30G29G10
  24639090.707     2571747.20743   1997025.35642  24639091.629    24639090.697
  22425769.298    -2083244.17343  -1612229.24842  22425770.681    22425766.712
  24664415.516    -2586301.71343  -1999374.34342  24664417.126    24664417.145
  21604235.401     7966369.39443   6202912.02242  21604236.019    21604233.599
  23810349.717     9573350.71143   7448797.85342  23810350.608    23810349.734
  20485348.074     5396582.62744   4208273.77942  20485349.686    20485346.019
  21312066.487     8317897.91243   6463951.45242  21312068.443    21312064.891
  24098700.860     4114551.55743   3213041.44042  24098702.707    24098701.390
  21355541.411     7734524.69143   6017938.52042  21355542.224    21355539.526
 04  5 14 16 23  0.0000000  0  9G24G21G18G17G 5G 6G30G29G10
  24655275.148     2656796.93043   2063297.81742  24655276.114    24655275.217
  22412630.231    -2152290.51043  -1666031.55542  22412631.540    22412627.594
  24643171.596    -2697938.35643  -2086363.75842  24643173.341    24643173.170
  21614999.612     8022935.69443   6246989.63842  21615000.260    21614997.828
  23831064.375     9682206.94343   7533620.76542  23831065.278    23831064.518
  20480074.806     5368871.40044   4186680.62242  20480076.403    20480072.747
  21325848.818     8390324.37043   6520387.62742  21325850.786    21325847.230
  24084582.224     4040357.97843   3155228.31542  24084584.059    24084582.732
  21365840.888     7788648.81543   6060113.14942  21365841.716    21365839.063
 04  5 14 16 23 30.0000000  0  9G24G21G18G17G 5G 6G30G29G10
  24671456.139     2741828.35343   2129556.00042  24671457.020    24671456.137
  22399531.367    -2221125.45443  -1719669.14242  22399532.656    22399528.716
  24621938.933    -2809515.91043  -2173307.12242  24621940.668    24621940.419
  21625800.192     8079693.01643   6291216.09642  21625800.839    21625798.417
  23851794.388     9791143.49643   7618506.26742  23851795.263    23851794.582
  20474866.575     5341502.01744   4165353.83742  20474868.183    20474864.538
  21339715.731     8463195.27343   6577170.12042  21339717.695    21339714.141
  24070501.712     3966364.58843   3097571.18942  24070503.581    24070502.156
  21376243.298     7843313.81643   6102709.23542  21376244.125    21376241.520
 04  5 14 16 24  0.0000000  0  9G24G21G18G17G 5G 6G30G29G10
  24687629.888     2826821.88443   2195784.67342  24687630.811    24687629.954
  22386469.038    -2289768.26643  -1773157.00942  22386470.313    22386466.438
  24600714.290    -2921051.41743  -2260217.74142  24600716.104    24600715.742
  21636633.265     8136620.93243   6335575.48342  21636633.866    21636631.465
  23872535.590     9900138.46443   7703437.26842  23872536.390    23872535.740
  20469720.181     5314457.53144   4144280.21642  20469721.799    20469718.173
  21353663.089     8536488.90743   6634282.01342  21353665.055    21353661.485
  24056456.209     3892555.42943   3040057.62342  24056458.219    24056456.603
  21386744.512     7898498.13943   6145709.99142  21386745.353    21386742.785
 04  5 14 16 24 30.0000000  0  9G24G21G18G17G 5G 6G30G29G10
  24703798.491     2911788.44143   2261992.32442  24703799.442    24703798.654
  22373445.630    -2358206.55343  -1826485.50242  22373446.892    22373443.027
  24579500.349    -3032530.71843  -2347084.54242  24579502.227    24579501.974
  21647500.885     8193730.46043   6380076.38942  21647501.492    21647499.071
  23893289.640    10009201.13443   7788421.04242  23893290.481    23893289.796
  20464638.042     5287750.61644   4123469.64142  20464639.652    20464636.031
  21367692.661     8610214.59843   6691730.56942  21367694.624    21367691.056
  24042448.656     3818945.34743   2982699.17342  24042450.660    24042449.060
  21397346.407     7954211.39843   6189122.90442  21397347.262    21397344.688
 04  5 14 16 25  0.0000000  0  9G24G21G18G17G 5G 6G30G29G10
  24719961.297     2996724.21043   2328175.98942  24719962.297    24719961.401
  22360460.640    -2426443.05343  -1879656.76642  22360461.893    22360458.014
  24558297.024    -3143954.57743  -2433908.15742  24558298.892    24558298.448
  21658402.242     8251017.21543   6424715.39342  21658402.816    21658400.385
  23914055.563    10118325.83043   7873453.15242  23914056.368    23914055.665
  20459619.859     5261379.71544   4102920.88042  20459621.435    20459617.806
  21381803.340     8684366.67243   6749511.37542  21381805.329    21381801.760
  24028478.982     3745534.11743   2925495.67642  24028481.022    24028479.331
  21408047.903     8010448.05343   6232943.66042  21408048.761    21408046.166
 04  5 14 16 25 30.0000000  0  9G24G21G18G17G 5G 6G30G29G10
  24736118.354     3081629.84443   2394336.16242  24736119.354    24736118.512
  22347514.260    -2494476.48943  -1932669.80042  22347515.514    22347511.612
  24537104.840    -3255319.79343  -2520686.09342  24537106.635    24537106.138
  21669337.349     8308481.37243   6469492.63742  21669337.914    21669335.457
  23934833.030    10227511.21043   7958532.55242  23934833.815    23934833.050
  20454666.207     5235348.02244   4082636.44942  20454667.784    20454664.145
  21395994.987     8758944.11343   6807623.63442  21395996.974    21395993.423
  24014547.947     3672326.27643   2868450.66042  24014550.080    24014548.273
  21418848.831     8067207.25343   6277171.59342  21418849.675    21418847.077
 04  5 14 16 26  0.0000000  0  9G24G21G18G17G 5G 6G30G29G10
  24752269.910     3166506.73943   2460473.94142  24752270.960    24752270.083
  22334606.913    -2562304.91743  -1985523.08742  22334608.163    22334604.242
  24515924.521    -3366622.51243  -2607415.32842  24515926.441    24515925.827
  21680306.339     8366123.64343   6514408.67142  21680306.902    21680304.445
  23955621.877    10336756.37443   8043658.54042  23955622.572    23955621.751
  20449777.565     5209657.92644   4062618.19142  20449779.143    20449775.469
  21410267.344     8833945.77643   6866066.45242  21410269.318    21410265.799
  24000656.489     3599326.63143   2811567.87142  24000658.588    24000656.769
  21429749.106     8124488.48643   6321806.30142  21429749.950    21429747.336
 04  5 14 16 26 30.0000000  0 10G24G21G18G17G 5G 6G30G29G26G10
  24768415.210     3251350.71843   2526586.07342  24768416.213    24768415.378
  22321738.034    -2629931.38343  -2038219.00442  22321739.261    22321735.280
  24494755.940    -3477863.44843  -2694096.41342  24494757.906    24494757.197
  21691308.369     8423939.68043   6559460.10342  21691308.943    21691306.477
  23976420.928    10446055.34543   8128826.44842  23976421.654    23976420.805
  20444953.653     5184308.04944   4042865.03542  20444955.229    20444951.545
  21424619.336     8909365.95743   6924835.38842  21424621.299    21424617.826
  23986804.663     3526534.74343   2754846.96642  23986806.713    23986804.926
  24373122.350    -2146408.38853  -1658918.78052  24373124.514    24373124.326
  21440747.632     8182285.97443   6366843.28742  21440748.462    21440745.854
 04  5 14 16 27  0.0000000  0 10G24G21G18G17G 5G 6G30G29G26G10
  24784554.762     3336164.48443   2592674.65742  24784555.806    24784555.038
  22308908.161    -2697352.60543  -2090754.98542  22308909.423    22308905.420
  24473600.338    -3589036.65443  -2780724.73042  24473602.250    24473601.464
  21702343.866     8481931.66543   6604648.64242  21702344.474    21702342.017
  23997230.373    10555409.00043   8214036.96642  23997231.134    23997230.195
  20440195.356     5159302.97744   4023380.56342  20440196.918    20440193.257
  21439051.107     8985205.37243   6983931.00242  21439053.067    21439049.639
  23972993.628     3453957.11043   2698293.02142  23972995.549    23972993.795
  24354886.402    -2242238.47043  -1733591.47442  24354888.632    24354888.376
  21451844.545     8240600.57143   6412283.21842  21451845.378    21451842.786
 04  5 14 16 27 30.0000000  0 10G24G21G18G17G 5G 6G30G29G26G10
  24800688.768     3420949.10543   2658740.53042  24800689.785    24800688.966
  22296117.734    -2764566.59443  -2143129.48542  22296118.978    22296114.977
  24452458.239    -3700138.93943  -2867297.78642  24452460.048    24452459.195
  21713412.950     8540099.96843   6649974.57342  21713413.568    21713411.092
  24018049.967    10664815.99043   8299289.03142  24018050.755    24018049.776
  20435503.192     5134645.42544   4004166.88242  20435504.749    20435501.097
  21453562.448     9061462.84043   7043352.37242  21453564.389    21453560.995
  23959224.116     3381598.23743   2641909.53542  23959226.010    23959224.364
  24336664.041    -2337997.49043  -1808208.77542  24336666.311    24336665.960
  21463039.683     8299431.32043   6458125.34442  21463040.514    21463037.943
 04  5 14 16 28  0.0000000  0 10G24G21G18G17G 5G 6G30G29G26G10
  24816816.399     3505699.96643   2724780.09942  24816817.375    24816816.534
  22283366.027    -2831577.03043  -2195345.37442  22283367.265    22283363.277
  24431329.381    -3811171.72043  -2953816.67842  24431331.039    24431330.241
  21724514.621     8598439.47943   6695433.91742  21724515.225    21724512.768
  24038878.484    10774269.90343   8384577.66242  24038879.263    24038878.368
  20430876.648     5110332.75244   3985221.94142  20430878.221    20430874.556
  21468152.050     9138131.74443   7103094.34442  21468154.011    21468150.602
  23945496.071     3309457.00443   2585695.64342  23945497.909    23945496.315
  24318455.051    -2433685.99843  -1882771.15142  24318457.358    24318456.908
  21474331.863     8358771.88143   6504364.72242  21474332.684    21474330.084
 04  5 14 16 28 30.0000000  0 10G24G21G18G17G 5G 6G30G29G26G10
  24832937.719     3590417.42443   2790793.63842  24832938.693    24832937.757
  22270653.249    -2898383.14043  -2247402.04742  22270654.467    22270650.465
  24410214.084    -3922132.67143  -3040279.60542  24410215.752    24410214.998
  21735648.878     8656950.21043   6741026.67742  21735649.471    21735647.024
  24059715.612    10883769.11443   8469901.57542  24059716.354    24059715.569
  20426316.183     5086367.52744   3966547.74042  20426317.781    20426314.135
  21482819.664     9215210.37643   7163155.58042  21482821.613    21482818.162
  23931810.213     3237537.54843   2529654.55142  23931812.044    23931810.465
  24300260.329    -2529299.49143  -1957275.07542  24300262.573    24300262.180
  21485720.799     8418620.88443   6551000.29042  21485721.613    21485719.000
 04  5 14 16 29  0.0000000  0 10G24G21G18G17G 5G 6G30G29G26G10
  24849052.763     3675102.24143   2856781.75142  24849053.807    24849052.810
  22257979.675    -2964983.03043  -2299298.02942  22257980.922    22257976.881
  24389113.178    -4033017.86143  -3126683.48542  24389114.828    24389114.161
  21746815.749     8715632.30943   6786752.96642  21746816.328    21746813.886
  24080561.066    10993312.23443   8555259.70142  24080561.798    24080561.052
  20421822.362     5062752.37044   3948146.31742  20421823.981    20421820.314
  21497565.007     9292697.47543   7223535.09942  21497566.979    21497563.477
  23918167.354     3165843.94943   2473789.45542  23918169.244    23918167.489
  24282080.698    -2624833.24443  -2031716.85442  24282082.892    24282082.719
  21497206.236     8478977.28443   6598031.23942  21497207.073    21497204.457
 04  5 14 16 29 30.0000000  0 10G24G21G18G17G 5G 6G30G29G26G10
  24865161.607     3759754.52143   2922744.49942  24865162.687    24865161.773
  22245345.477    -3031376.09343  -2351032.84942  22245346.746    22245342.702
  24368027.224    -4143824.24843  -3213025.96042  24368028.979    24368028.212
  21758015.124     8774485.39843   6832612.49742  21758015.736    21758013.288
  24101414.452    11102897.33743   8640650.54342  24101415.280    24101414.591
  20417395.588     5039489.58844   3930019.47442  20417397.233    20417393.566
  21512387.688     9370591.01843   7284231.33242  21512389.663    21512386.125
  23904568.207     3094380.20243   2418103.45842  23904570.152    23904568.317
  24263917.071    -2720283.12643  -2106093.29042  24263919.217    24263919.010
  21508787.948     8539839.50943   6645456.32842  21508788.774    21508786.155
 04  5 14 16 30  0.0000000  0 10G24G21G18G17G 5G 6G30G29G26G10
  24881263.291     3844369.68643   2988678.34542  24881264.437    24881263.537
  22232749.908    -3097566.00043  -2402609.36542  22232751.197    22232747.222
  24346956.089    -4254553.24543  -3299308.14842  24346957.896    24346956.960
  21769246.118     8833504.48343   6878601.37142  21769246.702    21769244.282
  24122274.687    11212518.10043   8726069.17742  24122275.467    24122274.770
  20413035.293     5016576.07644   3912164.78842  20413036.949    20413033.284
  21527286.497     9448884.58843   7345239.27442  21527288.463    21527284.919
  23891012.540     3023145.25543   2362595.76542  23891014.507    23891012.696
  24245769.330    -2815649.67943  -2180404.79342  24245771.559    24245771.150
  21520464.687     8601200.98143   6693270.44942  21520465.514    21520462.861
 04  5 14 16 30 30.0000000  0  9G21G18G17G 5G 6G30G29G26G10
  22220193.910    -3163547.98943  -2454023.86342  22220195.206    22220191.246
  24325901.007    -4365198.22743  -3385524.89842  24325902.808    24325901.725
  21780509.383     8892693.25743   6924722.46942  21780509.973    21780507.553
  24143141.947    11322176.20743   8811516.89542  24143142.698    24143142.161
  20408742.722     4994018.45144   3894587.41242  20408744.375    20408740.723
  21542261.760     9527579.84743   7406560.22342  21542263.713    21542260.167
  23877501.891     2952146.68843   2307272.24542  23877503.801    23877502.025
  24227639.014    -2910924.87743  -2254645.11342  24227641.312    24227640.746
  21532236.825     8663063.83743   6741475.25842  21532237.665    21532235.000
 04  5 14 16 31  0.0000000  0  9G21G18G17G 5G 6G30G29G26G10
  22207678.358    -3229317.61343  -2505272.89042  22207679.641    22207675.678
  24304863.072    -4475752.76143  -3471671.16142  24304864.802    24304863.655
  21791805.529     8952054.77643   6970978.18342  21791806.097    21791803.701
  24164016.774    11431873.52843   8896995.17942  24164017.453    24164017.005
  20404518.888     4971821.94344   3877291.43042  20404520.527    20404516.861
  21557313.772     9606678.57643   7468195.56342  21557315.734    21557312.180
  23864037.658     2881391.75943   2252138.58742  23864039.629    23864037.801
  24209527.518    -3006100.88343  -2328808.14542  24209529.913    24209529.175
  21544104.740     8725429.99543   6790072.24642  21544105.593    21544102.895
 04  5 14 16 31 30.0000000  0  9G21G18G17G 5G 6G30G29G26G10
  22195201.095    -3294886.23043  -2556365.29142  22195202.343    22195198.405
  24283840.620    -4586226.08843  -3557754.14742  24283842.302    24283841.069
  21803132.183     9011576.71743   7017358.89242  21803132.759    21803130.384
  24184896.394    11541595.99843   8982493.03842  24184897.117    24184896.669
  20400361.847     4949976.46644   3860268.97742  20400363.474    20400359.806
  21572439.868     9686166.40643   7530134.09642  21572441.824    21572438.251
  23850618.222     2810872.07243   2197188.22442  23850620.243    23850618.322
  24191433.409    -3101185.87943  -2402900.26242  24191435.753    24191435.046
  21556065.698     8788285.24743   6839050.34542  21556066.573    21556063.882
 04  5 14 16 32  0.0000000  0  9G21G18G17G 5G 6G30G29G26G10
  22182762.074    -3360253.67643  -2607300.93542  22182763.348    22182759.380
  24262833.916    -4696616.02643  -3643772.15542  24262835.587    24262834.259
  21814489.112     9071257.62643   7063863.47142  21814489.657    21814487.326
  24205780.275    11651340.66743   9068008.20442  24205781.060    24205780.507
  20396271.811     4928483.28744   3843521.04142  20396273.462    20396269.788
  21587639.487     9766040.56643   7592373.66442  21587641.453    21587637.824
  23837244.003     2740590.24343   2142423.21242  23837245.993    23837244.169
  24173357.278    -3196176.33743  -2476918.70842  24173359.545    24173358.944
  21568119.258     8851627.04443   6888407.57042  21568120.114    21568117.458
 04  5 14 16 32 30.0000000  0  9G21G18G17G 5G 6G30G29G26G10
  22170363.525    -3425408.36943  -2658070.80042  22170364.835    22170360.839
  24241845.691    -4806909.14043  -3729714.71342  24241847.415    24241846.057
  21825878.283     9131107.94943   7110500.06642  21825878.813    21825876.493
  24226670.141    11761116.57143   9153547.70742  24226670.877    24226670.328
  20392251.228     4907355.02344   3827057.45842  20392252.894    20392249.223
  21602914.317     9846309.91843   7654921.17542  21602916.271    21602912.616
  23823917.858     2670561.01843   2087855.03042  23823919.770    23823918.054
  24155302.000    -3291057.43743  -2550851.93342  24155304.231    24155303.530
  21580267.023     8915464.07843   6938150.69242  21580267.907    21580265.275
 04  5 14 16 33  0.0000000  0  9G21G18G17G 5G 6G30G29G26G10
  22158003.942    -3490358.46743  -2708681.23642  22158005.271    22158001.204
  24220874.683    -4917111.64043  -3815586.64342  24220876.454    24220875.133
  21837297.917     9191118.40343   7157261.43342  21837298.440    21837296.127
  24247563.816    11870912.70943   9239102.97242  24247564.474    24247563.921
  20388298.852     4886585.07544   3810873.08642  20388300.490    20388296.841
  21618262.198     9926963.22343   7717767.87642  21618264.152    21618260.493
  23810638.691     2600778.93743   2033479.43042  23810640.626    23810638.905
  24137266.658    -3385833.93443  -2624703.66142  24137268.827    24137268.081
  21592507.080     8979785.72443   6988271.43542  21592507.930    21592505.299
 04  5 14 16 33 30.0000000  0  9G21G18G17G 5G 6G30G29G26G10
  22145684.100    -3555099.51143  -2759128.77442  22145685.433    22145681.351
  24199922.308    -5027216.33843  -3901382.37842  24199924.156    24199922.798
  21848748.688     9251292.48243   7204150.29842  21848749.210    21848746.897
  24268461.676    11980731.08043   9324675.56042  24268462.316    24268461.735
  20384415.676     4866178.92144   3794972.18242  20384417.339    20384413.672
  21633683.432    10008002.45143   7780915.28942  21633685.430    21633681.807
  23797408.053     2531251.41243   1979302.18142  23797409.873    23797408.261
  24119252.743    -3480497.92043  -2698467.70742  24119254.855    24119254.004
  21604839.704     9044593.93843   7038771.31542  21604840.557    21604837.896
 04  5 14 16 34  0.0000000  0  9G21G18G17G 5G 6G30G29G26G10
  22133403.255    -3619635.69443  -2809416.67642  22133404.602    22133400.480
  24178988.115    -5137225.71043  -3987103.83142  24178989.935    24178988.586
  21860229.543     9311624.77743   7251162.45142  21860230.076    21860227.755
  24289362.409    12090564.44443   9410259.81442  24289363.016    24289362.513
  20380601.232     4846133.77444   3779352.59242  20380602.879    20380599.206
  21649176.709    10089420.24443   7844357.69942  21649178.718    21649175.168
  23784225.516     2461977.09643   1925322.24542  23784227.386    23784225.816
  24101259.936    -3575050.44643  -2772144.89842  24101262.083    24101261.217
  21617263.610     9109881.91943   7089645.04842  21617264.501    21617261.793
 04  5 14 16 34 30.0000000  0  9G21G18G17G 5G 6G30G29G26G10
  22121162.332    -3683962.05943  -2859541.08842  22121163.698    22121159.543
  24158073.438    -5247132.93943  -4072745.70742  24158075.218    24158073.876
  21871741.235     9372118.95843   7298300.74342  21871741.744    21871739.393
  24310266.394    12200415.12543   9495857.57042  24310267.173    24310266.554
  20376856.569     4826455.41144   3764018.80942  20376858.212    20376854.529
  21664742.439    10171218.47743   7908096.54342  21664744.427    21664740.894
  23771092.592     2392963.40343   1871545.38442  23771094.444    23771092.927
  24083289.912    -3669483.25043  -2845728.78842  24083292.098    24083291.145
  21629779.214     9175651.57943   7140894.10842  21629780.076    21629777.342
 04  5 14 16 35  0.0000000  0  9G21G18G17G 5G 6G30G29G26G10
  22108960.558    -3748082.73143  -2909505.21342  22108961.918    22108957.757
  24137177.886    -5356939.93343  -4158309.48842  24137179.603    24137178.194
  21883282.675     9432769.45043   7345560.84042  21883283.197    21883280.771
  24331172.453    12310276.55043   9581463.67642  24331173.148    24331172.746
  20373181.148     4807140.89544   3748968.53842  20373182.780    20373179.106
  21680379.273    10253390.26043   7972126.47142  21680381.230    21680377.714
  23758009.069     2324209.15643   1817970.69842  23758010.918    23758009.425
  24065342.483    -3763797.19343  -2919220.07842  24065344.671    24065343.609
  21642385.133     9241896.13143   7192513.22142  21642386.020    21642383.293
 04  5 14 16 35 30.0000000  0  9G21G18G17G 5G 6G30G29G26G10
  22096798.386    -3811995.07243  -2959306.99742  22096799.774    22096795.610
  24116302.358    -5466641.36843  -4243791.01642  24116304.095    24116302.664
  21894854.242     9493578.19343   7392944.24742  21894854.739    21894852.304
  24352080.424    12420148.11743   9667077.70042  24352081.126    24352080.784
  20369575.769     4788194.13544   3734204.82742  20369577.344    20369573.650
  21696087.076    10335935.25643   8036447.20642  21696089.044    21696085.528
  23744975.988     2255719.89343   1764602.49642  23744977.840    23744976.326
  24047418.793    -3857986.10543  -2992613.93342  24047420.977    24047419.918
  21655081.439     9308615.49243   7244502.31342  21655082.328    21655079.587
 04  5 14 16 36  0.0000000  0  9G21G18G17G 5G 6G30G29G26G10
  22084675.937    -3875698.87643  -3008946.29442  22084677.301    22084673.138
  24095447.292    -5576235.49043  -4329188.92642  24095448.981    24095447.455
  21906455.697     9554544.14443   7440450.15642  21906456.240    21906453.730
  24372990.016    12530027.83643   9752698.07642  24372990.703    24372990.323
  20366040.593     4769616.54544   3719728.79042  20366042.149    20366038.467
  21711865.385    10418850.76543   8101056.65642  21711867.358    21711863.848
  23731993.843     2187498.58843   1711443.10242  23731995.773    23731994.136
  24029519.541    -3952046.44743  -3065907.60742  24029521.822    24029520.706
  21667867.630     9375807.21243   7296859.47942  21667868.508    21667865.772
 04  5 14 16 36 30.0000000  0  9G21G18G17G 5G 6G30G29G26G10
  22072592.852    -3939195.63643  -3058424.25342  22072594.228    22072590.083
  24074612.686    -5685721.82043  -4414502.84342  24074614.340    24074612.752
  21918086.550     9615664.53843   7488076.41242  21918087.108    21918084.546
  24393900.275    12639911.05643   9838321.17842  24393901.010    24393900.409
  20362575.579     4751407.76344   3705540.12942  20362577.124    20362573.452
  21727713.379    10502132.38543   8165951.39242  21727715.350    21727711.845
  23719063.063     2119546.73143   1658493.65242  23719064.938    23719063.230
  24011645.178    -4045976.38543  -3139099.65742  24011647.440    24011646.369
  21680742.878     9443466.89043   7349581.28142  21680743.747    21680741.019
 04  5 14 16 37  0.0000000  0  9G21G18G17G 5G 6G30G29G26G10
  22060549.787    -4002482.12243  -3107738.37042  22060551.137    22060547.032
  24053799.569    -5795094.99943  -4499728.58442  24053801.123    24053799.624
  21929747.177     9676941.54343   7535824.70042  21929747.806    21929745.180
  24414811.412    12749798.84143   9923947.82642  24414812.113    24414811.618
  20359181.579     4733572.20344   3691642.28842  20359183.149    20359179.471
  21743631.116    10585780.43543   8231131.66042  21743633.069    21743629.583
  23706184.626     2051870.07743   1605758.65542  23706186.518    23706184.672
  23993796.852    -4139769.18843  -3212184.87242  23993799.086    23993798.256
  21693707.245     9511595.06343   7402668.15242  21693708.122    21693705.427
 04  5 14 16 37 30.0000000  0  9G21G18G17G 5G 6G30G29G26G10
  22048546.598    -4065559.02543  -3156889.17142  22048547.935    22048543.858
  24033008.139    -5904353.97643  -4584865.32842  24033009.713    24033008.204
  21941437.264     9738373.15943   7583693.46342  21941437.872    21941435.279
  24435722.650    12859687.20743  10009574.92542  24435723.299    24435722.855
  20355858.660     4716110.16444   3678035.50742  20355860.224    20355856.553
  21759617.788    10669790.89643   8296594.32542  21759619.756    21759616.285
  23693358.899     1984470.51643   1553239.58642  23693360.844    23693358.962
  23975975.147    -4233422.58743  -3285161.44842  23975977.340    23975976.458
  21706760.056     9580187.96743   7456117.14542  21706760.915    21706758.270
 04  5 14 16 38  0.0000000  0  9G21G18G17G 5G 6G30G29G26G10
  22036582.632    -4128429.79743  -3205879.34842  22036583.968    22036579.926
  24012238.275    -6013499.72143  -4669913.85142  24012239.881    24012238.351
  21953155.910     9799955.00943   7631679.28842  21953156.537    21953153.929
  24456632.833    12969570.25643  10095197.85442  24456633.524    24456633.071
  20352606.428     4699019.60544   3664718.19442  20352608.015    20352604.333
  21775672.330    10754157.84643   8362334.76742  21775674.262    21775670.835
  23680585.796     1917347.71243   1500936.16442  23680587.779    23680585.818
  23958179.992    -4326936.27643  -3358029.17342  23958182.169    23958181.314
  21719900.213     9649239.87243   7509923.80542  21719901.072    21719898.456
 04  5 14 16 38 30.0000000  0  9G21G18G17G 5G 6G30G29G26G10
  22024658.951    -4191089.17043  -3254704.80142  22024660.245    22024656.250
  23991491.310    -6122525.14943  -4754868.62542  23991492.874    23991491.452
  21964903.927     9861691.14343   7679785.33742  21964904.554    21964901.964
  24477542.576    13079450.67543  10180818.73942  24477543.214    24477542.817
  20349426.100     4682306.74544   3651695.18042  20349427.679    20349423.980
  21791795.052    10838883.25243   8428354.52342  21791796.980    21791793.597
  23667866.889     1850509.60643   1448854.58842  23667868.890    23667866.910
  23940413.160    -4420301.68443  -3430781.36042  23940415.250    23940414.355
  21733128.119     9718752.98743   7564089.84842  21733128.984    21733126.399
 04  5 14 16 39  0.0000000  0  9G21G18G17G 5G 6G30G29G26G10
  22012774.958    -4253539.93643  -3303367.70142  22012776.237    22012772.254
  23970767.195    -6231430.94043  -4839730.17142  23970768.707    23970767.269
  21976680.608     9923578.01143   7728008.83942  21976681.223    21976678.669
  24498450.805    13189322.99643  10266433.30542  24498451.327    24498451.073
  20346317.346     4665970.17144   3638965.38242  20346318.962    20346315.238
  21807984.965    10923961.74543   8494649.42742  21807986.910    21807983.522
  23655202.217     1783956.44143   1396995.04342  23655204.216    23655202.213
  23922674.566    -4513518.17543  -3503417.49542  23922676.686    23922675.761
  21746442.789     9788721.89443   7618611.05642  21746443.614    21746441.074
 04  5 14 16 39 30.0000000  0  9G21G18G17G 5G 6G30G29G26G10
  22000930.470    -4315783.30443  -3351869.00042  22000931.718    22000927.717
  23950066.011    -6340216.39743  -4924497.97742  23950067.503    23950066.002
  21988485.447     9985612.78643   7776347.59442  21988486.073    21988483.497
  24519356.749    13299183.13443  10352038.37742  24519357.261    24519357.076
  20343280.166     4650009.59844   3626528.56842  20343281.765    20343278.035
  21824241.201    11009388.57043   8561215.73642  21824243.138    21824239.752
  23642591.982     1717689.48643   1345358.51042  23642593.998    23642592.003
  23904964.744    -4606583.61743  -3575935.93242  23904966.811    23904965.894
  21759843.382     9859142.46543   7673484.21042  21759844.193    21759841.699
 04  5 14 16 40  0.0000000  0  9G21G18G17G 5G 6G30G29G26G10
  21989126.512    -4377813.63043  -3400204.29542  21989127.757    21989123.713
  23929389.201    -6448873.54343  -5009165.79342  23929390.702    23929389.188
  22000319.421    10047800.49143   7824805.51642  22000319.991    22000317.468
  24540260.980    13409034.37343  10437636.51442  24540261.438    24540261.273
  20340315.840     4634431.93544   3614390.12542  20340317.430    20340313.711
  21840564.297    11095167.01143   8628056.02342  21840566.234    21840562.897
  23630037.862     1651717.42443   1293951.77142  23630039.905    23630037.876
  23887285.392    -4699488.80243  -3648329.50042  23887287.494    23887286.643
  21773330.520     9930017.74243   7728711.67842  21773331.341    21773328.855
 04  5 14 16 40 30.0000000  0  9G21G18G17G 5G 6G30G29G26G10
  21977361.662    -4439638.25643  -3448379.29442  21977362.952    21977358.841
  23908735.866    -6557407.36643  -5093737.51242  23908737.341    23908735.757
  22012180.828    10110132.48643   7873375.87942  22012181.411    22012178.904
  24561161.627    13518866.78743  10523219.97542  24561162.107    24561161.956
  20337423.179     4619230.91944   3602545.17342  20337424.784    20337421.084
  21856952.276    11181286.40143   8695162.00142  21856954.233    21856950.914
  23617538.925     1586035.23643   1242770.92542  23617540.983    23617538.921
  23869635.799    -4792237.82843  -3720601.38042  23869637.914    23869637.084
  21786902.242    10001337.51143   7784285.50742  21786903.045    21786900.587
 04  5 14 16 41  0.0000000  0  9G21G18G17G 5G 6G30G29G26G10
  21965637.467    -4501249.26743  -3496387.85442  21965638.768    21965634.634
  23888107.787    -6665808.06843  -5178205.50242  23888109.345    23888107.746
  22024071.028    10172615.64543   7922064.02642  22024071.592    22024069.112
  24582059.652    13628685.57443  10608792.80642  24582060.096    24582059.966
  20334603.918     4604415.63044   3591000.78342  20334605.541    20334601.827
  21873406.091    11267751.68243   8762537.51142  21873408.059    21873404.737
  23605097.300     1520653.97643   1191824.54442  23605099.295    23605097.195
  23852018.113    -4884819.32143  -3792742.73042  23852020.177    23852019.333
  21800559.480    10073106.78543   7840209.59442  21800560.289    21800557.831
 04  5 14 16 41 30.0000000  0  9G21G18G17G 5G 6G30G29G26G10
  21953953.076    -4562650.91943  -3544233.26942  21953954.396    21953950.265
  23867504.548    -6774078.26243  -5262571.80542  23867506.174    23867504.463
  22035988.894    10235244.27943   7970865.52742  22035989.443    22035986.993
  24602953.633    13738483.47843  10694349.36442  24602954.144    24602954.062
  20331857.412     4589982.70044   3579754.33542  20331859.030    20331855.342
  21889924.365    11354555.36443   8830176.71242  21889926.286    21889922.947
  23592712.607     1455571.84443   1141111.23942  23592714.539    23592712.381
  23834432.130    -4977234.23543  -3864754.26842  23834434.248    23834433.202
  21814300.904    10145318.32943   7896478.31142  21814301.714    21814299.218
 04  5 14 16 42  0.0000000  0  9G21G18G17G 5G 6G30G29G26G10
  21942308.106    -4623845.51743  -3591917.34542  21942309.428    21942305.303
  23846926.229    -6882217.54043  -5346836.08742  23846927.870    23846926.085
  22047933.936    10298015.78143   8019778.36842  22047934.486    22047932.067
  24623842.830    13848255.89743  10779886.05142  24623843.287    24623843.303
  20329183.488     4575931.20144   3568805.11542  20329185.132    20329181.431
  21906506.081    11441692.64543   8898075.85442  21906508.025    21906504.641
  23580384.871     1390789.65543   1090631.66942  23580386.885    23580384.703
  23816878.089    -5069481.18643  -3936634.92642  23816880.230    23816879.159
  21828125.566    10217967.39643   7953087.96242  21828126.370    21828123.862
 04  5 14 16 42 30.0000000  0  9G21G18G17G 5G 6G30G29G26G10
  21930703.917    -4684826.00743  -3639434.58242  21930705.220    21930701.101
  23826374.505    -6990217.37743  -5430991.72342  23826376.195    23826374.220
  22059907.249    10360935.95143   8068807.05242  22059907.838    22059905.420
  24644727.957    13958007.04043  10865406.14642  24644728.435    24644728.509
  20326583.751     4562269.53344   3558159.65342  20326585.392    20326581.707
  21923151.981    11529167.43343   8966237.97342  21923153.935    21923150.597
  23568116.096     1326317.08943   1040393.35942  23568118.128    23568115.923
  23799357.951    -5161549.87643  -4008376.68742  23799360.065    23799358.988
  21842034.318    10291058.13743   8010041.77042  21842035.154    21842032.545
 04  5 14 16 43  0.0000000  0  9G21G18G17G 5G 6G30G29G26G10
  21919139.204    -4745598.87843  -3686790.03842  21919140.522    21919136.373
  23805848.546    -7098081.99643  -5515041.99442  23805850.209    23805848.141
  22071907.299    10423996.49143   8117945.11342  22071907.862    22071905.463
  24665607.285    14067727.66243  10950902.44542  24665607.839    24665607.820
  20324057.062     4548991.72944   3547813.31842  20324058.695    20324055.034
  21939860.235    11616969.93643   9034655.46642  21939862.206    21939858.906
  23555905.491     1262150.11743    990393.16942  23555907.519    23555905.230
  23781871.212    -5253443.34643  -4079981.91642  23781873.283    23781872.139
  21856025.217    10364580.77243   8067332.12242  21856026.091    21856023.439
 04  5 14 16 43 30.0000000  0  9G21G18G17G 5G 6G30G29G26G10
  21907614.518    -4806161.47243  -3733981.64042  21907615.840    21907611.663
  23785349.247    -7205806.21843  -5598982.85642  23785350.940    23785348.904
  22083934.566    10487200.01943   8167194.58842  22083935.111    22083932.689
  24686480.920    14177418.22343  11036375.30842  24686481.271    24686481.563
  20321604.267     4536102.16544   3537769.49842  20321605.895    20321602.230
  21956630.862    11705100.07543   9103328.25542  21956632.820    21956629.584
  23543754.120     1198294.42043    940635.52442  23543756.146    23543753.821
  23764418.955    -5345155.44043  -4151445.82042  23764421.003    23764419.804
  21870098.351    10438535.46243   8124959.13742  21870099.212    21870096.562
 04  5 14 16 44  0.0000000  0  9G21G18G17G 5G 6G30G29G26G10
  21896130.237    -4866511.60243  -3781007.69042  21896131.599    21896127.385
  23764877.463    -7313386.18543  -5682811.31642  23764879.114    23764877.111
  22095989.049    10550546.74943   8216555.65342  22095989.602    22095987.176
  24707348.724    14287078.04843  11121824.22042  24707349.155    24707349.347
  20319225.869     4523603.58244   3528030.33742  20319227.501    20319223.829
  21973463.631    11793556.70743   9172255.45142  21973465.602    21973462.382
  23531662.786     1134754.65343    891124.06642  23531664.834    23531662.572
  23747002.245    -5436680.85543  -4222764.25042  23747004.237    23747003.005
  21884253.526    10512921.41343   8182922.20242  21884254.375    21884251.745
 04  5 14 16 44 30.0000000  0  9G21G18G17G 5G 6G30G29G26G10
  21884686.246    -4926649.97443  -3827868.73442  21884687.604    21884683.415
  23744433.286    -7420820.70243  -5766526.41842  23744434.923    23744432.986
  22108070.622    10614035.71043   8266027.55042  22108071.196    22108068.737
  24728209.971    14396703.83043  11207246.60342  24728210.406    24728210.781
  20316922.006     4511496.56444   3518596.29042  20316923.609    20316919.943
  21990357.844    11882336.12243   9241434.17342  21990359.804    21990356.604
  23519632.036     1071532.89443    841860.39642  23519634.058    23519631.830
  23729621.511    -5528016.56543  -4293934.85542  23729623.518    23729622.319
  21898490.078    10587735.03443   8241218.51242  21898490.933    21898488.321
 04  5 14 16 45  0.0000000  0  9G21G18G17G 5G 6G30G29G26G10
  21873282.311    -4986578.10243  -3874565.94942  21873283.631    21873279.458
  23724016.932    -7528108.91343  -5850127.50742  23724018.547    23724016.658
  22120178.730    10677664.04143   8315608.04242  22120179.299    22120176.853
  24749064.035    14506291.78043  11292639.49142  24749064.406    24749064.978
  20314692.603     4499780.86444   3509467.16642  20314694.190    20314690.535
  22007312.683    11971434.12243   9310861.14142  22007314.654    22007311.418
  23507662.122     1008630.59243    792845.67042  23507664.047    23507661.872
  23712277.319    -5619160.49043  -4364956.02142  23712279.333    23712278.102
  21912807.276    10662972.22243   8299844.87242  21912808.098    21912805.508
 04  5 14 16 45 30.0000000  0  9G21G18G17G 5G 6G30G29G26G10
  21861918.636    -5046294.58143  -3921098.24542  21861919.973    21861915.744
  23703629.110    -7635247.09943  -5933611.69542  23703630.790    23703628.901
  22132313.445    10741432.28643   8365297.56342  22132314.006    22132311.559
  24769910.631    14615840.15943  11378001.56842  24769911.077    24769911.510
  20312538.134     4488458.94544   3500644.89042  20312539.717    20312536.048
  22024327.822    12060849.09943   9380535.10842  22024329.786    22024326.558
  23495753.666      946051.56143    744082.83842  23495755.577    23495753.430
  23694970.511    -5710107.82843  -4435823.99742  23694972.631    23694971.351
  21927204.738    10738631.42043   8358800.06642  21927205.593    21927203.023
 04  5 14 16 46  0.0000000  0  9G21G18G17G 5G 6G30G29G26G10
  21850595.236    -5105799.38643  -3967465.60242  21850596.566    21850592.326
  23683270.256    -7742233.34343  -6016977.49542  23683271.930    23683269.974
  22144474.620    10805339.56743   8415095.41742  22144475.184    22144472.762
  24790749.309    14725346.85343  11463331.15242  24790749.868    24790750.119
  20310458.809     4477531.95644   3492130.35042  20310460.402    20310456.710
  22041402.689    12150577.87943   9450453.59342  22041404.641    22041401.410
  23483907.332      883798.90143    695574.31242  23483909.263    23483907.027
  23677701.814    -5800855.13243  -4506536.11242  23677703.947    23677702.558
  21941681.996    10814709.78943   8418081.89142  21941682.806    21941680.311
 04  5 14 16 46 30.0000000  0  9G21G18G17G 5G 6G30G29G26G10
  21839311.976    -5165093.11043  -4013668.48042  21839313.316    21839309.092
  23662940.607    -7849066.27843  -6100223.82742  23662942.241    23662940.187
  22156661.911    10869384.05743   8465000.18842  22156662.479    22156660.055
  24811579.403    14834808.60143  11548625.71442  24811579.853    24811580.247
  20308454.686     4467000.22644   3483923.80342  20308456.297    20308452.585
  22058536.551    12240616.72943   9520613.69842  22058538.512    22058535.252
  23472123.455      821874.30843    647321.42242  23472125.401    23472123.195
  23660471.707    -5891399.58043  -4577090.15842  23660473.861    23660472.421
  21956238.286    10891203.61243   8477687.44042  21956239.113    21956236.621
 04  5 14 16 47  0.0000000  0  9G21G18G17G 5G 6G30G29G26G10
  21828068.875    -5224175.98843  -4059707.06442  21828070.179    21828065.942
  23642640.439    -7955744.17343  -6183349.35142  23642642.066    23642639.910
  22168875.081    10933564.61943   8515010.99342  22168875.631    22168873.248
  24832400.525    14944222.94043  11633883.31642  24832400.836    24832401.348
  20306525.953     4456864.50444   3476025.83542  20306527.549    20306523.825
  22075728.796    12330962.52743   9591012.97342  22075730.770    22075727.536
  23460402.502      760280.56243    599326.33442  23460404.508    23460402.258
  23643280.843    -5981737.85943  -4647483.55942  23643282.967    23643281.545
  21970873.040    10968109.65643   8537614.20342  21970873.878    21970871.386
 04  5 14 16 47 30.0000000  0  8G21G18G17G 6G30G29G26G10
  21816868.563    -5283033.97343  -4105570.40442  21816869.860    21816865.631
  23622372.822    -8062251.04143  -6266341.61242  23622374.395    23622372.225
  22181116.628    10997894.21243   8565137.92142  22181117.174    22181114.774
  20304675.428     4447139.81444   3468448.14542  20304677.028    20304673.307
  22092981.524    12421626.03243   9661659.81842  22092983.493    22092980.293
  23448747.703      699033.93643    551601.72042  23448749.650    23448747.305
  23626132.433    -6071852.88343  -4717702.99842  23626134.552    23626133.148
  21985588.473    11045439.50743   8597871.19642  21985589.311    21985586.796
 04  5 14 16 48  0.0000000  0  8G21G18G17G 6G30G29G26G10
  21805706.038    -5341693.47143  -4151279.08042  21805707.308    21805703.056
  23602133.056    -8168611.36043  -6349219.67042  23602134.661    23602132.449
  22193381.260    11062345.16443   8615359.42442  22193381.805    22193379.402
  20302898.266     4437800.74844   3461170.94642  20302899.863    20302896.149
  22110289.098    12512577.70543   9732531.21042  22110291.060    22110287.893
  23437154.337      638110.64043    504129.07842  23437156.253    23437153.956
  23609022.155    -6161767.41343  -4787766.19542  23609024.318    23609022.968
  22000378.919    11123163.65443   8658435.44842  22000379.775    22000377.250
 04  5 14 16 48 30.0000000  0  8G21G18G17G 6G30G29G26G10
  21794584.108    -5400139.52043  -4196821.43142  21794585.361    21794581.112
  23581924.462    -8274807.65243  -6431969.91542  23581926.118    23581923.794
  22205671.769    11126932.14543   8665686.91642  22205672.303    22205669.913
  20301197.598     4428863.73444   3454207.04042  20301199.228    20301195.494
  22127653.854    12603829.81143   9803636.71142  22127655.800    22127652.651
  23425626.029      577528.86443    456922.53242  23425627.945    23425625.601
  23591953.635    -6251462.76643  -4857658.61542  23591955.814    23591954.458
  22015246.724    11201294.34543   8719316.48042  22015247.568    22015245.057
 04  5 14 16 49  0.0000000  0  8G21G18G17G 6G30G29G26G10
  21783502.726    -5458372.39543  -4242197.67142  21783503.970    21783499.732
  23561747.517    -8380837.91043  -6514590.79042  23561749.158    23561746.814
  22217987.881    11191653.75343   8716119.31742  22217988.422    22217986.037
  20299573.616     4420329.58744   3447557.05842  20299575.260    20299571.517
  22145075.171    12695379.12743   9874973.79142  22145077.136    22145073.933
  23414163.146      517290.87843    409983.89542  23414165.052    23414162.713
  23574927.463    -6340935.71843  -4927377.74642  23574929.620    23574928.256
  22030191.336    11279828.70443   8780512.05842  22030192.182    22030189.672
 04  5 14 16 49 30.0000000  0  8G21G18G17G 6G30G29G26G10
  21772460.989    -5516396.99243  -4287411.61842  21772462.256    21772457.979
  23541601.548    -8486705.38743  -6597084.82442  23541603.213    23541600.802
  22230328.527    11256504.07743   8766652.00942  22230329.013    22230326.699
  20298025.494     4412194.06544   3441217.69242  20298027.131    20298023.384
  22162551.457    12787217.31043   9946535.97342  22162553.418    22162550.227
  23402765.168      457394.25543    363311.23842  23402767.028    23402764.776
  23557943.315    -6430187.84643  -4996924.78942  23557945.478    23557944.138
  22045211.137    11358758.25143   8842015.57542  22045211.998    22045209.486
 04  5 14 16 50  0.0000000  0  8G21G18G17G 6G30G29G26G10
  21761460.660    -5574203.84843  -4332455.89942  21761461.946    21761457.664
  23521488.783    -8592398.37543  -6679442.90042  23521490.423    23521487.999
  22242695.217    11321491.49343   8817291.52342  22242695.720    22242693.429
  20296555.244     4404467.86144   3435197.27142  20296556.885    20296553.155
  22180083.966    12879350.85143  10018328.30442  22180085.902    22180082.705
  23391434.403      397850.98943    316913.92642  23391436.290    23391434.060
  23541003.770    -6519206.03043  -5066289.55142  23541005.860    23541004.487
  22060307.448    11438089.77643   8903832.31242  22060308.327    22060305.783
 04  5 14 16 50 30.0000000  0  8G21G18G17G 6G30G29G26G10
  21750500.584    -5631799.27743  -4377335.43242  21750501.892    21750497.614
  23501408.324    -8697921.55043  -6761668.64942  23501409.873    23501407.538
  22255086.661    11386608.81343   8868032.27042  22255087.128    22255084.855
  20295161.838     4397145.48444   3429491.52542  20295163.497    20295159.752
  22197670.844    12971770.35943  10090343.46042  22197672.779    22197669.605
  23380170.209      338657.59843    270789.25242  23380172.091    23380169.958
  23524108.021    -6607993.43043  -5135474.47442  23524110.153    23524108.745
  22075478.511    11517814.13543   8965955.16442  22075479.388    22075476.854
 04  5 14 16 51  0.0000000  0  8G21G18G17G 6G30G29G26G10
  21739581.082    -5689181.67843  -4422048.96842  21739582.360    21739578.087
  23481360.873    -8803271.04143  -6843759.06142  23481362.461    23481360.075
  22267502.951    11451856.81243   8918874.83842  22267503.431    22267501.157
  20293845.825     4390229.78144   3424102.66842  20293847.484    20293843.733
  22215311.844    13064474.45143  10162580.36442  22215313.789    22215310.668
  23368973.409      279818.19043    224940.41042  23368975.299    23368973.130
  23507257.218    -6696544.78443  -5204475.46242  23507259.311    23507257.849
  22090724.105    11597930.23443   9028383.26742  22090724.981    22090722.465
 04  5 14 16 51 30.0000000  0  8G21G18G17G 6G30G29G26G10
  21728701.521    -5746354.03843  -4466598.83242  21728702.774    21728698.530
  23461346.342    -8908447.50943  -6925714.64742  23461347.956    23461345.587
  22279943.394    11517231.55143   8969816.16342  22279943.868    22279941.584
  20292606.787     4383718.66044   3419029.06742  20292608.464    20292604.722
  22233005.880    13157457.19143  10235034.39342  22233007.801    22233004.744
  23357843.902      221332.49143    179367.18942  23357845.797    23357843.629
  23490451.437    -6784859.36343  -5273291.94642  23490453.532    23490452.062
  22106043.100    11678432.09743   9091111.96142  22106043.956    22106041.456
 04  5 14 16 52  0.0000000  0  8G21G18G17G 6G30G29G26G10
  21717863.385    -5803308.83743  -4510979.17742  21717864.602    21717860.377
  23441366.626    -9013441.27043  -7007527.87042  23441368.292    23441365.867
  22292409.300    11582740.04843   9020861.71942  22292409.779    22292407.453
  20291446.462     4377621.13344   3414277.74642  20291448.129    20291444.421
  22250753.868    13250723.17443  10307709.13642  22250755.776    22250752.693
  23346783.632      163210.77843    134077.59142  23346785.479    23346783.376
  23473692.880    -6872925.99943  -5341915.22442  23473694.970    23473693.468
  22121436.340    11759324.33743   9154144.84642  22121437.226    22121434.753
 04  5 14 16 52 30.0000000  0  8G21G18G17G 6G30G29G26G10
  21707064.893    -5860055.11443  -4555197.03742  21707066.134    21707061.908
  23421420.311    -9118259.69543  -7089204.47442  23421421.986    23421419.479
  22304898.611    11648371.68043   9072003.22442  22304899.115    22304896.760
  20290363.203     4371928.55344   3409841.97242  20290364.859    20290361.182
  22268553.337    13344259.86743  10380594.82042  22268555.303    22268552.161
  23335791.347      105446.24143     89066.32042  23335793.173    23335791.117
  23456980.293    -6960750.72443  -5410349.99042  23456982.473    23456980.972
  22136901.632    11840594.85943   9217472.49342  22136902.471    22136900.040
 04  5 14 16 53  0.0000000  0  9G21G18G17G 6G30G29G26G10G16
  21696306.204    -5916592.55343  -4599252.16742  21696307.415    21696303.157
  23401507.735    -9222900.82743  -7170742.92442  23401509.355    23401506.871
  22317411.245    11714125.91743   9123240.26542  22317411.791    22317409.368
  20289357.209     4366642.07044   3405722.64342  20289358.877    20289355.199
  22286403.800    13438064.51543  10453689.31342  22286405.759    22286402.576
  23324867.631       48041.88143     44335.69242  23324869.440    23324867.377
  23440314.482    -7048330.00343  -5478593.49742  23440316.601    23440315.148
  22152438.351    11922240.81543   9281092.68942  22152439.181    22152436.786
  24765813.619    -5108561.71853  -3939824.82552  24765815.256    24765812.983
 04  5 14 16 53 30.0000000  0  9G21G18G17G 6G30G29G26G10G16
  21685587.952    -5972917.30243  -4643141.56042  21685589.181    21685584.900
  23381630.031    -9327358.50643  -7252138.43542  23381631.637    23381629.119
  22329947.800    11780006.06343   9174575.42042  22329948.398    22329946.000
  20288429.457     4361766.78844   3401923.71742  20288431.129    20288427.466
  22304305.428    13532137.94443  10526993.24142  22304307.388    22304304.175
  23314013.664       -8995.86343      -109.25642  23314015.465    23314013.411
  23423696.876    -7135655.95343  -5546639.60142  23423698.984    23423697.507
  22168046.813    12004263.56443   9345006.48842  22168047.638    22168045.217
  24749755.235    -5192948.82443  -4005580.97842  24749756.871    24749754.543
 04  5 14 16 54  0.0000000  0  9G21G18G17G 6G30G29G26G10G16
  21674911.827    -6029020.86343  -4686858.59642  21674913.050    21674908.743
  23361789.188    -9431622.37143  -7333382.93042  23361790.830    23361788.254
  22342509.672    11846019.16343   9226014.16142  22342510.282    22342507.940
  20287581.780     4357312.07144   3398452.50442  20287583.417    20287579.758
  22322259.233    13626485.59343  10600510.84442  22322261.183    22322257.971
  23303231.554      -65656.08943    -44260.02642  23303233.359    23303231.294
  23407129.663    -7222717.02843  -5614479.32342  23407131.844    23407130.246
  22183728.021    12086668.51843   9409218.10942  22183728.842    22183726.398
  24733760.835    -5276999.87743  -4071075.24842  24733762.427    24733760.026
 04  5 14 16 54 30.0000000  0  9G21G18G17G 6G30G29G26G10G16
  21664275.925    -6084912.90243  -4730410.81542  21664277.174    21664272.834
  23341983.888    -9535699.53643  -7414481.95142  23341985.577    23341982.836
  22355094.978    11912155.27843   9277548.77142  22355095.582    22355093.296
  20286812.481     4353269.45244   3395302.40642  20286814.133    20286810.458
  22340262.775    13721094.79243  10674232.24842  22340264.698    22340261.545
  23292520.006     -121945.70243    -88122.01642  23292521.806    23292519.676
  23390611.766    -7309518.97043  -5682117.09542  23390613.924    23390612.300
  22199479.619    12169443.33043   9473717.93342  22199480.425    22199477.953
  24717829.035    -5360722.30643  -4136313.46842  24717830.471    24717828.183
 04  5 14 16 55  0.0000000  0  9G21G18G17G 6G30G29G26G10G16
  21653681.487    -6140587.00743  -4773793.21142  21653682.762    21653678.418
  23322215.785    -9639581.27243  -7495428.68142  23322217.488    23322214.674
  22367704.716    11978419.76743   9329183.40642  22367705.326    22367703.039
  20286122.999     4349646.17744   3392479.06942  20286124.617    20286120.975
  22358316.703    13815968.80743  10748160.00542  22358318.622    22358315.482
  23281880.595     -177855.88443   -131688.33642  23281882.442    23281880.285
  23374144.998    -7396052.00843  -5749545.33742  23374147.176    23374145.510
  22215302.212    12252591.36243   9538508.57742  22215303.041    22215300.530
  24701961.436    -5444107.22643  -4201288.69342  24701962.868    24701960.515
 04  5 14 16 55 30.0000000  0  9G21G18G17G 6G30G29G26G10G16
  21643127.323    -6196049.50343  -4817010.71842  21643128.605    21643124.255
  23302484.063    -9743271.87243  -7576226.48442  23302485.676    23302482.941
  22380337.549    12044805.55443   9380912.56142  22380338.122    22380335.857
  20285512.314     4346437.01344   3389978.42242  20285513.937    20285510.288
  22376419.297    13911098.41643  10822286.92842  22376421.208    22376418.130
  23271312.743     -233390.02243   -174961.63942  23271314.617    23271312.397
  23357728.820    -7482318.93743  -5816766.23142  23357731.020    23357729.383
  22231194.054    12336103.50643   9603582.94242  22231194.924    22231192.389
  24686157.327    -5527158.37443  -4266003.82942  24686158.745    24686156.444
 04  5 14 16 56  0.0000000  0  9G21G18G17G 6G30G29G26G10G16
  21632613.943    -6251297.70243  -4860061.24242  21632615.239    21632610.850
  23282789.553    -9846766.91043  -7656871.89042  23282791.142    23282788.382
  22392993.804    12111314.39843   9432737.59842  22392994.365    22392992.072
  20284981.151     4343645.61644   3387803.30542  20284982.772    20284979.109
  22394570.447    14006483.30743  10896612.78042  22394572.385    22394569.351
  23260817.436     -288543.23043   -217938.11442  23260819.310    23260817.050
  23341364.458    -7568313.58843  -5883774.96042  23341366.641    23341365.046
  22247155.125    12419979.25143   9668940.63642  22247155.991    22247153.431
  24670417.660    -5609870.71643  -4330454.95742  24670419.066    24670416.615
 04  5 14 16 56 30.0000000  0  9G21G18G17G 6G30G29G26G10G16
  21622141.381    -6306331.38043  -4902944.60942  21622142.665    21622138.271
  23263132.593    -9950064.34643  -7737363.31342  23263134.208    23263131.479
  22405673.339    12177945.58743   9484657.97442  22405673.862    22405671.584
  20284529.588     4341272.67044   3385954.25142  20284531.217    20284527.550
  22412769.554    14102120.07443  10971134.88742  22412771.495    22412768.503
  23250395.118     -343312.85043   -260615.69442  23250396.982    23250394.663
  23325052.617    -7654032.55143  -5950568.87442  23325054.870    23325053.233
  22263184.853    12504215.78743   9734579.46342  22263185.693    22263183.115
  24654742.848    -5692242.06943  -4394640.40442  24654744.306    24654741.694
 04  5 14 16 57  0.0000000  0  9G21G18G17G 6G30G29G26G10G16
  21611709.679    -6361150.08243  -4945660.45542  21611710.974    21611706.596
  23243513.746   -10053161.97743  -7817699.06242  23243515.370    23243512.587
  22418375.983    12244698.38143   9536673.10542  22418376.499    22418374.232
  20284157.966     4339319.68944   3384432.44242  20284159.606    20284155.919
  22431016.124    14198006.17843  11045851.28642  22431018.033    22431015.102
  23240046.311     -397695.97743   -302992.10342  23240048.214    23240045.809
  23308794.045    -7739471.77543  -6017144.80742  23308796.278    23308794.629
  22279282.791    12588810.85643   9800497.66542  22279283.630    22279281.046
  24639133.482    -5774269.68243  -4458557.98742  24639134.957    24639132.488
 04  5 14 16 57 30.0000000  0  9G21G18G17G 6G30G29G26G10G16
  21601318.395    -6415756.58143  -4988210.95142  21601319.681    21601315.303
  23223932.878   -10156060.06043  -7897879.31642  23223934.514    23223931.655
  22431101.205    12311569.77343   9588780.65842  22431101.722    22431099.453
  20283865.979     4337785.22244   3383236.74242  20283867.613    20283863.901
  22449309.100    14294136.21743  11120757.75942  22449311.051    22449308.084
  23229771.095     -451692.59843   -345067.34942  23229772.990    23229770.507
  23292588.869    -7824630.21943  -6083501.95042  23292591.156    23292589.393
  22295447.893    12673758.83143   9866690.86642  22295448.733    22295446.129
  24623589.472    -5855953.52343  -4522207.67642  24623591.073    24623588.533
 04  5 14 16 58  0.0000000  0  9G21G18G17G 6G30G29G26G10G16
  21590968.421    -6470145.94443  -5030592.25642  21590969.715    21590965.287
  23204391.135   -10258752.28543  -7977899.15442  23204392.775    23204389.897
  22443849.692    12378563.29643   9640983.36942  22443850.190    22443847.920
  20283654.617     4336674.38244   3382371.14642  20283656.272    20283652.497
  22467648.729    14390511.35643  11195855.22442  22467650.695    22467647.725
  23219570.679     -505295.92543   -386836.13342  23219572.585    23219570.082
  23276438.629    -7909500.22143  -6149634.34642  23276440.833    23276439.062
  22311680.374    12759061.01243   9933160.06142  22311681.224    22311678.632
  24608112.185    -5937287.25743  -4585584.57342  24608113.698    24608111.155
 04  5 14 16 58 30.0000000  0  9G21G18G17G 6G30G29G26G10G16
  21580659.350    -6524320.46343  -5072806.14942  21580660.621    21580656.190
  23184888.603   -10361238.30443  -8057758.31842  23184890.248    23184887.395
  22456620.849    12445676.18443   9693279.09142  22456621.390    22456619.123
  20283523.668     4335986.20944   3381834.90042  20283525.322    20283521.543
  22486034.025    14487126.55743  11271139.74042  22486036.032    22486033.031
  23209445.269     -558505.36943   -428298.00442  23209447.188    23209444.613
  23260343.576    -7994080.10443  -6215540.66642  23260345.751    23260343.985
  22327979.388    12844712.66643   9999901.57842  22327980.241    22327977.658
  24592701.609    -6018270.28743  -4648688.18242  24592703.127    24592700.650
 04  5 14 16 59  0.0000000  0  9G21G18G17G 6G30G29G26G10G16
  21570391.135    -6578280.14343  -5114852.63342  21570392.419    21570387.972
  23165425.635   -10463516.46643  -8137455.50942  23165427.266    23165424.389
  22469414.559    12512907.44443   9745667.05442  22469415.069    22469412.840
  20283473.284     4335721.43844   3381628.58342  20283474.954    20283471.179
  22504464.435    14583978.64543  11346608.84242  22504466.450    22504463.393
  23199395.174     -611318.55843   -469451.08442  23199397.109    23199394.573
  23244304.381    -8078366.40243  -6281218.22142  23244306.489    23244304.715
  22344344.354    12930710.93643  10066913.18842  22344345.205    22344342.645
  24577358.203    -6098900.25743  -4711516.68742  24577359.691    24577357.258
 04  5 14 16 59 30.0000000  0  9G21G18G17G 6G30G29G26G10G16
  21560163.712    -6632025.44243  -5156732.06742  21560165.013    21560160.545
  23146002.612   -10565584.97843  -8216989.34842  23146004.235    23146001.322
  22482230.550    12580255.96543   9798146.38842  22482231.098    22482228.886
  20283503.603     4335880.77144   3381752.73342  20283505.275    20283501.513
  22522939.253    14681064.19843  11422259.87742  22522941.276    22522938.220
  23189420.874     -663733.48643   -510293.82942  23189422.803    23189420.315
  23228321.586    -8162356.10043  -6346664.66142  23228323.717    23228321.921
  22360774.631    13017052.44343  10134192.25342  22360775.469    22360772.927
  24562082.283    -6179175.33043  -4774068.62242  24562083.753    24562081.382
 04  5 14 17  0  0.0000000  0  9G21G18G17G 6G30G29G26G10G16
  21549977.117    -6685556.21643  -5198444.33942  21549978.405    21549973.945
  23126619.947   -10667441.43443  -8296357.94442  23126621.573    23126618.569
  22495068.750    12647720.96543   9850716.49142  22495069.265    22495067.089
  20283614.784     4336464.95344   3382207.93042  20283616.450    20283612.692
  22541457.921    14778380.14643  11498090.43742  22541459.934    22541456.876
  23179522.817     -715747.57843   -550824.24642  23179524.767    23179522.355
  23212395.916    -8246045.61943  -6411877.20342  23212398.042    23212396.238
  22377269.689    13103734.46143  10201736.64342  22377270.538    22377268.009
  24546874.369    -6259093.19243  -4836342.23542  24546875.883    24546873.368
 04  5 14 17  0 30.0000000  0  9G21G18G17G 6G30G29G26G10G16
  21539831.103    -6738873.76343  -5239990.46142  21539832.390    21539827.935
  23107277.689   -10769085.14843  -8375560.76742  23107279.367    23107276.329
  22507928.862    12715300.94043   9903376.17542  22507929.321    22507927.186
  20283806.795     4337473.96644   3382994.16942  20283808.444    20283804.721
  22560019.648    14875922.49843  11574097.40542  22560021.688    22560018.639
  23169701.409     -767359.21143   -591041.05742  23169703.327    23169700.951
  23196527.890    -8329432.29443  -6476853.75442  23196530.039    23196528.168
  22393828.747    13190752.93443  10269543.21242  22393829.598    22393827.121
  24531734.733    -6338652.31343  -4898336.30342  24531736.221    24531733.754
 04  5 14 17  1  0.0000000  0  9G21G18G17G 6G30G29G26G10G16
  21529727.189    -6791970.03343  -5281364.15242  21529728.474    21529724.037
  23087977.765   -10870506.68643  -8454590.46542  23087979.373    23087976.385
  22520812.028    12783002.29243   9956130.43842  22520812.525    22520810.350
  20284081.236     4338916.13144   3384117.92942  20284082.903    20284079.155
  22578625.344    14973695.75443  11650284.30242  22578627.376    22578624.370
  23159958.425     -818558.86343   -630936.84642  23159960.323    23159957.974
  23180719.511    -8412505.48243  -6541586.04042  23180721.694    23180719.795
  22410452.704    13278112.47643  10337615.55042  22410453.574    22410451.115
  24516665.129    -6417843.01543  -4960043.28142  24516666.621    24516664.313
 04  5 14 17  1 30.0000000  0  9G21G18G17G 6G30G29G26G10G16
  21519663.087    -6844857.31843  -5322575.00342  21519664.323    21519659.911
  23068718.062   -10971716.63543  -8533455.29842  23068719.678    23068716.729
  22533715.792    12850811.93443  10008969.09542  22533716.306    22533714.102
  20284435.900     4340779.85344   3385570.17742  20284437.559    20284433.810
  22597272.026    15071684.30843  11726638.96042  22597274.014    22597271.023
  23150291.984     -869356.23643   -670519.17242  23150293.905    23150291.448
  23164969.184    -8495273.80443  -6606080.76542  23164971.354    23164969.360
  22427138.710    13365797.98443  10405941.88242  22427139.562    22427137.176
  24501663.805    -6496675.40243  -5021471.06542  24501665.401    24501662.988
 04  5 14 17  2  0.0000000  0  9G21G18G17G 6G30G29G26G10G16
  21509640.637    -6897525.50343  -5363615.12642  21509641.902    21509637.460
  23049501.149   -11072702.10043  -8612145.20442  23049502.761    23049499.834
  22546642.053    12918739.74943  10061899.83942  22546642.524    22546640.361
  20284872.979     4343076.67144   3387359.90442  20284874.627    20284870.877
  22615961.073    15169895.76743  11803167.31342  22615963.072    22615960.095
  23140704.551     -919738.52743   -709778.05142  23140706.482    23140703.937
  23149279.564    -8577723.40043  -6670327.13742  23149281.737    23149279.646
  22443888.164    13453817.04043  10474528.12542  22443889.030    22443886.694
  24486732.991    -6575136.72943  -5082609.68342  24486734.581    24486732.302
 04  5 14 17  2 30.0000000  0  9G21G18G17G 6G30G29G26G10G16
  21499659.289    -6949977.80043  -5404487.02942  21499660.547    21499656.103
  23030326.644   -11173464.57543  -8690661.35942  23030328.265    23030325.321
  22559589.958    12986781.48243  10114919.34742  22559590.435    22559588.299
  20285391.961     4345803.83444   3389484.96242  20285393.600    20285389.836
  22634691.275    15268323.40243  11879864.10742  22634693.240    22634690.298
  23131195.933     -969706.63443   -748714.19342  23131197.832    23131195.256
  23133650.556    -8659854.20643  -6734325.09642  23133652.749    23133650.638
  22460699.920    13542163.22443  10543369.27642  22460700.787    22460698.463
  24471872.687    -6653228.12043  -5143460.05942  24471874.299    24471871.900
 04  5 14 17  3  0.0000000  0  9G21G18G17G 6G30G29G26G10G16
  21489718.822    -7002215.15843  -5445191.44242  21489720.091    21489715.683
  23011194.787   -11274002.84743  -8769002.80242  23011196.446    23011193.501
  22572559.226    13054935.38943  10168026.26142  22572559.707    22572557.580
  20285992.852     4348961.48344   3391945.45742  20285994.514    20285990.713
  22653461.896    15366963.43143  11956726.40942  22653463.870    22653460.910
  23121766.321    -1019259.09643   -787326.44642  23121768.273    23121765.743
  23118082.721    -8741663.50843  -6798072.54042  23118084.870    23118082.840
  22477573.235    13630832.91843  10612462.50742  22477574.120    22477571.777
  24457083.085    -6730947.90043  -5204020.87242  24457084.656    24457082.278
 04  5 14 17  3 30.0000000  0  9G21G18G17G 6G30G29G26G10G16
  21479819.038    -7054238.87143  -5485729.38442  21479820.286    21479815.921
  22992105.735   -11374316.29443  -8847169.06742  22992107.402    22992104.440
  22585549.457    13123199.46243  10221219.01342  22585549.912    22585547.814
  20286675.507     4352548.71844   3394740.69442  20286677.147    20286673.367
  22672272.027    15465811.00843  12033750.44542  22672273.964    22672271.002
  23112415.955    -1068395.33143   -825614.37842  23112417.929    23112415.455
  23102576.391    -8823149.54343  -6861568.08942  23102578.564    23102576.483
  22494507.234    13719821.36043  10681804.12242  22494508.112    22494505.744
  24442364.277    -6808295.66643  -5264291.81542  24442365.802    24442363.423
 04  5 14 17  4  0.0000000  0  9G21G18G17G 6G30G29G26G10G16
  21469961.335    -7106041.31243  -5526094.90542  21469962.586    21469958.232
  22973061.243   -11474395.56143  -8925152.85742  22973062.845    22973059.906
  22598561.904    13191580.37943  10274502.82242  22598562.370    22598560.292
  20287441.477     4356573.91944   3397877.20842  20287443.116    20287439.338
  22691122.584    15564870.99843  12110939.97842  22691124.498    22691121.545
  23103146.714    -1117105.25443   -863570.11242  23103148.712    23103146.176
  23087133.787    -8904301.09543  -6924803.00142  23087135.858    23087133.735
  22511502.774    13809133.39243  10751397.89142  22511503.649    22511501.290
  24427718.107    -6885261.57343  -5324265.19242  24427719.611    24427717.265
 04  5 14 17  4 30.0000000  0  9G21G18G17G 6G30G29G26G10G16
  21460143.738    -7157633.11043  -5566296.28842  21460144.969    21460140.605
  22954059.699   -11574249.13243  -9002960.78942  22954061.290    22954058.259
  22611594.437    13260066.80343  10327868.84142  22611594.957    22611592.891
  20288288.967     4361027.44944   3401347.48742  20288290.584    20288286.814
  22710010.876    15664129.38443  12188284.10842  22710012.769    22710009.842
  23093957.098    -1165397.04243   -901200.02242  23093959.058    23093956.477
  23071753.335    -8985125.42043  -6987782.93142  23071755.427    23071753.326
  22528557.321    13898755.66343  10821233.39242  22528558.210    22528555.864
  24413143.049    -6961853.63743  -5383947.27042  24413144.529    24413142.297
 04  5 14 17  5  0.0000000  0  9G21G18G17G 6G30G29G26G10G16
  21450367.992    -7209004.85343  -5606326.20542  21450369.242    21450364.861
  22935103.343   -11673865.38643  -9080583.79742  22935104.909    22935101.873
  22624648.773    13328667.79243  10381324.12342  22624649.336    22624647.237
  20289219.872     4365919.45244   3405159.42942  20289221.496    20289217.750
  22728938.166    15763592.86943  12265788.05642  22728940.074    22728937.144
  23084849.280    -1213258.87243   -938494.91842  23084851.245    23084848.594
  23056437.662    -9065609.35243  -7050497.62642  23056439.726    23056437.642
  22545672.132    13988694.66243  10891315.69342  22545673.064    22545670.701
  24398641.323    -7038060.19943  -5443328.94642  24398642.969    24398640.614
 04  5 14 17  5 30.0000000  0  9G21G18G17G 6G30G29G26G10G16
  21440633.317    -7260160.84643  -5646187.99642  21440634.551    21440630.175
  22916191.600   -11773247.22743  -9158024.14142  22916193.158    22916190.126
  22637723.915    13397378.05843  10434864.56742  22637724.512    22637722.413
  20290233.589     4371246.54244   3409310.40442  20290235.209    20290231.480
  22747903.121    15863253.97743  12343445.99642  22747905.018    22747902.069
  23075822.878    -1260692.71743   -975456.31342  23075824.841    23075822.123
  23041186.591    -9145753.78743  -7112947.77142  23041188.670    23041186.619
  22562845.857    14078943.13443  10961639.15242  22562846.786    22562844.446
  24384212.588    -7113883.51043  -5502412.00342  24384214.273    24384211.795
 04  5 14 17  6  0.0000000  0  9G21G18G17G 6G30G29G26G10G16
  21430938.881    -7311105.47743  -5685885.08942  21430940.114    21430935.727
  22897324.074   -11872396.64543  -9235283.37242  22897325.645    22897322.629
  22650818.883    13466192.45543  10488486.14742  22650819.487    22650817.400
  20291329.382     4377004.94144   3413797.46142  20291331.017    20291327.291
  22766904.271    15963105.19643  12421252.08042  22766906.116    22766903.217
  23066877.467    -1307700.94943  -1012086.05542  23066879.422    23066876.694
  23025999.962    -9225560.03143  -7175134.40042  23026002.040    23025999.964
  22580077.043    14169493.63943  11032197.95642  22580077.977    22580075.659
  24369856.346    -7189325.59143  -5561197.97442  24369858.067    24369855.586
 04  5 14 17  6 30.0000000  0  9G21G18G17G 6G30G29G26G10G16
  21421286.707    -7361827.94443  -5725409.07042  21421287.952    21421283.543
  22878503.171   -11971301.04043  -9312351.68542  22878504.742    22878501.687
  22663935.598    13535120.92543  10542196.60842  22663936.166    22663934.067
  20292509.424     4383206.06144   3418629.50342  20292511.057    20292507.326
  22785942.993    16063153.99943  12499212.11442  22785944.852    22785941.959
  23058015.572    -1354270.53043  -1048374.00942  23058017.493    23058014.767
  23010880.464    -9305013.56943  -7237046.18342  23010882.518    23010880.403
  22597367.249    14260354.09043  11102998.27742  22597368.130    22597365.889
  24355575.240    -7264373.46343  -5619676.78842  24355576.959    24355574.339
 04  5 14 17  7  0.0000000  0  9G21G18G17G 6G30G29G26G10G16
  21411675.563    -7412334.62243  -5764764.90442  21411676.817    21411672.433
  22859727.895   -12069965.50243  -9389233.02642  22859729.463    22859726.419
  22677072.636    13604156.34343  10595990.41442  22677073.192    22677071.124
  20293772.533     4389843.88544   3423801.83242  20293774.174    20293770.445
  22805017.469    16163390.82943  12577318.66142  22805019.341    22805016.481
  23049236.235    -1400405.75843  -1084323.48442  23049238.176    23049235.526
  22995827.403    -9384117.85543  -7298685.84042  22995829.486    22995827.277
  22614714.637    14351515.13143  11174032.82042  22614715.514    22614713.293
  24341368.297    -7339031.75243  -5677852.01242  24341369.948    24341367.129
 04  5 14 17  7 30.0000000  0  9G21G18G17G 6G30G29G26G10G16
  21402105.527    -7462625.42343  -5803952.52042  21402106.797    21402102.398
  22840998.785   -12168387.42643  -9465925.38242  22841000.397    22840997.310
  22690229.856    13673297.85143  10649866.87542  22690230.425    22690228.336
  20295118.969     4396919.40944   3429315.22542  20295120.596    20295116.878
  22824127.206    16263812.76043  12655569.45142  22824129.059    22824126.208
  23040540.040    -1446104.44143  -1119932.81642  23040542.007    23040539.360
  22980841.454    -9462869.25643  -7360050.51042  22980843.550    22980841.390
  22632118.644    14442973.80743  11245299.29542  22632119.559    22632117.323
  24327235.879    -7413298.26043  -5735721.98442  24327237.421    24327234.571
 04  5 14 17  8  0.0000000  0  9G21G18G17G 6G30G29G26G10G16
  21392576.894    -7512698.77343  -5842970.69842  21392578.195    21392573.714
  22822316.520   -12266563.32343  -9542426.03442  22822318.152    22822314.946
  22703407.496    13742546.78343  10703827.05542  22703408.081    22703406.054
  20296549.131     4404434.87644   3435171.42942  20296550.760    20296547.026
  22843271.834    16364418.19943  12733963.24242  22843273.681    22843270.835
  23031927.668    -1491362.70543  -1155198.94542  23031929.585    23031926.966
  22965923.645    -9541262.74043  -7421136.28642  22965925.707    22965923.593
  22649579.101    14534728.81343  11316796.67042  22649579.992    22649577.741
  24313178.722    -7487168.88843  -5793283.45842  24313180.346    24313177.437
 04  5 14 17  8 30.0000000  0  9G21G18G17G 6G30G29G26G10G16
  21383089.279    -7562556.62843  -5881820.95742  21383090.578    21383086.077
  22803680.986   -12364493.45143  -9618735.17042  22803682.643    22803679.412
  22716605.086    13811900.22543  10757868.65342  22716605.599    22716603.605
  20298062.802     4412389.30744   3441369.68042  20298064.444    20298060.702
  22862450.403    16465202.38343  12812496.31442  22862452.284    22862449.481
  23023399.171    -1536179.94143  -1190121.43342  23023401.133    23023398.521
  22951074.291    -9619296.59143  -7481941.83742  22951076.357    22951074.149
  22667095.028    14626775.35843  11388521.22142  22667095.899    22667093.622
  24299196.946    -7560643.31943  -5850536.21642  24299198.535    24299195.679
 04  5 14 17  9  0.0000000  0  9G21G18G17G 6G30G29G26G10G16
  21373643.562    -7612194.11243  -5920499.49842  21373644.871    21373640.347
  22785093.428   -12462171.29343  -9694847.71942  22785095.129    22785091.919
  22729823.299    13881362.02143  10811994.69842  22729823.769    22729821.805
  20299660.994     4420787.73044   3447913.90442  20299662.625    20299658.892
  22881663.302    16566166.60843  12891169.66442  22881665.180    22881662.444
  23014955.830    -1580549.80743  -1224695.32542  23014957.805    23014955.162
  22936294.773    -9696963.18943  -7542461.19842  22936296.859    22936294.602
  22684666.744    14719115.05943  11460474.21442  22684667.616    22684665.323
  24285291.813    -7633715.06243  -5907475.16342  24285293.378    24285290.519
 04  5 14 17  9 30.0000000  0  9G21G18G17G 6G30G29G26G10G16
  21364238.928    -7661615.85943  -5959009.93642  21364240.208    21364235.670
  22766553.371   -12559599.67743  -9770765.88542  22766555.084    22766551.900
  22743061.107    13950927.08143  10866201.21042  22743061.637    22743059.642
  20301342.934     4429626.27044   3454801.08242  20301344.556    20301340.823
  22900909.018    16667303.20943  12969977.33042  22900910.893    22900908.184
  23006597.151    -1624474.61243  -1258922.40442  23006599.141    23006596.488
  22921584.963    -9774263.65043  -7602695.28242  22921587.031    22921584.723
  22702292.878    14811740.82343  11532650.10342  22702293.765    22702291.443
  24271462.914    -7706386.39443  -5964102.13342  24271464.457    24271461.582
 04  5 14 17 10  0.0000000  0  9G21G18G17G 6G30G29G26G10G16
  21354875.527    -7710820.82543  -5997351.45342  21354876.821    21354872.259
  22748061.571   -12656774.56243  -9846486.52642  22748063.248    22748060.083
  22756318.796    14020596.50943  10920489.03542  22756319.357    22756317.320
  20303109.071     4438907.48044   3462033.19142  20303110.709    20303107.006
  22920187.303    16768610.98643  13048918.39142  22920189.167    22920186.494
  22998323.921    -1667950.31943  -1292799.53742  22998325.928    22998323.310
  22906945.837    -9851192.69843  -7662639.93142  22906947.893    22906945.559
  22719973.144    14904651.17343  11605047.75342  22719974.045    22719971.748
  24257710.984    -7778653.44643  -6020414.09942  24257712.479    24257709.548
 04  5 14 17 10 30.0000000  0  9G21G18G17G 6G30G29G26G10G16
  21345554.165    -7759804.89443  -6035520.84842  21345555.445    21345550.889
  22729618.921   -12753691.29843  -9922006.00742  22729620.577    22729617.436
  22769596.725    14090372.34443  10974859.77342  22769597.305    22769595.261
  20304960.081     4448634.55344   3469612.72042  20304961.706    20304957.998
  22939498.083    16870089.56643  13127992.54842  22939500.011    22939497.275
  22990137.131    -1710972.17743  -1326323.03442  22990139.137    22990136.465
  22892378.473    -9927744.26943  -7722290.45642  22892380.577    22892378.224
  22737707.534    14997845.78543  11677666.90442  22737708.410    22737706.133
  24244036.870    -7850511.38743  -6076407.23142  24244038.338    24244035.414
 04  5 14 17 11  0.0000000  0  9G21G18G17G 6G30G29G26G10G16
  21336273.727    -7808573.90943  -6073522.66842  21336274.991    21336270.461
  22711224.808   -12850352.84643  -9997326.64942  22711226.455    22711223.267
  22782893.841    14160249.01443  11029309.10342  22782894.423    22782892.358
  20306895.168     4458803.51144   3477536.57542  20306896.812    20306893.102
  22958839.867    16971731.10443  13207193.67442  22958841.828    22958839.043
  22982036.245    -1753542.62043  -1359494.76542  22982038.244    22982035.486
  22877882.738   -10003919.65543  -7781647.84242  22877884.838    22877882.502
  22755494.610    15091317.29243  11750501.81242  22755495.486    22755493.212
  24230440.006    -7921962.82543  -6132083.63442  24230441.564    24230438.629
 04  5 14 17 11 30.0000000  0  9G21G18G17G 6G30G29G26G10G16
  21327034.867    -7857124.41843  -6111354.22542  21327036.097    21327031.591
  22692880.173   -12946754.50643 -10072444.77842  22692881.812    22692878.583
  22796210.600    14230228.84343  11083838.79942  22796211.217    22796209.081
  20308914.988     4469417.69744   3485807.36942  20308916.636    20308912.933
  22978212.564    17073535.15443  13286521.43742  22978214.515    22978211.709
  22974022.165    -1795657.04743  -1392311.17342  22974024.143    22974021.367
  22863459.685   -10079712.94043  -7840707.48742  22863461.805    22863459.483
  22773334.384    15185065.78543  11823552.54642  22773335.240    22773333.010
  24216921.483    -7993002.94843  -6187439.52842  24216923.061    24216920.062
 04  5 14 17 12  0.0000000  0  9G21G18G17G 6G30G29G26G10G16
  21317837.595    -7905456.28143  -6149015.40242  21317838.821    21317834.355
  22674585.396   -13042894.05643 -10147358.66042  22674587.013    22674583.786
  22809546.915    14300311.32743  11138448.49642  22809547.500    22809545.340
  20311019.669     4480477.84644   3494425.66242  20311021.327    20311017.625
  22997615.708    17175499.17543  13365973.84242  22997617.642    22997614.878
  22966095.297    -1837312.99343  -1424770.32142  22966097.289    22966094.472
  22849110.076   -10155120.27343  -7899466.39242  22849112.200    22849109.910
  22791226.333    15279088.52043  11896816.98642  22791227.213    22791224.940
  24203481.712    -8063629.19743  -6242472.91442  24203483.340    24203480.260
 04  5 14 17 12 30.0000000  0  9G21G18G17G 6G30G29G26G10G16
  21308681.698    -7953570.86443  -6186507.27342  21308682.912    21308678.463
  22656340.670   -13138770.64343 -10222067.64042  22656342.263    22656339.018
  22822902.410    14370494.78343  11193136.87242  22822903.022    22822900.827
  20313209.201     4491983.68444   3503391.24342  20313210.823    20313207.132
  23017048.481    17277618.71943  13445547.44742  23017050.406    23017047.676
  22958255.848    -1878509.51443  -1456871.47442  22958257.853    22958255.016
  22834834.308   -10230139.55743  -7957922.92242  22834836.419    22834834.122
  22809169.723    15373381.49143  11970292.00042  22809170.608    22809168.318
  24190120.877    -8133840.34943  -6297182.85042  24190122.632    24190119.599
 04  5 14 17 13  0.0000000  0  9G21G18G17G 6G30G29G26G10G16
  21299567.320    -8001467.34043  -6223829.18842  21299568.535    21299564.070
  22638146.422   -13234381.99543 -10296569.94742  22638148.005    22638144.749
  22836277.148    14440779.37443  11247904.05942  22836277.793    22836275.575
  20315483.720     4503936.30944   3512704.97042  20315485.340    20315481.643
  23036510.402    17379891.75543  13525240.63242  23036512.320    23036509.668
  22950504.437    -1919243.74943  -1488612.41142  22950506.383    22950503.600
  22820633.235   -10304766.55943  -8016073.79142  22820635.337    22820633.038
  22827164.136    15467942.63043  12043975.96542  22827165.035    22827162.717
  24176839.634    -8203633.79543  -6351567.31242  24176841.325    24176838.326
 04  5 14 17 13 30.0000000  0  9G21G18G17G 6G30G29G26G10G16
  21290494.719    -8049144.21743  -6260979.98442  21290495.923    21290491.462
  22620003.281   -13329724.70143 -10370862.91542  22620004.883    22620001.569
  22849671.204    14511165.49643  11302750.35842  22849671.894    22849669.691
  20317843.688     4516337.90044   3522368.53842  20317845.300    20317841.602
  23056001.148    17482316.36143  13605051.93642  23056003.102    23056000.503
  22942841.534    -1959512.40943  -1519990.56242  22942843.509    22942840.777
  22806507.700   -10378996.70343  -8073915.41042  22806509.779    22806507.478
  22845209.237    15562770.29843  12117867.63342  22845210.170    22845207.822
  24163638.444    -8273006.31643  -6405623.77342  24163640.159    24163637.215
 04  5 14 17 14  0.0000000  0  9G21G18G17G 6G30G29G26G10G16
  21281463.407    -8096603.99143  -6297961.60942  21281464.628    21281460.167
  22601911.131   -13424799.42043 -10444947.06642  22601912.736    22601909.387
  22863084.031    14581650.36643  11357673.59642  22863084.708    22863082.530
  20320288.643     4529186.10244   3532380.11842  20320290.239    20320286.548
  23075519.728    17584886.94543  13684976.99442  23075521.674    23075519.105
  22935267.072    -1999316.10143  -1551006.41042  22935269.034    22935266.365
  22792457.809   -10452829.33543  -8131447.28242  22792459.863    22792457.549
  22863304.068    15657858.98043  12191962.68142  22863304.987    22863302.622
  24150517.279    -8341958.36343  -6459352.59242  24150518.971    24150516.049
 04  5 14 17 14 30.0000000  0  9G21G18G17G 6G30G29G26G10G16
  21272473.676    -8143845.13743  -6334772.87642  21272474.923    21272470.496
  22583870.705   -13519602.41243 -10518819.48742  22583872.302    22583868.901
  22876515.744    14652234.52543  11412674.20742  22876516.440    22876514.296
  20322818.980     4542483.11844   3542741.42442  20322820.580    20322816.901
  23095065.807    17687601.88343  13765014.53942  23095067.735    23095065.171
  22927781.817    -2038651.26943  -1581657.16442  22927783.759    22927781.114
  22778484.483   -10526259.62943  -8188665.64742  22778486.481    22778484.176
  22881448.279    15753207.22643  12266259.98042  22881449.163    22881446.829
  24137476.779    -8410486.35843  -6512750.97142  24137478.477    24137475.487
 04  5 14 17 15  0.0000000  0  9G21G18G17G 6G30G29G26G10G16
  21263525.646    -8190867.17043  -6371413.40242  21263526.907    21263522.496
  22565882.208   -13614132.29443 -10592479.08342  22565883.793    22565880.430
  22889966.372    14722918.07243  11467752.27342  22889967.057    22889964.958
  20325434.886     4556229.94944   3553453.23142  20325436.497    20325432.821
  23114638.863    17790458.69543  13845162.64342  23114640.848    23114638.227
  22920386.162    -2077515.44643  -1611940.91442  22920388.106    22920385.497
  22764588.462   -10599283.68543  -8245567.45142  22764590.425    22764588.139
  22899641.447    15848812.85243  12340757.84442  22899642.318    22899640.030
  24124517.497    -8478587.85543  -6565817.03342  24124519.045    24124516.163
 04  5 14 17 15 30.0000000  0  9G21G18G17G 6G30G29G26G10G16
  21254618.820    -8237672.82343  -6407885.31942  21254620.080    21254615.671
  22547945.621   -13708389.25843 -10665926.03042  22547947.190    22547943.832
  22903435.364    14793697.60343  11522905.11442  22903435.958    22903433.914
  20328136.000     4570424.53144   3564513.94042  20328137.626    20328133.966
  23134237.896    17893451.70843  13925416.86242  23134239.821    23134237.192
  22913080.077    -2115909.21143  -1641858.11542  22913081.958    22913079.373
  22750769.904   -10671900.65843  -8302152.04942  22750771.858    22750769.565
  22917882.596    15944670.61043  12415452.16842  22917883.458    22917881.200
  24111639.306    -8546263.08543  -6618550.91742  24111640.906    24111637.968
 04  5 14 17 16  0.0000000  0  9G21G18G17G 6G30G29G26G10G16
  21245754.273    -8284256.24243  -6444184.07642  21245755.536    21245751.128
  22530062.495   -13802365.52143 -10739154.24542  22530064.049    22530060.677
  22916923.489    14864577.92443  11578136.48942  22916924.156    22916922.006
  20330923.448     4585072.62844   3575928.03442  20330925.059    20330921.407
  23153863.203    17996583.09043  14005778.90542  23153865.180    23153862.537
  22905864.851    -2153825.31843  -1671403.12242  22905866.730    22905864.142
  22737030.301   -10744102.18843  -8358412.93242  22737032.290    22737030.007
  22936172.119    16040782.70243  12490344.68142  22936172.971    22936170.759
  24098843.586    -8613504.81643  -6670947.03042  24098845.199    24098842.240
 04  5 14 17 16 30.0000000  0  9G21G18G17G 6G30G29G26G10G16
  21236931.593    -8330619.68943  -6480311.42242  21236932.850    21236928.422
  22512232.679   -13896061.57943 -10812164.12042  22512234.235    22512230.838
  22930430.376    14935556.62143  11633444.53242  22930431.007    22930428.897
  20333796.976     4600173.07044   3587694.60842  20333798.592    20333794.920
  23173513.974    18099847.98943  14086244.97842  23173515.896    23173513.191
  22898740.487    -2191263.88243  -1700576.00142  22898742.349    22898739.791
  22723370.077   -10815886.87843  -8414349.00042  22723372.082    22723369.816
  22954509.185    16137144.77843  12565431.97642  22954510.085    22954507.913
  24086130.329    -8680313.07243  -6723005.35942  24086131.986    24086129.073
 04  5 14 17 17  0.0000000  0  9G21G18G17G 6G30G29G26G10G16
  21228149.897    -8376767.81143  -6516270.98442  21228151.118    21228146.700
  22494455.507   -13989481.00243 -10884958.42942  22494457.033    22494453.685
  22943954.850    15006628.07543  11688824.85542  22943955.499    22943953.372
  20336755.691     4615721.26044   3599810.08242  20336757.304    20336753.625
  23193188.644    18203238.49943  14166808.93842  23193190.557    23193187.803
  22891706.579    -2228227.74843  -1729379.00742  22891708.349    22891705.789
  22709788.867   -10887256.31343  -8469961.49142  22709790.912    22709788.638
  22972892.303    16233748.55143  12640707.61742  22972893.202    22972891.023
  24073499.111    -8746690.61943  -6774728.06742  24073500.779    24073497.802
 04  5 14 17 17 30.0000000  0  9G21G18G17G 6G30G29G26G10G16
  21219409.967    -8422696.61643  -6552059.64942  21219411.180    21219406.716
  22476732.258   -14082617.18043 -10957532.02442  22476733.789    22476730.430
  22957497.723    15077796.35343  11744280.62442  22957498.347    22957496.279
  20339800.565     4631722.02144   3612278.19742  20339802.159    20339798.463
  23212887.418    18306755.75643  14247471.66842  23212889.325    23212886.570
  22884764.093    -2264710.64343  -1757807.20442  22884765.908    22884763.336
  22696288.118   -10958202.86143  -8525244.45942  22696290.170    22696287.944
  22991321.789    16330595.90543  12716173.05242  22991322.673    22991320.507
  24060950.980    -8812631.06043  -6826110.18742  24060952.640    24060949.697
 04  5 14 17 18  0.0000000  0  9G21G18G17G 6G30G29G26G10G16
  21210712.439    -8468402.43643  -6587674.56042  21210713.664    21210709.157
  22459063.857   -14175465.31843 -11029881.18442  22459065.399    22459062.000
  22971059.543    15149063.84943  11799813.69842  22971060.115    22971058.032
  20342932.290     4648179.21844   3625101.97442  20342933.871    20342930.149
  23232610.382    18410400.34343  14328233.60842  23232612.337    23232609.550
  22877914.127    -2300707.20243  -1785856.45542  22877915.999    22877913.389
  22682869.190   -11028719.78143  -8580192.65842  22682871.218    22682868.970
  23009797.651    16427687.23343  12791828.59842  23009798.567    23009796.428
  24048487.105    -8878129.27843  -6877147.72442  24048488.692    24048485.605
 04  5 14 17 18 30.0000000  0  9G21G18G17G 6G30G29G26G10G16
  21202055.996    -8513892.38643  -6623121.26342  21202057.226    21202052.675
  22441449.229   -14268030.73443 -11102010.04042  22441450.799    22441447.326
  22984638.753    15220422.66243  11855417.93242  22984639.316    22984637.163
  20346149.484     4665085.76044   3638275.90442  20346151.094    20346147.362
  23252355.530    18514161.60643  14409086.46742  23252357.472    23252354.766
  22871155.649    -2336223.31043  -1813531.31942  22871157.488    22871154.853
  22669531.153   -11098811.60643  -8634809.62542  22669533.153    22669530.882
  23028318.030    16525012.13043  12867666.13842  23028318.887    23028316.778
  24036106.284    -8943190.68843  -6927844.88342  24036107.876    24036104.782
 04  5 14 17 19  0.0000000  0  9G21G18G17G 6G30G29G26G10G16
  21193442.103    -8559158.82643  -6658393.80042  21193443.317    21193438.729
  22423890.183   -14360303.97043 -11173911.21442  22423891.772    22423888.305
  22998236.674    15291879.94743  11911098.89142  22998237.217    22998235.066
  20349453.747     4682449.81844   3651806.34042  20349455.362    20349451.643
  23272123.824    18618044.23443  14490033.87242  23272125.772    23272123.101
  22864490.431    -2371249.39443  -1840824.35742  22864492.229    22864489.582
  22656276.129   -11168467.26743  -8689086.72142  22656278.113    22656275.786
  23046883.741    16622575.51843  12943689.52542  23046884.616    23046882.501
  24023810.480    -9007805.45543  -6978194.01542  24023811.973    24023809.035
 04  5 14 17 19 30.0000000  0  9G21G18G17G 6G30G29G26G10G16
  21184869.403    -8604208.62043  -6693497.52842  21184870.628    21184866.025
  22406385.712   -14452290.46043 -11245588.95542  22406387.294    22406383.871
  23011851.885    15363428.26843  11966850.79442  23011852.453    23011850.299
  20352843.843     4700264.80744   3665688.14242  20352845.468    20352841.731
  23291913.305    18722038.24043  14571068.07642  23291915.239    23291912.610
  22857917.406    -2405790.56143  -1867739.53842  22857919.235    22857916.599
  22643103.348   -11237690.47043  -8743026.82942  22643105.337    22643103.005
  23065493.033    16720367.76443  13019891.23942  23065493.897    23065491.758
  24011598.687    -9071978.80543  -7028199.19242  24011600.167    24011597.178
 04  5 14 17 20  0.0000000  0 10G21G18G17G 6G30G29G26G10G15G16
  21176336.964    -8649046.73343  -6728436.29942  21176338.204    21176333.603
  22388935.269   -14543992.79743 -11317045.27442  22388936.866    22388933.477
  23025483.435    15435062.13643  12022669.35642  23025483.955    23025481.813
  20356318.947     4718526.57944   3679918.08342  20356320.577    20356316.843
  23311722.504    18826135.84043  14652183.00142  23311724.411    23311721.798
  22851436.098    -2439849.70043  -1894279.09642  22851437.994    22851435.365
  22630012.576   -11306482.76643  -8796631.17642  22630014.588    22630012.251
  23084144.421    16818381.51143  13096265.55442  23084145.343    23084143.217
  24712309.433    -5192282.23653  -3738899.85252  24712310.469    24712310.668
  23999470.339    -9135713.43943  -7077862.50042  23999471.774    23999468.945
 04  5 14 17 20 30.0000000  0 10G21G18G17G 6G30G29G26G10G15G16
  21167848.684    -8693652.81843  -6763194.27642  21167849.908    21167845.324
  22371543.049   -14635389.00043 -11388263.05642  22371544.673    22371541.301
  23039134.956    15506801.35343  12078570.00642  23039135.456    23039133.383
  20359882.931     4737255.38744   3694511.95242  20359884.562    20359880.841
  23331554.642    18930354.22843  14733392.05542  23331556.591    23331553.999
  22845050.823    -2473404.73043  -1920425.86042  22845052.686    22845050.026
  22617008.271   -11374820.83243  -8849881.56942  22617010.272    22617007.932
  23102841.223    16916633.84843  13172825.78142  23102842.165    23102840.036
  24695816.466    -5278953.23043  -3806435.60842  24695817.463    24695817.627
  23987429.726    -9198987.21543  -7127166.70142  23987431.095    23987428.337
 04  5 14 17 21  0.0000000  0 10G21G18G17G 6G30G29G26G10G15G16
  21159402.510    -8738037.75044  -6797779.92842  21159403.719    21159399.145
  22354207.303   -14726488.61243 -11459249.72242  22354208.933    22354205.592
  23052804.288    15578634.20343  12134543.62042  23052804.774    23052802.743
  20363533.824     4756440.83144   3709461.64242  20363535.442    20363531.728
  23351407.071    19034679.12643  14814684.09642  23351408.982    23351406.494
  22838759.602    -2506465.35343  -1946187.36142  22838761.453    22838758.721
  22604088.852   -11442712.66343  -8902784.25742  22604090.890    22604088.463
  23121580.827    17015110.96643  13249561.15842  23121581.756    23121579.578
  24679334.874    -5365564.58543  -3873924.91342  24679335.968    24679336.105
  23975474.982    -9261809.63143  -7176119.19542  23975476.388    23975473.671
 04  5 14 17 21 30.0000000  0 10G21G18G17G 6G30G29G26G10G15G16
  21150997.234    -8782207.73943  -6832198.08842  21150998.438    21150993.859
  22336927.202   -14817295.85243 -11530008.56842  22336928.799    22336925.527
  23066490.207    15650553.97743  12190584.96842  23066490.675    23066488.647
  20367270.471     4776076.96844   3724762.51542  20367272.092    20367268.367
  23371278.121    19139101.75343  14896052.28242  23371280.019    23371277.585
  22832561.674    -2539035.48543  -1971566.67142  22832563.555    22832560.782
  22591253.824   -11510160.85743  -8955341.25742  22591255.846    22591253.428
  23140361.505    17113804.13143  13326464.88442  23140362.456    23140360.283
  24662863.487    -5452121.71943  -3941371.95242  24662864.587    24662864.931
  23963605.403    -9324184.53743  -7224722.98242  23963606.846    23963604.030
 04  5 14 17 22  0.0000000  0 10G21G18G17G 6G30G29G26G10G15G16
  21142634.686    -8826153.19643  -6866441.28942  21142635.900    21142631.304
  22319704.882   -14907799.67143 -11600530.97642  22319706.444    22319703.205
  23080194.369    15722569.69443  12246701.07342  23080194.870    23080192.807
  20371094.781     4796173.69044   3740422.28242  20371096.396    20371092.652
  23391168.958    19243628.19543  14977501.36942  23391170.807    23391168.443
  22826459.155    -2571104.31543  -1996555.34842  22826461.033    22826458.264
  22578505.540   -11577153.19743  -9007543.04342  22578507.499    22578505.169
  23159184.568    17212719.84443  13403542.03042  23159185.471    23159183.362
  24646404.225    -5538615.23143  -4008769.40742  24646405.266    24646405.716
  23951823.100    -9386100.89143  -7272969.46142  23951824.549    23951821.671
 04  5 14 17 22 30.0000000  0 10G21G18G17G 6G30G29G26G10G15G16
  21134314.177    -8869877.78943  -6900512.39242  21134315.396    21134310.776
  22302539.936   -14998002.02943 -11670818.48742  22302541.487    22302538.255
  23093915.950    15794676.86243  12302888.43442  23093916.400    23093914.345
  20375006.031     4816727.45844   3756438.19842  20375007.670    20375003.922
  23411078.231    19348251.89643  15059026.23942  23411080.099    23411077.721
  22820451.672    -2602673.79543  -2021154.91242  22820453.540    22820450.772
  22565843.941   -11643690.23543  -9059390.04942  22565845.891    22565843.581
  23178048.715    17311851.39443  13480787.34942  23178049.594    23178047.525
  24629956.400    -5625048.86643  -4076120.20642  24629957.411    24629957.719
  23940127.676    -9447560.45643  -7320859.99342  23940129.211    23940126.285
 04  5 14 17 23  0.0000000  0 10G21G18G17G 6G30G29G26G10G15G16
  21126035.397    -8913382.98143  -6934412.52642  21126036.627    21126031.987
  22285432.477   -15087902.31943 -11740870.61942  22285434.002    22285430.748
  23107654.616    15866874.00743  12359145.91342  23107655.044    23107652.973
  20379004.110     4837737.44044   3772809.60942  20379005.742    20379001.999
  23431005.203    19452968.46643  15140623.47342  23431007.094    23431004.713
  22814539.351    -2633743.37843  -2045364.94942  22814541.191    22814538.366
  22553269.356   -11709770.01743  -9110880.75042  22553271.332    22553268.962
  23196953.240    17411195.01243  13558197.91542  23196954.096    23196952.018
  24613519.822    -5711423.45743  -4143425.00942  24613520.803    24613521.075
  23928519.328    -9508562.71243  -7368394.17542  23928520.797    23928517.959
 04  5 14 17 23 30.0000000  0 10G21G18G17G 6G30G29G26G10G15G16
  21117798.503    -8956668.17843  -6968141.23642  21117799.735    21117795.060
  22268382.872   -15177498.55043 -11810685.83042  22268384.393    22268381.106
  23121410.331    15939160.71443  12415473.19442  23121410.751    23121408.751
  20383089.091     4859204.15944   3789536.91942  20383090.731    20383086.998
  23450949.321    19557775.22743  15222290.98642  23450951.160    23450948.874
  22808722.461    -2664311.25743  -2069184.04742  22808724.338    22808721.472
  22540782.425   -11775389.19243  -9162012.53442  22540784.411    22540782.014
  23215897.587    17510748.25943  13635771.84442  23215898.462    23215896.398
  24597094.522    -5797738.62643  -4210683.52042  24597095.549    24597095.687
  23916998.394    -9569105.39443  -7415570.25842  23916999.885    23916997.020
 04  5 14 17 24  0.0000000  0 10G21G18G17G 6G30G29G26G10G15G16
  21109603.862    -8999731.35043  -7001696.94142  21109605.076    21109600.402
  22251391.755   -15266787.22743 -11880261.38542  22251393.302    22251389.983
  23135183.345    16011538.36943  12471871.33542  23135183.807    23135181.734
  20387261.399     4881129.75644   3806621.79342  20387263.029    20387259.327
  23470910.424    19662671.16343  15304027.97442  23470912.244    23470909.995
  22803001.764    -2694373.78943  -2092609.37642  22803003.624    22803000.736
  22528384.129   -11840542.61643  -9212781.40342  22528386.146    22528383.665
  23234881.730    17610510.10043  13713508.30842  23234882.573    23234880.459
  24580680.882    -5883992.36843  -4277894.14442  24580681.869    24580682.043
  23905565.548    -9629184.84543  -7462385.38842  23905567.080    23905564.206
 04  5 14 17 24 30.0000000  0 10G21G18G17G 6G30G29G26G10G15G16
  21101452.020    -9042569.47143  -7035077.28142  21101453.252    21101448.552
  22234460.108   -15355763.39443 -11949593.42742  22234461.654    22234458.302
  23148974.153    16084009.34243  12528342.18542  23148974.559    23148972.589
  20391521.646     4903517.62144   3824066.87642  20391523.289    20391519.596
  23490888.458    19767656.10243  15385834.32042  23490890.248    23490888.093
  22797378.037    -2723926.51443  -2115637.44042  22797379.948    22797377.035
  22516075.561   -11905224.37643  -9263182.74042  22516077.612    22516075.108
  23253905.605    17710480.85943  13791407.56142  23253906.420    23253904.323
  24564279.604    -5970181.59043  -4345054.50442  24564280.580    24564280.798
  23894221.782    -9688796.21443  -7508835.76242  23894223.391    23894220.431
 04  5 14 17 25  0.0000000  0 10G21G18G17G 6G30G29G26G10G15G16
  21093341.213    -9085191.88443  -7068289.53642  21093342.457    21093337.781
  22217586.421   -15444435.00543 -12018688.14942  22217587.973    22217584.578
  23162780.834    16156563.81343  12584878.09942  23162781.256    23162779.272
  20395868.118     4926358.48444   3841864.93942  20395869.759    20395866.076
  23510881.099    19872717.79143  15467700.48542  23510882.913    23510880.755
  22791849.868    -2752977.15143  -2138274.26342  22791851.799    22791848.878
  22503855.489   -11969440.86343  -9313221.51142  22503857.602    22503855.094
  23272966.925    17810648.37443  13869460.12542  23272967.693    23272965.589
  24547888.811    -6056315.33443  -4412171.62242  24547889.856    24547890.070
  23882965.704    -9747947.24943  -7554927.45342  23882967.281    23882964.357
 04  5 14 17 25 30.0000000  0 10G21G18G17G 6G30G29G26G10G15G16
  21085272.713    -9127592.14343  -7101328.68442  21085273.939    21085269.270
  22200772.278   -15532793.91843 -12087539.20642  22200773.809    22200770.395
  23176604.634    16229208.02843  12641483.94242  23176605.006    23176603.065
  20400302.103     4949659.27444   3860021.39642  20400303.755    20400300.094
  23530889.010    19977859.72643  15549629.17442  23530890.833    23530888.708
  22786418.771    -2781517.41543  -2160513.39242  22786420.748    22786417.797
  22491725.819   -12033182.30543  -9362890.12942  22491727.967    22491725.479
  23292066.375    17911016.45543  13947668.97742  23292067.148    23292065.047
  24531509.918    -6142386.84643  -4479240.25442  24531510.955    24531511.104
  23871798.825    -9806629.54243  -7600653.87442  23871800.417    23871797.437
 04  5 14 17 26  0.0000000  0 10G21G18G17G 6G30G29G26G10G15G16
  21077247.182    -9169766.67544  -7134191.94542  21077248.406    21077243.730
  22184018.607   -15620834.78043 -12156142.43242  22184020.166    22184016.731
  23190445.916    16301944.73743  12698161.87542  23190446.383    23190444.467
  20404824.313     4973423.60044   3878539.04142  20404825.953    20404822.301
  23550912.350    20083082.52143  15631620.86242  23550914.128    23550912.034
  22781085.752    -2809542.55043  -2182351.13742  22781087.693    22781084.761
  22479687.783   -12096442.28443  -9412183.57342  22479689.909    22479687.438
  23311204.125    18011585.78843  14026034.65342  23311204.901    23311202.806
  24515143.447    -6228392.69643  -4546257.71142  24515144.481    24515144.749
  23860722.202    -9864837.78443  -7646010.91142  23860723.729    23860720.750
 04  5 14 17 26 30.0000000  0 10G21G18G17G 6G30G29G26G10G15G16
  21069263.250    -9211722.53844  -7166884.81342  21069264.470    21069259.800
  22167324.417   -15708563.22043 -12224502.21442  22167325.970    22167322.551
  23204303.430    16374766.16143  12754905.79842  23204303.828    23204301.921
  20409433.385     4997644.35944   3897412.35342  20409435.003    20409431.381
  23570948.989    20188375.74943  15713667.43242  23570950.775    23570948.794
  22775849.686    -2837058.27343  -2203791.93242  22775851.584    22775848.670
  22467740.554   -12159225.09543  -9461105.19842  22467742.670    22467740.197
  23330378.231    18112346.37043  14104549.34242  23330379.034    23330376.929
  24498788.199    -6314340.00843  -4613229.56642  24498789.324    24498789.446
  23849734.633    -9922577.78343  -7691003.06942  23849736.180    23849733.230
 04  5 14 17 27  0.0000000  0 10G21G18G17G 6G30G29G26G10G15G16
  21061321.668    -9253455.72844  -7199404.16842  21061322.906    21061318.231
  22150690.768   -15795973.71543 -12292614.25942  22150692.323    22150688.834
  23218177.727    16447675.88243  12811718.53842  23218178.121    23218176.268
  20414130.129     5022325.87944   3916644.69342  20414131.750    20414128.121
  23590999.303    20293740.48743  15795769.72742  23591001.080    23590999.133
  22770711.598    -2864058.93743  -2224831.37542  22770713.521    22770710.582
  22455885.505   -12221523.67843  -9509649.50342  22455887.564    22455885.109
  23349589.021    18213299.55643  14183214.12042  23349589.819    23349587.729
  24482444.889    -6400224.39743  -4680152.37742  24482446.017    24482446.014
  23838837.361    -9979843.50743  -7735625.67642  23838838.835    23838835.957
 04  5 14 17 27 30.0000000  0 10G21G18G17G 6G30G29G26G10G15G16
  21053422.705    -9294964.93744  -7231748.99142  21053423.957    21053419.312
  22134118.161   -15883063.41643 -12360476.33142  22134119.725    22134116.214
  23232068.839    16520674.29143  12868600.36642  23232069.301    23232067.466
  20418914.742     5047469.12944   3936236.82042  20418916.337    20418912.747
  23611062.831    20399174.69143  15877926.14542  23611064.633    23611062.676
  22765671.996    -2890542.16743  -2245467.63042  22765673.888    22765670.958
  22444123.323   -12283334.12243  -9557813.44242  22444125.366    22444122.934
  23368836.106    18314443.55143  14262027.56842  23368836.926    23368834.836
  24466113.690    -6486045.06543  -4747025.53642  24466114.805    24466114.747
  23828030.823   -10036632.47243  -7779876.77942  23828032.285    23828029.391
 04  5 14 17 28  0.0000000  0 10G21G18G17G 6G30G29G26G10G15G16
  21045565.763    -9336253.43244  -7263921.82942  21045567.002    21045562.367
  22117606.314   -15969833.85543 -12428089.61642  22117607.853    22117604.350
  23245976.201    16593758.03943  12925548.71742  23245976.667    23245974.885
  20423786.730     5073071.46544   3956186.67942  20423788.334    20423784.710
  23631138.487    20504672.55143  15960132.16842  23631140.251    23631138.365
  22760730.556    -2916509.54543  -2265701.93242  22760732.457    22760729.519
  22432454.073   -12344656.39143  -9605596.97842  22432456.084    22432453.642
  23388118.378    18415772.44743  14340985.10242  23388119.166    23388117.151
  24449794.087    -6571804.82643  -4813851.23642  24449795.021    24449795.132
  23817314.693   -10092946.03743  -7823757.44342  23817316.206    23817313.270
 04  5 14 17 28 30.0000000  0 10G21G18G17G 6G30G29G26G10G15G16
  21037751.627    -9377317.05644  -7295919.44642  21037752.873    21037748.204
  22101156.256   -16056279.24443 -12495449.61942  22101157.814    22101154.313
  23259900.503    16666930.61543  12982566.27242  23259900.963    23259899.255
  20428746.902     5099137.15944   3976497.59542  20428748.487    20428744.864
  23651226.411    20610235.09143  16042388.59442  23651228.236    23651226.402
  22755888.355    -2941955.27543  -2285529.74142  22755890.277    22755887.323
  22420879.015   -12405483.40743  -9652994.59942  22420881.054    22420878.593
  23407436.171    18517287.91543  14420088.02042  23407437.003    23407434.988
  24433486.956    -6657499.08843  -4880625.89042  24433487.938    24433487.895
  23806690.279   -10148778.18443  -7867262.97842  23806691.718    23806688.752
 04  5 14 17 29  0.0000000  0 10G21G18G17G 6G30G29G26G10G15G16
  21029979.267    -9418161.02544  -7327745.90242  21029980.508    21029975.857
  22084767.324   -16142403.49843 -12562559.39142  22084768.895    22084765.381
  23273840.610    16740186.25443  13039648.54342  23273841.065    23273839.393
  20433794.162     5125660.68044   3997165.27442  20433795.765    20433792.130
  23671325.081    20715853.82443  16124688.81542  23671326.876    23671325.057
  22751144.662    -2966883.54843  -2304954.34042  22751146.550    22751143.610
  22409397.745   -12465817.81043  -9700008.37142  22409399.759    22409397.315
  23426787.884    18618981.64543  14499329.84242  23426788.755    23426786.699
  24417191.308    -6743133.19743  -4947353.68342  24417192.330    24417192.188
  23796156.633   -10204132.87143  -7910396.47842  23796158.077    23796155.019
 04  5 14 17 29 30.0000000  0 10G21G18G17G 6G30G29G26G10G15G16
  21022249.283    -9458782.29643  -7359398.82642  21022250.522    21022245.867
  22068440.487   -16228201.49843 -12629414.94042  22068442.048    22068438.505
  23287797.030    16813527.54443  13096797.56342  23287797.496    23287795.828
  20438929.159     5152645.33244   4018192.26842  20438930.784    20438927.150
  23691434.439    20821528.82843  16207032.86242  23691436.215    23691434.367
  22746500.198    -2991289.97543  -2323972.30042  22746502.130    22746499.184
  22398011.401   -12525653.46043  -9746633.50142  22398013.395    22398010.910
  23446173.610    18720854.14543  14578710.95442  23446174.473    23446172.471
  24400907.656    -6828703.87843  -5014032.06042  24400908.769    24400908.576
  23785714.744   -10259005.29743  -7953154.17142  23785716.171    23785713.094
 04  5 14 17 30  0.0000000  0 10G21G18G17G 6G30G29G26G10G15G16
  21014562.678    -9499175.62744  -7390874.13942  21014563.915    21014559.269
  22052176.813   -16313667.60943 -12696011.88042  22052178.371    22052174.790
  23301770.436    16886958.35743  13154016.32842  23301770.983    23301769.321
  20444152.860     5180095.81444   4039582.23442  20444154.454    20444150.813
  23711554.835    20927261.88543  16289422.13742  23711556.600    23711554.818
  22741956.207    -3015168.56843  -2342578.96942  22741958.142    22741955.219
  22386721.350   -12584982.92543  -9792864.20742  22386723.375    22386720.858
  23465593.728    18822907.28443  14658232.83442  23465594.556    23465592.574
  24384636.937    -6914206.44943  -5080657.34742  24384638.027    24384637.869
  23775365.759   -10313389.23743  -7995531.23442  23775367.184    23775364.154
 04  5 14 17 30 30.0000000  0 10G21G18G17G 6G30G29G26G10G15G16
  21006917.939    -9539349.09143  -7422178.12242  21006919.153    21006914.509
  22035975.183   -16398807.85943 -12762354.90142  22035976.731    22035973.085
  23315759.370    16960470.49743  13211298.47242  23315759.918    23315758.251
  20449463.710     5208004.50544   4061329.25342  20449465.304    20449461.699
  23731684.325    21033042.44543  16371848.44642  23731686.050    23731684.259
  22737511.507    -3038525.49343  -2360779.13242  22737513.430    22737510.518
  22375526.740   -12643811.00743  -9838704.22142  22375528.756    22375526.236
  23485046.236    18925130.81243  14737887.48442  23485047.091    23485045.113
  24368377.716    -6999648.42143  -5147235.40842  24368378.872    24368378.728
  23765108.517   -10367290.92143  -8037532.51842  23765109.932    23765106.961
 04  5 14 17 31  0.0000000  0 10G21G18G17G 6G30G29G26G10G15G16
  20999315.423    -9579300.54344  -7453309.11442  20999316.624    20999311.978
  22019836.396   -16483617.65943 -12828440.42842  22019837.954    22019834.292
  23329764.213    17034066.30343  13268645.80642  23329764.813    23329763.087
  20454862.206     5236373.78444   4083435.16442  20454863.806    20454860.213
  23751822.735    21138869.64943  16454311.09842  23751824.470    23751822.594
  22733166.730    -3061357.26543  -2378570.10242  22733168.654    22733165.756
  22364428.517   -12702132.49843  -9884149.49542  22364430.511    22364427.967
  23504531.094    19027524.28943  14817674.57142  23504531.963    23504529.947
  24352130.541    -7085027.40443  -5213764.39742  24352131.703    24352131.585
  23754943.846   -10420706.23543  -8079154.80942  23754945.270    23754942.283
 04  5 14 17 31 30.0000000  0 10G21G18G17G 6G30G29G26G10G15G16
  20991755.668    -9619027.25143  -7484264.98742  20991756.873    20991752.234
  22003761.121   -16568093.39443 -12894265.63642  22003762.714    22003759.061
  23343785.273    17107747.39743  13326059.60542  23343785.942    23343784.183
  20460348.830     5265206.18244   4105901.95242  20460350.423    20460346.834
  23771969.849    21244743.16843  16536809.84842  23771971.663    23771969.749
  22728922.587    -3083660.14643  -2395948.93842  22728924.547    22728921.594
  22353427.671   -12759942.19543  -9929195.96142  22353429.663    22353427.110
  23524048.282    19130087.47143  14897593.86942  23524049.077    23524047.129
  24335895.818    -7170340.89043  -5280242.35142  24335896.948    24335896.868
  23744872.460   -10473631.37243  -8120395.14542  23744873.897    23744870.911
 04  5 14 17 32  0.0000000  0 10G21G18G17G 6G30G29G26G10G15G16
  20984238.287    -9658531.45343  -7515047.47342  20984239.463    20984234.828
  21987749.292   -16652235.88143 -12959831.17142  21987750.871    21987747.256
  23357822.056    17181511.10043  13383537.78042  23357822.793    23357820.971
  20465923.150     5294499.46144   4128727.87242  20465924.761    20465921.169
  23792124.749    21350657.54443  16619340.41242  23792126.586    23792124.666
  22724778.926    -3105435.12743  -2412916.41742  22724780.904    22724777.936
  22342524.331   -12817239.61143  -9973843.24642  22342526.310    22342523.678
  23543596.739    19232815.29043  14977641.48342  23543597.599    23543595.600
  24319673.212    -7255591.10643  -5346670.99442  24319674.303    24319674.225
  23734894.189   -10526067.06543  -8161254.07842  23734895.677    23734892.661
 04  5 14 17 32 30.0000000  0 10G21G18G17G 6G30G29G26G10G15G16
  20976763.588    -9697811.18543  -7545655.04842  20976764.778    20976760.116
  21971801.546   -16736041.75643 -13025134.41542  21971803.145    21971799.516
  23371874.802    17255358.77943  13441081.37242  23371875.577    23371873.748
  20471585.542     5324255.40044   4151914.30842  20471587.140    20471583.567
  23812287.254    21456611.85443  16701902.10242  23812289.101    23812287.182
  22720736.323    -3126678.97143  -2429470.02842  22720738.302    22720735.349
  22331719.372   -12874019.95043 -10018087.62942  22331721.334    22331718.686
  23563176.370    19335706.82443  15057816.65342  23563177.225    23563175.313
  24303463.025    -7340776.01543  -5413048.77142  24303464.195    24303464.018
  23725009.773   -10578009.91043  -8201729.00442  23725011.218    23725008.127
 04  5 14 17 33  0.0000000  0 10G21G18G17G 6G30G29G26G10G15G16
  20969332.241    -9736863.18343  -7576085.17242  20969333.406    20969328.766
  21955918.798   -16819506.20143 -13090171.60942  21955920.364    21955916.762
  23385944.069    17329293.16043  13498692.53442  23385944.803    23385943.060
  20477336.606     5354477.37644   4175463.88742  20477338.208    20477334.636
  23832457.352    21562606.34443  16784495.08942  23832459.178    23832457.423
  22716795.605    -3147387.43443  -2445606.46742  22716797.595    22716794.663
  22321013.868   -12930277.27243 -10061924.45242  22321015.907    22321013.184
  23582787.253    19438762.76143  15138119.93342  23582788.152    23582786.191
  24287265.902    -7425892.11543  -5479372.91242  24287267.035    24287266.882
  23715220.014   -10629455.10143  -8241816.13242  23715221.469    23715218.398
 04  5 14 17 33 30.0000000  0 11G22G21G18G17G 6G30G29G26G10G15G16
  24612131.105    -5484344.13053  -4258090.30652  24612132.067    24612130.281
  20961941.964    -9775699.29543  -7606347.06742  20961943.125    20961938.488
  21940098.917   -16902640.08043 -13154951.22242  21940100.493    21940096.883
  23400027.522    17403301.65343  13556361.44142  23400028.162    23400026.492
  20483174.025     5385153.04844   4199366.99542  20483175.633    20483172.044
  23852632.286    21668625.98343  16867107.67342  23852633.997    23852632.397
  22712954.751    -3167571.32943  -2461334.13642  22712956.728    22712953.752
  22310406.176   -12986020.90243 -10105361.00542  22310408.171    22310405.468
  23602426.643    19541968.49743  15218539.94342  23602427.576    23602425.626
  24271079.576    -7510951.33643  -5545652.71942  24271080.712    24271080.682
  23705522.956   -10680413.30243  -8281523.80542  23705524.357    23705521.319
 04  5 14 17 34  0.0000000  0 11G22G21G18G17G 6G30G29G26G10G15G16
  24591567.462    -5592405.71043  -4342293.95942  24591568.412    24591566.646
  20954595.637    -9814304.44743  -7636428.99642  20954596.811    20954592.181
  21924345.163   -16985426.46343 -13219460.06542  21924346.741    21924343.114
  23414127.864    17477399.06843  13614099.63142  23414128.411    23414126.861
  20489100.673     5416297.66644   4223635.51342  20489102.266    20489098.669
  23872814.302    21774682.98543  16949749.36542  23872816.061    23872814.610
  22709216.820    -3187214.24443  -2476640.27242  22709218.806    22709215.818
  22299899.648   -13041232.90643 -10148383.29842  22299901.608    22299898.950
  23622096.961    19645336.55043  15299086.43542  23622097.866    23622095.957
  24254907.045    -7595938.40643  -5611876.32042  24254908.093    24254908.203
  23695921.739   -10730867.63943  -8320838.84042  23695923.220    23695920.124
 04  5 14 17 34 30.0000000  0 11G22G21G18G17G 6G30G29G26G10G15G16
  24571025.986    -5700351.06543  -4426407.04842  24571026.966    24571025.071
  20947292.203    -9852684.30343  -7666335.36842  20947293.359    20947288.713
  21908656.710   -17067869.65343 -13283701.48542  21908658.284    21908654.658
  23428243.871    17551579.18643  13671902.27442  23428244.445    23428242.903
  20495115.414     5447905.21644   4248264.75742  20495116.998    20495113.407
  23893001.808    21880768.55943  17032413.31942  23893003.619    23893002.167
  22705580.970    -3206320.86143  -2491528.51442  22705582.883    22705579.942
  22289493.713   -13095916.38143 -10190993.75642  22289495.689    22289493.004
  23641796.501    19748858.31043  15379752.69342  23641797.409    23641795.543
  24238747.147    -7680858.91943  -5678048.04942  24238748.224    24238748.218
  23686415.625   -10780822.59143  -8359764.75042  23686417.067    23686413.993
 04  5 14 17 35  0.0000000  0 11G22G21G18G17G 6G30G29G26G10G15G16
  24550506.053    -5808183.06543  -4510431.81242  24550507.061    24550505.178
  20940030.796    -9890843.10843  -7696069.48942  20940031.971    20940027.344
  21893032.976   -17149972.60743 -13347677.78242  21893034.562    21893030.984
  23442374.724    17625837.30943  13729765.69442  23442375.320    23442373.745
  20501217.468     5479971.58844   4273251.53442  20501219.063    20501215.447
  23913193.415    21986875.56043  17115093.97242  23913195.212    23913193.792
  22702046.500    -3224894.36443  -2506001.33642  22702048.448    22702045.468
  22279188.040   -13150072.92843 -10233193.62642  22279190.013    22279187.318
  23661523.942    19852526.61143  15460533.13242  23661524.802    23661523.016
  24222599.086    -7765717.37543  -5744171.43142  24222600.185    24222600.065
  23677003.974   -10830281.25643  -8398303.93442  23677005.423    23677002.275
 04  5 14 17 35 30.0000000  0 11G22G21G18G17G 6G30G29G26G10G15G16
  24530009.590    -5915891.74043  -4594360.47942  24530010.632    24530008.729
  20932812.960    -9928772.99944  -7725625.24342  20932814.137    20932809.518
  21877475.799   -17231725.84143 -13411381.56542  21877477.383    21877473.824
  23456521.881    17700180.68743  13787695.55742  23456522.468    23456520.884
  20507408.287     5512504.52944   4298601.86442  20507409.898    20507406.255
  23933390.033    22093008.93743  17197795.17942  23933391.836    23933390.409
  22698615.252    -3242925.70043  -2520051.69842  22698617.194    22698614.116
  22268984.587   -13203692.08843 -10274974.74542  22268986.629    22268983.903
  23681280.340    19956346.97343  15541432.06842  23681281.188    23681279.411
  24206464.437    -7850505.46943  -5810239.99242  24206465.418    24206465.312
  23667688.576   -10879234.04443  -8436448.95342  23667690.045    23667686.853
 04  5 14 17 36  0.0000000  0 11G22G21G18G17G 6G30G29G26G10G15G16
  24509535.600    -6023482.78643  -4678197.48842  24509536.655    24509534.657
  20925637.313    -9966481.29244  -7755008.32242  20925638.485    20925633.851
  21861984.111   -17313135.05843 -13474817.28742  21861985.675    21861982.114
  23470683.802    17774601.58943  13845685.81242  23470684.327    23470682.746
  20513686.438     5545496.39344   4324309.80242  20513688.052    20513684.402
  23953589.718    22199158.43843  17280508.95542  23953591.482    23953590.085
  22695285.984    -3260421.27243  -2533684.58142  22695287.884    22695284.808
  22258882.596   -13256778.45243 -10316340.71842  22258884.641    22258881.858
  23701063.822    20060309.53943  15622441.80842  23701064.646    23701062.821
  24190341.774    -7935230.44243  -5876259.35942  24190342.807    24190342.598
  23658468.267   -10927687.21043  -8474204.64142  23658469.744    23658466.451
 04  5 14 17 36 30.0000000  0 11G22G21G18G17G 6G30G29G26G10G15G16
  24489084.801    -6130951.78443  -4761939.41342  24489085.852    24489083.789
  20918504.348   -10003965.30543  -7784216.63842  20918505.502    20918500.888
  21846558.550   -17394196.69743 -13537982.16242  21846560.115    21846556.543
  23484860.775    17849101.83743  13903737.89242  23484861.281    23484859.727
  20520052.411     5578949.66744   4350377.28542  20520054.016    20520050.356
  23973792.429    22305323.57743  17363234.90742  23973794.138    23973792.767
  22692059.265    -3277377.56143  -2546897.24442  22692061.208    22692058.087
  22248882.959   -13309326.90743 -10357287.53042  22248884.982    22248882.176
  23720874.318    20164414.07943  15703562.18242  23720875.154    23720873.347
  24174231.645    -8019889.69743  -5942227.52742  24174232.645    24174232.467
  23649343.836   -10975636.86143  -8511567.99742  23649345.201    23649341.863
 04  5 14 17 37  0.0000000  0 11G22G21G18G17G 6G30G29G26G10G15G16
  24468658.630    -6238291.81343  -4845580.83042  24468659.614    24468657.532
  20911415.136   -10041219.23143  -7813245.66442  20911416.312    20911411.681
  21831200.419   -17474904.13243 -13600871.04042  21831201.997    21831198.380
  23499053.809    17923686.63543  13961855.85742  23499054.338    23499052.895
  20526507.155     5612869.43044   4376808.25742  20526508.752    20526505.078
  23993998.523    22411506.54543  17445974.76242  23994000.183    23993998.841
  22688936.448    -3293788.22243  -2559684.75642  22688938.338    22688935.230
  22238987.135   -13361329.71843 -10397809.17242  22238989.138    22238986.341
  23740712.329    20268663.10743  15784795.12542  23740713.096    23740711.326
  24158134.925    -8104477.93443  -6008140.34542  24158135.942    24158135.735
  23640316.381   -11023076.13843  -8548533.66342  23640317.791    23640314.484
 04  5 14 17 37 30.0000000  0 11G22G21G18G17G 6G30G29G26G10G15G16
  24448256.390    -6345505.83443  -4929124.04342  24448257.354    24448255.256
  20904368.853   -10078247.77943  -7842099.07042  20904370.009    20904365.357
  21815909.149   -17555260.11243 -13663486.05642  21815910.732    21815907.092
  23513261.939    17998350.62643  14020035.53842  23513262.501    23513261.012
  20533049.728     5647250.75644   4403598.87342  20533051.311    20533047.668
  24014206.552    22517699.92343  17528722.72542  24014208.285    24014206.839
  22685916.722    -3309656.83143  -2572049.87742  22685918.620    22685915.534
  22229194.817   -13412788.76143 -10437907.10842  22229196.772    22229193.996
  23760576.428    20373049.32843  15866134.97542  23760577.204    23760575.455
  24142050.936    -8188999.41643  -6074001.16042  24142052.017    24142051.659
  23631385.432   -11070008.49843  -8585104.32642  23631386.852    23631383.508
 04  5 14 17 38  0.0000000  0 11G22G21G18G17G 6G30G29G26G10G15G16
  24427878.398    -6452592.33143  -5012567.90142  24427879.316    24427877.170
  20897365.277   -10115051.73443  -7870777.47242  20897366.446    20897361.769
  21800684.832   -17635264.26543 -13725826.92542  21800686.428    21800682.751
  23527485.133    18073093.53543  14078276.70142  23527485.600    23527484.138
  20539680.101     5682093.69144   4430749.19342  20539681.693    20539678.078
  24034416.055    22623900.89243  17611476.60642  24034417.791    24034416.349
  22683000.320    -3324982.48143  -2583991.91942  22683002.259    22682999.124
  22219506.396   -13463701.63543 -10477579.44142  22219508.344    22219505.606
  23780466.157    20477570.40843  15947579.91842  23780466.979    23780465.251
  24125979.662    -8273454.02543  -6139809.87042  24125980.805    24125980.371
  23622551.169   -11116432.61943  -8621278.95342  23622552.669    23622549.267
 04  5 14 17 38 30.0000000  0 11G22G21G18G17G 6G30G29G26G10G15G16
  24407525.358    -6559547.48043  -5095909.39342  24407526.306    24407524.099
  20890404.891   -10151628.69443  -7899278.98842  20890406.061    20890401.398
  21785528.310   -17714912.28943 -13787890.28842  21785529.913    21785526.182
  23541723.494    18147916.49343  14136580.24042  23541723.972    23541722.524
  20546398.548     5717399.45244   4458260.17342  20546400.163    20546396.549
  24054626.719    22730108.13543  17694235.36742  24054628.536    24054626.998
  22680187.763    -3339762.57143  -2595508.84742  22680189.695    22680186.529
  22209922.707   -13514064.01543 -10516822.83242  22209924.683    22209921.939
  23800381.408    20582225.28743  16029129.11942  23800382.193    23800380.451
  24109921.395    -8357840.19643  -6205565.24042  24109922.580    24109922.076
  23613814.274   -11162345.55143  -8657055.26042  23613815.724    23613812.357
 04  5 14 17 39  0.0000000  0 11G22G21G18G17G 6G30G29G26G10G15G16
  24387197.266    -6666371.51743  -5179148.73342  24387198.201    24387195.990
  20883487.329   -10187980.70743  -7927605.22242  20883488.505    20883483.846
  21770439.366   -17794205.32243 -13849677.03142  21770440.942    21770437.191
  23555976.587    18222816.83943  14194944.08842  23555977.114    23555975.684
  20553204.656     5753165.83844   4486130.08242  20553206.287    20553202.679
  24074837.545    22836316.54943  17776995.05742  24074839.395    24074837.916
  22677478.765    -3353998.38143  -2606601.66042  22677480.716    22677477.550
  22200443.866   -13563875.66043 -10555637.07442  22200445.839    22200443.128
  23820321.136    20687008.99543  16110778.70542  23820321.891    23820320.211
  24093875.775    -8442159.93143  -6271268.84542  24093876.886    24093876.341
  23605174.407   -11207748.33743  -8692434.03842  23605175.847    23605172.506
 04  5 14 17 39 30.0000000  0 11G22G21G18G17G 6G30G29G26G10G15G16
  24366894.978    -6773060.23243  -5262282.63442  24366895.912    24366893.538
  20876613.044   -10224105.17844  -7955754.14542  20876614.239    20876609.577
  21755418.682   -17873139.47843 -13911184.13042  21755420.238    21755416.476
  23570244.898    18297797.12043  14253370.23142  23570245.355    23570243.971
  20560098.903     5789395.27844   4514360.80442  20560100.516    20560096.909
  24095048.657    22942525.90643  17859755.45742  24095050.399    24095048.983
  22674873.997    -3367686.20043  -2617267.46542  22674875.991    22674872.801
  22191070.819   -13613131.24643 -10594018.02242  22191072.788    22191070.109
  23840285.456    20791921.88943  16192528.94842  23840286.270    23840284.480
  24077843.410    -8526410.22343  -6336918.33142  24077844.509    24077843.862
  23596632.395   -11252636.74443  -8727412.00342  23596633.825    23596630.540
 04  5 14 17 40  0.0000000  0 11G22G21G18G17G 6G30G29G26G10G15G16
  24346617.813    -6879616.72643  -5345313.52742  24346618.762    24346616.357
  20869781.173   -10260006.75843  -7983729.39342  20869782.380    20869777.717
  21740465.663   -17951718.04443 -13972414.15242  21740467.210    21740463.419
  23584527.447    18372851.81443  14311854.34142  23584527.859    23584526.400
  20567080.283     5826082.72444   4542948.40842  20567081.900    20567078.301
  24115258.438    23048728.72443  17942510.76242  24115260.119    24115258.892
  22672372.820    -3380829.86743  -2627509.25842  22672374.787    22672371.659
  22181803.174   -13661833.15343 -10631967.53442  22181805.107    22181802.419
  23860272.954    20896956.62743  16274374.14042  23860273.766    23860272.020
  24061823.410    -8610595.72943  -6402517.35842  24061824.539    24061823.871
  23588187.611   -11297014.37043  -8761991.96242  23588189.002    23588185.797
 04  5 14 17 40 30.0000000  0 11G22G21G18G17G 6G30G29G26G10G15G16
  24326368.127    -6986029.12543  -5428232.14342  24326368.938    24326366.432
  20862993.634   -10295675.42143  -8011523.14442  20862994.840    20862990.199
  21725582.486   -18029929.55543 -14033358.15842  21725584.042    21725580.239
  23598825.934    18447990.74343  14370404.10242  23598826.412    23598824.996
  20574150.697     5863238.02544   4571900.57542  20574152.336    20574148.705
  24135468.367    23154931.99543  18025266.41242  24135469.962    24135468.792
  22669977.236    -3393418.68643  -2637318.70742  22669979.178    22669976.062
  22172643.202   -13709968.79343 -10669475.81042  22172645.137    22172642.492
  23880285.066    21002120.56143  16356320.00342  23880285.911    23880284.148
  24045817.651    -8694706.37743  -6468058.03342  24045818.711    24045818.022
  23579842.096   -11340870.06943  -8796165.20742  23579843.527    23579840.398
 04  5 14 17 41  0.0000000  0 11G22G21G18G17G 6G30G29G26G10G15G16
  24306144.578    -7092304.23843  -5511043.78142  24306145.352    24306142.757
  20856248.926   -10331119.18843  -8039141.65442  20856250.114    20856245.479
  21710767.813   -18107781.09843 -14094021.66442  21710769.354    21710765.570
  23613138.810    18523205.11143  14429012.64142  23613139.327    23613137.837
  20581308.555     5900852.73644   4601210.72742  20581310.187    20581306.555
  24155676.216    23261124.66043  18108013.80142  24155677.894    24155676.642
  22667685.842    -3405459.89543  -2646701.44742  22667687.784    22667684.702
  22163589.871   -13757544.07943 -10706547.43042  22163591.835    22163589.188
  23900319.720    21107402.99943  16438358.21142  23900320.526    23900318.794
  24029824.603    -8778750.44243  -6533546.84842  24029825.626    24029824.993
  23571594.641   -11384210.83143  -8829937.21742  23571596.076    23571592.895
 04  5 14 17 41 30.0000000  0 11G22G21G18G17G 6G30G29G26G10G15G16
  24285948.449    -7198435.31943  -5593743.18042  24285949.179    24285946.573
  20849547.935   -10366333.11643  -8066581.07242  20849549.122    20849544.471
  21696022.829   -18185266.29343 -14154399.70442  21696024.398    21696020.613
  23627466.817    18598499.24743  14487683.33342  23627467.404    23627465.897
  20588554.650     5938931.17244   4630882.22542  20588556.287    20588552.639
  24175882.424    23367308.56643  18190754.36942  24175884.248    24175882.978
  22665499.731    -3416947.89843  -2655653.11542  22665501.655    22665498.572
  22154644.636   -13804551.70543 -10743176.72942  22154646.588    22154643.887
  23920377.369    21212806.21543  16520490.52342  23920378.140    23920376.478
  24013845.104    -8862722.86243  -6598979.81942  24013846.129    24013845.415
  23563446.305   -11427030.85743  -8863303.45242  23563447.768    23563444.495
 04  5 14 17 42  0.0000000  0 11G22G21G18G17G 6G30G29G26G10G15G16
  24265778.666    -7304427.45243  -5676334.30742  24265779.430    24265776.787
  20842889.355   -10401324.16944  -8093846.81642  20842890.531    20842885.879
  21681346.446   -18262391.03443 -14214496.87242  21681348.033    21681344.258
  23641808.702    18673866.10543  14546410.68942  23641809.297    23641807.807
  20595887.639     5977466.18944   4660909.50942  20595889.254    20595885.630
  24196085.135    23473474.05043  18273480.56942  24196086.892    24196085.763
  22663417.743    -3427888.89843  -2664178.55042  22663419.640    22663416.545
  22145806.514   -13850996.27043 -10779367.28142  22145808.478    22145805.752
  23940456.166    21318320.91643  16602709.70542  23940456.955    23940455.327
  23997877.955    -8946630.36043  -6664362.20742  23997879.037    23997878.309
  23555395.970   -11469335.80143  -8896268.33142  23555397.432    23555394.165
 04  5 14 17 42 30.0000000  0 11G22G21G18G17G 6G30G29G26G10G15G16
  24245636.570    -7410274.45543  -5758812.35942  24245637.346    24245634.663
  20836274.106   -10436087.62944  -8120935.22042  20836275.289    20836270.617
  21666739.784   -18339149.43243 -14274308.58042  21666741.376    21666737.597
  23656165.203    18749309.78443  14605197.91942  23656165.731    23656164.449
  20603308.276     6016461.88444   4691295.75942  20603309.910    20603306.303
  24216284.681    23579622.88843  18356193.79742  24216286.445    24216285.442
  22661440.882    -3438277.47443  -2672273.53142  22661442.778    22661439.642
  22137076.841   -13896870.83543 -10815113.66042  22137078.834    22137076.066
  23960556.593    21423949.04243  16685017.27942  23960557.463    23960555.756
  23981924.123    -9030468.15743  -6729690.28342  23981925.165    23981924.441
  23547444.756   -11511119.80743  -8928827.28642  23547446.192    23547442.910
 04  5 14 17 43  0.0000000  0 11G22G21G18G17G 6G30G29G26G10G15G16
  24225523.737    -7515967.48143  -5841170.41242  24225524.508    24225521.768
  20829703.558   -10470615.97644  -8147840.41642  20829704.758    20829700.110
  21652204.450   -18415533.11643 -14333828.30042  21652206.008    21652202.256
  23670537.592    18824836.87643  14664050.15942  23670538.124    23670536.811
  20610817.934     6055925.29144   4722046.45542  20610819.575    20610815.960
  24236481.848    23685759.27843  18438897.32542  24236483.588    24236482.597
  22659570.567    -3448105.77043  -2679931.92142  22659572.475    22659569.370
  22128457.464   -13942165.84543 -10850408.44242  22128459.478    22128456.697
  23980679.446    21529694.90643  16767416.59242  23980680.279    23980678.639
  23965984.888    -9114229.15643  -6794958.52142  23965985.938    23965985.139
  23539594.138   -11552374.77843  -8960974.00042  23539595.652    23539592.344
 04  5 14 17 43 30.0000000  0 11G22G21G18G17G 6G30G29G26G10G15G16
  24205437.840    -7621519.03143  -5923418.23642  24205438.612    24205435.814
  20823174.983   -10504923.81643  -8174573.78842  20823176.188    20823171.556
  21637737.895   -18491555.17543 -14393066.23542  21637739.461    21637735.738
  23684923.036    18900432.64643  14722955.90242  23684923.548    23684922.205
  20618413.779     6095841.61344   4753150.07542  20618415.414    20618411.797
  24256673.398    23791865.90143  18521577.65742  24256675.065    24256674.113
  22657804.283    -3457387.57643  -2687164.48342  22657806.183    22657803.085
  22119946.078   -13986893.47743 -10885261.11542  22119948.090    22119945.288
  24000821.488    21635541.86143  16849894.67242  24000822.297    24000820.623
  23950057.569    -9197927.58443  -6860177.99242  23950058.669    23950057.797
  23531841.775   -11593113.95543  -8992718.79742  23531843.179    23531839.987
 04  5 14 17 44  0.0000000  0 11G22G21G18G17G 6G30G29G26G10G15G16
  24185381.602    -7726914.65843  -6005544.55742  24185382.399    24185379.569
  20816690.846   -10538998.20743  -8201125.25342  20816692.010    20816687.406
  21623342.883   -18567201.27443 -14452011.21042  21623344.442    21623340.715
  23699323.894    18976109.63643  14781924.93142  23699324.401    23699323.097
  20626098.141     6136223.13544   4784616.17942  20626099.778    20626096.151
  24276861.236    23897952.89643  18604242.68642  24276862.938    24276861.974
  22656144.617    -3466109.15143  -2693960.50642  22656146.518    22656143.410
  22111545.571   -14031038.53443 -10919659.83442  22111547.566    22111544.706
  24020984.747    21741500.32843  16932459.65042  24020985.569    24020983.911
  23934144.649    -9281550.33443  -6925338.49442  23934145.655    23934144.891
  23524190.158   -11633323.43043  -9024050.83642  23524191.553    23524188.297
 04  5 14 17 44 30.0000000  0 11G22G21G18G17G 6G30G29G26G10G15G16
  24165354.298    -7832158.09243  -6087552.28642  24165355.105    24165352.261
  20810250.136   -10572844.37643  -8227498.88342  20810251.269    20810246.670
  21609018.611   -18642475.65143 -14510666.53842  21609020.187    21609016.434
  23713739.119    19051861.93243  14840952.64042  23713739.593    23713738.308
  20633869.975     6177064.35844   4816440.49642  20633871.607    20633867.995
  24297043.780    24004012.05843  18686886.02342  24297045.496    24297044.542
  22654590.606    -3474275.35343  -2700323.76742  22654592.531    22654589.443
  22103255.294   -14074604.09743 -10953606.99642  22103257.290    22103254.431
  24041167.633    21847562.24543  17015105.23342  24041168.516    24041166.864
  23918245.056    -9365102.78343  -6990444.22342  23918246.089    23918245.329
  23516638.530   -11673007.52743  -9054973.50042  23516639.950    23516636.667
 04  5 14 17 45  0.0000000  0 11G22G21G18G17G 6G30G29G26G10G15G16
  24145355.995    -7937248.78043  -6169440.99342  24145356.836    24145353.995
  20803852.589   -10606463.53543  -8253695.62442  20803853.757    20803849.134
  21594765.051   -18717378.58843 -14569032.42842  21594766.609    21594762.857
  23728168.382    19127687.93043  14900037.77942  23728168.873    23728167.502
  20641728.935     6218363.41744   4848621.57042  20641730.562    20641726.966
  24317220.233    24110039.10643  18769504.33442  24317221.897    24317220.908
  22653142.192    -3481886.79143  -2706254.75042  22653144.114    22653141.030
  22095075.437   -14117589.28243 -10987101.90942  22095077.427    22095074.615
  24061369.523    21953723.75343  17097828.42942  24061370.486    24061368.853
  23902358.584    -9448586.03943  -7055496.02042  23902359.680    23902358.980
  23509186.790   -11712166.55443  -9085487.01242  23509188.234    23509184.944
 04  5 14 17 45 30.0000000  0 11G22G21G18G17G 6G30G29G26G10G15G16
  24125387.691    -8042182.25043  -6251207.21342  24125388.583    24125385.651
  20797498.882   -10639852.52643  -8279713.01242  20797500.052    20797495.400
  21580582.951   -18791905.91443 -14627105.63342  21580584.480    21580580.745
  23742612.075    19203589.91443  14959182.13942  23742612.520    23742611.268
  20649675.500     6260122.78044   4881161.31742  20649677.104    20649673.531
  24337390.560    24216034.16943  18852097.71642  24337392.100    24337391.232
  22651800.019    -3488940.07743  -2711750.80942  22651801.910    22651798.795
  22087007.116   -14159988.73043 -11020140.41242  22087009.075    22087006.225
  24081590.487    22059985.35243  17180629.61842  24081591.477    24081589.828
  23886485.923    -9531996.93343  -7120491.43942  23886487.147    23886486.345
  23501835.747   -11750796.58543  -9115588.31442  23501837.183    23501833.841
 04  5 14 17 46  0.0000000  0 11G22G21G18G17G 6G30G29G26G10G15G16
  24105449.078    -8146960.06543  -6332852.15042  24105449.958    24105446.860
  20791188.360   -10673014.57743  -8305553.56742  20791189.533    20791184.841
  21566472.019   -18866059.23543 -14684887.40842  21566473.560    21566469.800
  23757069.594    19279564.38143  15018382.96042  23757070.107    23757068.725
  20657708.955     6302338.84744   4914056.94742  20657710.562    20657706.995
  24357553.633    24321991.27943  18934661.51642  24357555.263    24357554.372
  22650563.577    -3495437.76643  -2716813.93442  22650565.451    22650562.311
  22079049.945   -14201803.78943 -11052723.53742  22079051.942    22079049.073
  24101829.461    22166341.37343  17263504.37042  24101830.435    24101828.735
  23870626.439    -9615338.91743  -7185433.16642  23870627.660    23870626.822
  23494584.980   -11788899.75043  -9145279.07342  23494586.378    23494583.010
 04  5 14 17 46 30.0000000  0 11G22G21G18G17G 6G30G29G26G10G15G16
  24085541.808    -8251573.33343  -6414368.88542  24085542.605    24085539.415
  20784922.358   -10705942.65344  -8331211.79942  20784923.529    20784918.816
  21552433.802   -18939830.52643 -14742371.50042  21552435.339    21552431.572
  23771542.167    19355618.27243  15077645.68142  23771542.798    23771541.360
  20665830.559     6345018.09044   4947313.49142  20665832.165    20665828.604
  24377710.275    24427914.74143  19017199.12342  24377712.003    24377711.076
  22649434.295    -3501372.21043  -2721438.17242  22649436.180    22649432.975
  22071205.740   -14243025.04843 -11084843.96442  22071207.760    22071204.901
  24122087.223    22272796.38543  17346456.26142  24122088.187    24122086.544
  23854781.444    -9698604.61543  -7250315.45542  23854782.682    23854781.833
  23487435.933   -11826468.33743  -9174553.27542  23487437.370    23487433.902
 04  5 14 17 47  0.0000000  0 11G22G21G18G17G 6G30G29G26G10G15G16
  24065664.617    -8356028.27843  -6495762.24042  24065665.457    24065662.177
  20778699.510   -10738643.98043  -8356693.34242  20778700.702    20778695.959
  21538466.973   -19013226.60143 -14799563.20942  21538468.527    21538464.732
  23786028.345    19431743.22343  15136963.76442  23786028.931    23786027.501
  20674038.773     6388152.46144   4980924.67342  20674040.384    20674036.808
  24397858.535    24533793.84343  19099702.13942  24397860.276    24397859.444
  22648410.845    -3506750.55343  -2725629.08242  22648412.723    22648409.490
  22063473.471   -14283658.08343 -11116506.02942  22063475.508    22063472.665
  24142361.976    22379340.41143  17429477.52742  24142362.854    24142361.233
  23838949.508    -9781801.42343  -7315144.04842  23838950.717    23838949.994
  23480387.330   -11863508.72643  -9203415.91342  23480388.804    23480385.307
 04  5 14 17 47 30.0000000  0 11G22G21G18G17G 6G30G29G26G10G15G16
  24045818.942    -8460317.51343  -6577026.47142  24045819.761    24045816.472
  20772520.831   -10771113.21444  -8381994.03642  20772522.014    20772517.248
  21524573.010   -19086239.75243 -14856456.53942  21524574.583    21524570.776
  23800528.977    19507944.42843  15196341.26442  23800529.606    23800528.154
  20682334.513     6431746.84944   5014894.31542  20682336.134    20682332.562
  24417998.851    24639631.29443  19182172.70442  24418000.598    24417999.779
  22647494.307    -3511566.90443  -2729382.07542  22647496.167    22647492.945
  22055854.545   -14323695.51443 -11147703.99642  22055856.556    22055853.737
  24162654.154    22485976.21643  17512570.29142  24162654.988    24162653.435
  23823131.838    -9864923.78143  -7379914.64542  23823132.883    23823132.337
  23473440.398   -11900014.77343  -9231862.16442  23473441.879    23473438.382
 04  5 14 17 48  0.0000000  0 11G22G21G18G17G 6G30G29G26G10G15G16
  24026005.123    -8564439.48443  -6658160.36142  24026005.835    24026002.629
  20766386.359   -10803350.08944  -8407113.67342  20766387.565    20766382.766
  21510751.994   -19158869.54243 -14913051.15142  21510753.588    21510749.751
  23815044.108    19584221.45043  15255777.83842  23815044.747    23815043.308
  20690717.745     6475800.89244   5049222.11942  20690719.379    20690715.787
  24438130.728    24745424.53043  19264608.79642  24438132.466    24438131.644
  22646684.819    -3515820.67043  -2732696.68642  22646686.694    22646683.505
  22048349.485   -14363134.98443 -11178436.01342  22048351.490    22048348.604
  24182963.363    22592701.50843  17595732.79942  24182964.201    24182962.621
  23807328.283    -9947971.37943  -7444626.98542  23807329.328    23807328.873
  23466595.331   -11935985.48943  -9259891.27842  23466596.813    23466593.368
 04  5 14 17 48 30.0000000  0 11G22G21G18G17G 6G30G29G26G10G15G16
  24006222.076    -8668399.61143  -6739168.15042  24006222.807    24006219.581
  20760294.779   -10835361.53144  -8432057.64542  20760296.006    20760291.167
  21497002.823   -19231121.76543 -14969351.55142  21497004.437    21497000.566
  23829572.185    19660566.97343  15315267.80742  23829572.861    23829571.345
  20699186.995     6520306.92944   5083902.12342  20699188.617    20699185.038
  24458252.344    24851163.53343  19347002.63842  24458254.019    24458253.306
  22645981.208    -3519518.47143  -2735578.08042  22645983.072    22645979.823
  22040957.267   -14401981.46943 -11208705.96042  22040959.253    22040956.334
  24203287.850    22699506.91443  17678957.73742  24203288.659    24203287.087
  23791537.705   -10030950.98443  -7509286.34342  23791538.790    23791538.313
  23459851.041   -11971426.97343  -9287508.01242  23459852.482    23459849.032
 04  5 14 17 49  0.0000000  0 11G22G21G18G17G 6G30G29G26G10G15G16
  23986471.479    -8772189.22443  -6820043.05942  23986472.211    23986469.024
  20754247.418   -10867140.67344  -8456820.60542  20754248.638    20754243.787
  21483327.034   -19302988.43743 -15025351.51942  21483328.636    21483324.742
  23844114.564    19736987.53043  15374816.22742  23844115.221    23844113.795
  20707743.484     6565271.36844   5118939.32042  20707745.083    20707741.529
  24478364.417    24956852.48943  19429357.45542  24478366.015    24478365.434
  22645384.727    -3522652.88943  -2738020.48242  22645386.608    22645383.362
  22033679.517   -14440226.03343 -11238506.87442  22033681.524    22033678.603
  24223628.367    22806396.74843  17762248.45642  24223629.233    24223627.516
  23775761.373   -10113855.90143  -7573887.49542  23775762.403    23775761.854
  23453208.848   -12006331.59943  -9314706.40942  23453210.292    23453206.859
 04  5 14 17 49 30.0000000  0 11G22G21G18G17G 6G30G29G26G10G15G16
  23966754.254    -8875803.69343  -6900781.47842  23966754.977    23966751.785
  20748244.860   -10898684.24743  -8481400.00642  20748246.073    20748241.224
  21469725.406   -19374465.46443 -15081047.87342  21469726.985    21469723.047
  23858671.745    19813485.72743  15434425.15542  23858672.384    23858670.918
  20716387.639     6610696.70144   5154335.67542  20716389.249    20716385.710
  24498467.013    25062491.61643  19511673.45142  24498468.595    24498468.077
  22644896.048    -3525220.71343  -2740021.37842  22644897.954    22644894.714
  22026517.234   -14477863.80343 -11267834.97042  22026519.240    22026516.342
  24243985.101    22913371.65543  17845605.45942  24243985.879    24243984.171
  23759999.857   -10196682.98043  -7638428.00842  23760000.960    23760000.239
  23446669.669   -12040695.27743  -9341483.29542  23446671.043    23446667.678
 04  5 14 17 50  0.0000000  0 11G22G21G18G17G 6G30G29G26G10G15G16
  23947069.018    -8979249.82343  -6981388.72342  23947069.720    23947066.551
  20742285.538   -10930000.66044  -8505802.39442  20742286.749    20742281.880
  21456196.484   -19445560.17643 -15136446.32142  21456198.092    21456194.116
  23873241.972    19890052.50043  15494087.50942  23873242.474    23873241.295
  20725117.773     6656573.78044   5190084.02142  20725119.390    20725115.842
  24518558.046    25168069.71143  19593941.89042  24518559.535    24518559.158
  22644513.757    -3527229.77343  -2741586.87142  22644515.609    22644512.384
  22019469.246   -14514901.13343 -11296695.18742  22019471.228    22019468.334
  24264355.803    23020420.82043  17929020.34042  24264356.691    24264355.028
  23744251.582   -10279440.45443  -7702914.27742  23744252.668    23744251.906
  23440231.907   -12074525.69043  -9367844.64442  23440233.372    23440229.944
 04  5 14 17 50 30.0000000  0 11G22G21G18G17G 6G30G29G26G10G15G16
  23927416.999    -9082521.24543  -7061859.84242  23927417.710    23927414.616
  20736370.455   -10961084.62844  -8530023.66242  20736371.660    20736366.786
  21442741.527   -19516266.33043 -15191541.99542  21442743.115    21442739.167
  23887826.263    19966692.93943  15553807.27442  23887826.642    23887825.523
  20733934.690     6702906.96344   5226187.78442  20733936.301    20733932.792
  24538637.799    25273588.91443  19676164.43842  24538639.329    24538638.918
  22644238.743    -3528674.84943  -2742712.90242  22644240.620    22644237.392
  22012536.792   -14551331.17443 -11325082.20442  22012538.781    22012535.889
  24284741.298    23127546.94743  18012495.17942  24284742.172    24284740.511
  23728517.496   -10362123.26443  -7767342.37142  23728518.590    23728517.790
  23433896.752   -12107817.23643  -9393786.10342  23433898.198    23433894.776
 04  5 14 17 51  0.0000000  0 11G22G21G18G17G 6G30G29G26G10G15G16
  23907798.693    -9185615.76543  -7142193.13542  23907799.410    23907796.339
  20730499.594   -10991936.21644  -8554063.85442  20730500.808    20730495.935
  21429360.717   -19586582.72743 -15246333.96142  21429362.313    21429358.373
  23902424.458    20043406.59543  15613584.07942  23902424.880    23902423.724
  20742838.351     6749696.15344   5262646.88742  20742839.977    20742836.501
  24558705.946    25379046.96243  19758339.34642  24558707.448    24558707.113
  22644071.159    -3529555.36143  -2743399.01542  22644073.033    22644069.826
  22005720.400   -14587151.48243 -11352994.10142  22005722.358    22005719.469
  24305140.995    23234747.82343  18096028.25942  24305141.933    24305140.346
  23712797.745   -10444730.88943  -7831711.88942  23712798.817    23712798.061
  23427664.360   -12140568.79243  -9419306.79242  23427665.795    23427662.338
 04  5 14 17 51 30.0000000  0 11G22G21G18G17G 6G30G29G26G10G15G16
  23888214.064    -9288533.20743  -7222388.43142  23888214.869    23888211.720
  20724672.771   -11022556.28843  -8577923.64342  20724673.998    20724669.130
  21416054.022   -19656509.87143 -15300822.61342  21416055.579    21416051.677
  23917036.256    20120191.66243  15673416.53942  23917036.693    23917035.485
  20751828.352     6796938.96244   5299459.45042  20751829.975    20751826.544
  24578761.583    25484439.29943  19840463.04542  24578763.139    24578762.692
  22644010.755    -3529872.46543  -2743646.10342  22644012.651    22644009.504
  21999020.026   -14622361.92843 -11380430.77842  21999022.021    21999019.132
  24325554.140    23342019.19143  18179616.27342  24325555.031    24325553.504
  23697092.049   -10527264.92843  -7896024.04842  23697093.103    23697092.238
  23421534.525   -12172781.28143  -9444407.42442  23421535.976    23421532.471
 04  5 14 17 52  0.0000000  0 11G22G21G18G17G 6G30G29G26G10G15G16
  23868663.529    -9391271.51743  -7302444.15142  23868664.329    23868661.179
  20718890.169   -11052944.14844  -8601602.48742  20718891.403    20718886.515
  21402821.745   -19726046.02243 -15355006.59442  21402823.287    21402819.389
  23931661.713    20197048.47543  15733304.89742  23931662.167    23931660.819
  20760904.715     6844635.55844   5336625.60942  20760906.337    20760902.913
  24598804.351    25589764.03343  19922534.05042  24598805.902    24598805.420
  22644057.821    -3529625.17043  -2743453.40442  22644059.693    22644056.546
  21992436.199   -14656959.82943 -11407390.14842  21992438.231    21992435.358
  24345980.395    23449359.68743  18263258.15142  24345981.168    24345979.767
  23681400.510   -10609724.36543  -7960278.08442  23681401.528    23681400.632
  23415507.600   -12204453.13043  -9469086.78442  23415509.088    23415505.483
 04  5 14 17 52 30.0000000  0 11G22G21G18G17G 6G30G29G26G10G15G16
  23849148.205    -9493825.04043  -7382355.88842  23849148.959    23849145.774
  20713152.462   -11083095.91744  -8625097.36542  20713153.705    20713148.821
  21389664.760   -19795186.29843 -15408882.10142  21389666.310    21389662.391
  23946301.399    20273980.65343  15793251.99642  23946301.972    23946300.515
  20770068.039     6892789.09844   5374147.82742  20770069.662    20770066.219
  24618834.492    25695022.36143  20004553.31942  24618836.050    24618835.600
  22644213.105    -3528809.37343  -2742817.71742  22644214.881    22644211.794
  21985970.094   -14690939.45343 -11433867.74942  21985972.105    21985969.226
  24366420.097    23556771.06943  18346955.26542  24366421.005    24366419.567
  23665723.984   -10692104.91743  -8024470.64842  23665725.045    23665724.057
  23409584.386   -12235579.81843  -9493341.33742  23409585.881    23409582.378
 04  5 14 17 53  0.0000000  0 11G22G21G18G17G 6G30G29G26G10G15G16
  23829666.775    -9596200.12543  -7462128.57442  23829667.521    23829664.351
  20707458.222   -11113019.30743  -8648414.28142  20707459.448    20707454.619
  21376581.805   -19863937.53243 -15462454.46042  21376583.368    21376579.430
  23960953.906    20350979.90643  15853251.34842  23960954.476    23960953.042
  20779316.659     6941390.98344   5412019.39942  20779318.286    20779314.864
  24638850.010    25800203.57243  20086512.49342  24638851.641    24638851.008
  22644475.072    -3527432.85743  -2741745.10642  22644476.843    22644473.716
  21979620.501   -14724306.92343 -11459868.35242  21979622.466    21979619.604
  24386871.407    23664242.79143  18430699.39142  24386872.205    24386870.839
  23650061.028   -10774414.44143  -8088607.87442  23650062.114    23650060.998
  23403763.561   -12266168.54943  -9517176.70842  23403765.043    23403761.555
 04  5 14 17 53 30.0000000  0 11G22G21G18G17G 6G30G29G26G10G15G16
  23810221.346    -9698386.44343  -7541754.20242  23810222.097    23810218.859
  20701809.150   -11142705.35744  -8671546.25642  20701810.368    20701805.568
  21363574.779   -19932289.84243 -15515715.96542  21363576.322    21363572.399
  23975620.778    20428054.63443  15913309.52342  23975621.329    23975619.981
  20788652.158     6990449.25844   5450246.60142  20788653.777    20788650.344
  24658851.991    25905313.51743  20168416.11142  24658853.452    24658852.967
  22644845.487    -3525486.49043  -2740228.45742  22644847.280    22644844.118
  21973389.377   -14757051.74643 -11485383.77142  21973391.352    21973388.436
  24407335.294    23771781.15443  18514495.45942  24407336.135    24407334.772
  23634413.191   -10856644.24943  -8152682.98042  23634414.220    23634413.165
  23398046.890   -12296210.00943  -9540585.63342  23398048.293    23398044.831
 04  5 14 17 54  0.0000000  0 11G22G21G18G17G 6G30G29G26G10G15G16
  23790810.589    -9800390.40943  -7621237.72642  23790811.249    23790808.010
  20696203.675   -11172162.27044  -8694499.68342  20696204.907    20696200.106
  21350642.292   -20000250.23443 -15568672.08142  21350643.849    21350639.920
  23990300.352    20505196.11343  15973419.70142  23990300.896    23990299.512
  20798072.829     7039955.18044   5488822.62242  20798074.443    20798070.992
  24678838.334    26010341.49943  20250255.86242  24678839.951    24678839.681
  22645322.766    -3522978.31943  -2738274.04142  22645324.585    22645321.400
  21967275.525   -14789180.13843 -11510418.86042  21967277.547    21967274.554
  24427809.938    23879375.91643  18598335.47342  24427810.717    24427809.441
  23618778.943   -10938802.43243  -8216702.26642  23618779.950    23618778.992
  23392432.900   -12325711.59743  -9563573.87042  23392434.314    23392430.907
 04  5 14 17 54 30.0000000  0 10G22G21G18G17G 6G29G26G10G15G16
  23771437.948    -9902193.85743  -7700564.98642  23771438.622    23771435.338
  20690645.023   -11201373.14444  -8717261.38842  20690646.249    20690641.457
  21337787.760   -20067801.15243 -15621309.12742  21337789.307    21337785.348
  24004995.751    20582420.68843  16033594.63442  24004996.359    24004995.007
  20807581.730     7089924.55544   5527759.77242  20807583.312    20807579.862
  22645910.198    -3519891.51343  -2735868.74442  22645912.016    22645908.810
  21961282.488   -14820673.75743 -11534959.31842  21961284.497    21961281.498
  24448297.984    23987041.43843  18682230.61842  24448298.761    24448297.628
  23603161.569   -11020872.07343  -8280652.56142  23603162.554    23603161.602
  23386924.914   -12354656.17643  -9586128.07542  23386926.394    23386922.925
 04  5 14 17 55  0.0000000  0 10G22G21G18G17G 6G29G26G10G15G16
  23752099.526   -10003817.62443  -7779752.25242  23752100.187    23752096.842
  20685128.980   -11230360.13143  -8739848.63742  20685130.219    20685125.399
  21325007.058   -20134964.17043 -15673643.91542  21325008.588    21325004.617
  24019702.673    20659705.84743  16093816.77842  24019703.163    24019701.957
  20817174.396     7140334.25644   5567040.03242  20817175.970    20817172.524
  22646603.445    -3516248.50243  -2733030.03742  22646605.262    22646602.070
  21955406.274   -14851553.46443 -11559021.40542  21955408.263    21955405.276
  24468794.817    24094752.61743  18766161.33742  24468795.615    24468794.423
  23587556.795   -11102875.40343  -8344551.19142  23587557.801    23587556.807
  23381518.809   -12383065.47543  -9608265.17342  23381520.316    23381516.803
 04  5 14 17 55 30.0000000  0 10G22G21G18G17G 6G29G26G10G15G16
  23732798.226   -10105246.04043  -7858787.28942  23732798.931    23732795.618
  20679658.270   -11259108.84344  -8762250.21942  20679659.514    20679654.701
  21312303.057   -20201724.09043 -15725664.60142  21312304.611    21312300.587
  24034423.729    20737065.37943  16154096.86242  24034424.260    24034423.176
  20826853.408     7191197.66144   5606673.82542  20826854.988    20826851.533
  22647405.289    -3512034.84343  -2729746.67542  22647407.096    22647403.913
  21949649.894   -14881803.31043 -11582592.68742  21949651.894    21949648.882
  24489302.601    24202521.54543  18850137.05842  24489303.367    24489302.235
  23571967.373   -11184797.98243  -8408386.90442  23571968.411    23571967.326
  23376217.346   -12410924.66743  -9629973.63042  23376218.873    23376215.408
 04  5 14 17 56  0.0000000  0 10G22G21G18G17G 6G29G26G10G15G16
  23713533.261   -10206483.43143  -7937673.46742  23713533.982    23713530.672
  20674231.745   -11287625.36843  -8784470.87442  20674232.977    20674228.182
  21299674.859   -20268085.57243 -15777374.81342  21299676.413    21299672.381
  24049157.691    20814492.76343  16214429.84042  24049158.136    24049157.175
  20836617.501     7242508.16144   5646656.00942  20836619.079    20836615.616
  22648314.636    -3507256.43543  -2726023.24342  22648316.440    22648313.232
  21944012.624   -14911427.39843 -11605676.37042  21944014.647    21944011.542
  24509819.792    24310340.01243  18934151.37542  24509820.517    24509819.479
  23556392.176   -11266645.64943  -8472164.24642  23556393.243    23556392.159
  23371019.533   -12438239.35843  -9651257.80042  23371021.021    23371017.605
 04  5 14 17 56 30.0000000  0 10G22G21G18G17G 6G29G26G10G15G16
  23694304.872   -10307528.67443  -8016409.92642  23694305.653    23694302.338
  20668849.319   -11315910.13743  -8806510.94542  20668850.548    20668845.759
  21287122.432   -20334048.79643 -15828774.69542  21287123.987    21287119.959
  24063904.518    20891987.50043  16274815.28742  24063905.010    24063903.930
  20846466.392     7294264.38544   5686985.51742  20846467.985    20846464.523
  22649331.289    -3501913.80743  -2721860.16942  22649333.132    22649329.898
  21938494.635   -14940424.86943 -11628271.78642  21938496.654    21938493.461
  24530345.921    24418205.15843  19018202.06042  24530346.657    24530345.610
  23540831.184   -11348418.78043  -8535883.49242  23540832.242    23540831.172
  23365925.339   -12465009.50143  -9672117.65142  23365926.905    23365923.386
 04  5 14 17 57  0.0000000  0 10G22G21G18G17G 6G29G26G10G15G16
  23675115.179   -10408370.92043  -8094988.21142  23675115.925    23675112.558
  20663512.826   -11343953.51543  -8828362.92342  20663514.038    20663509.254
  21274647.737   -20399603.66843 -15879856.38642  21274649.286    21274645.247
  24078665.740    20969557.83543  16335259.64542  24078666.021    24078665.198
  20856401.719     7346474.79744   5727668.94042  20856403.319    20856399.860
  22650457.146    -3495997.52243  -2717250.07642  22650458.942    22650455.751
  21933097.944   -14968784.70243 -11650370.34942  21933099.971    21933096.722
  24550882.360    24526124.16443  19102294.72042  24550883.044    24550881.869
  23525286.089   -11430108.10443  -8599537.45142  23525287.156    23525286.122
  23360936.696   -12491225.22843  -9692545.48442  23360938.188    23360934.689
 04  5 14 17 57 30.0000000  0 10G22G21G18G17G 6G29G26G10G15G16
  23655962.392   -10509019.16043  -8173415.31342  23655963.155    23655959.816
  20658220.332   -11371765.73243  -8850034.77442  20658221.534    20658216.771
  21262249.095   -20464758.95543 -15930626.71042  21262250.615    21262246.606
  24093439.328    21047193.72443  16395755.08942  24093439.659    24093438.899
  20866421.355     7399128.17244   5768697.52942  20866422.937    20866419.487
  22651690.159    -3489518.14143  -2712201.21342  22651691.971    22651688.771
  21927820.863   -14996515.97243 -11671979.11342  21927822.854    21927819.587
  24571426.548    24634084.07043  19186419.25542  24571427.222    24571426.045
  23509755.098   -11511723.72143  -8663133.96542  23509756.088    23509755.034
  23356051.610   -12516896.66743  -9712549.21342  23356053.048    23356049.563
 04  5 14 17 58  0.0000000  0 10G22G21G18G17G 6G29G26G10G15G16
  23636848.015   -10609465.77543  -8251685.31542  23636848.792    23636845.336
  20652972.986   -11399340.67043  -8871521.73242  20652974.165    20652969.434
  21249927.739   -20529508.03443 -15981080.50942  21249929.242    21249925.254
  24108226.454    21124900.66543  16456305.89642  24108226.800    24108226.019
  20876526.285     7452229.73544   5810075.34242  20876527.854    20876524.411
  22653031.483    -3482469.54143  -2706708.80742  22653033.320    22653030.064
  21922664.832   -15023610.90243 -11693092.03742  21922666.818    21922663.564
  24591979.198    24742088.85143  19270578.75942  24591979.895    24591978.619
  23494239.416   -11593259.28143  -8726668.09242  23494240.361    23494239.312
  23351271.347   -12542017.11443  -9732123.58842  23351272.838    23351269.288
 04  5 14 17 58 30.0000000  0 10G22G21G18G17G 6G29G26G10G15G16
  23617771.959   -10709710.83443  -8329798.26142  23617772.778    23617769.265
  20647770.549   -11426679.72643  -8892824.88942  20647771.720    20647766.988
  21237683.521   -20593851.74643 -16031218.43842  21237685.032    21237681.049
  24123026.753    21202676.66243  16516910.49242  24123027.176    24123026.370
  20886716.024     7505776.92144   5851800.39142  20886717.577    20886714.150
  22654480.772    -3474853.46943  -2700774.21942  22654482.653    22654479.325
  21917629.870   -15050069.63843 -11713709.22942  21917631.871    21917628.615
  24612539.642    24850134.61743  19354770.20442  24612540.421    24612539.111
  23478738.655   -11674716.16543  -8790140.93842  23478739.691    23478738.480
  23346595.681   -12566587.81743  -9751269.59342  23346597.215    23346593.661
 04  5 14 17 59  0.0000000  0 10G22G21G18G17G 6G29G26G10G15G16
  23598734.609   -10809752.66843  -8407752.84142  23598735.412    23598731.882
  20642613.077   -11453782.41843  -8913943.86342  20642614.247    20642609.503
  21225516.672   -20657788.91643 -16081039.58242  21225518.166    21225514.187
  24137840.180    21280521.53443  16577568.77442  24137840.432    24137839.922
  20896990.436     7559769.19844   5893872.27042  20896991.991    20896988.580
  22656038.075    -3466669.72843  -2694397.28242  22656039.942    22656036.603
  21912716.339   -15075890.41443 -11733829.29742  21912718.319    21912715.049
  24633107.550    24958219.30143  19438991.96742  24633108.259    24633106.968
  23463252.889   -11756094.13943  -8853552.28442  23463253.965    23463252.717
  23342024.700   -12590608.46743  -9769986.98142  23342026.231    23342022.753
 04  5 14 17 59 30.0000000  0 10G22G21G18G17G 6G29G26G10G15G16
  23579736.537   -10909587.84843  -8485546.39142  23579737.343    23579733.779
  20637500.896   -11480647.01043  -8934877.30742  20637502.070    20637497.319
  21213427.662   -20721317.01543 -16130541.97242  21213429.151    21213425.185
  24152667.055    21358436.69243  16638281.81942  24152667.311    24152666.612
  20907349.650     7614207.17444   5936291.44942  20907351.213    20907347.812
  22657703.724    -3457916.75043  -2687576.78442  22657705.543    22657702.244
  21907924.770   -15101070.22943 -11753449.92042  21907926.759    21907923.496
  24653682.811    25066342.36643  19523243.63742  24653683.412    24653682.136
  23447782.453   -11837391.32643  -8916900.68942  23447783.575    23447782.293
  23337558.867   -12614076.80943  -9788273.99242  23337560.311    23337556.928
 04  5 14 18  0  0.0000000  0 10G22G21G18G17G 6G29G26G10G15G16
  23560777.289   -11009218.76343  -8563180.75942  23560778.141    23560774.567
  20632433.341   -11507277.11943  -8955628.03642  20632434.498    20632429.767
  21201415.860   -20784439.24443 -16179728.09742  21201417.371    21201413.396
  24167506.491    21436418.02943  16699046.43242  24167506.829    24167505.971
  20917792.796     7669086.27844   5979054.36342  20917794.365    20917790.979
  22659476.954    -3448598.50343  -2680315.81642  22659478.729    22659475.441
  21903254.723   -15125611.35343 -11772572.85942  21903256.693    21903253.479
  24674264.231    25174497.98443  19607520.67342  24674264.740    24674263.567
  23432326.729   -11918611.22843  -8980188.85742  23432327.880    23432326.603
  23333197.444   -12636996.08043  -9806133.15542  23333198.962    23333195.611
 04  5 14 18  0 30.0000000  0 10G22G21G18G17G 6G29G26G10G15G16
  23541858.308   -11108638.28443  -8640650.42842  23541859.175    23541855.525
  20627411.493   -11533667.14243  -8976191.68642  20627412.654    20627407.897
  21189482.588   -20847148.88943 -16228592.72642  21189484.098    21189480.143
  24182359.361    21514470.63243  16759866.58242  24182359.998    24182358.890
  20928320.783     7724411.04744   6022164.55542  20928322.343    20928318.968
  22661358.777    -3438709.56643  -2672610.15742  22661360.559    22661357.261
  21898707.568   -15149506.85943 -11791192.72342  21898709.543    21898706.302
  24694852.417    25282689.21543  19691825.45542  24694853.010    24694851.697
  23416886.787   -11999748.34843  -9043412.54142  23416887.923    23416886.597
  23328941.598   -12659360.73143  -9823560.15142  23328943.051    23328939.763
 04  5 14 18  1  0.0000000  0  9G22G21G18G17G 6G29G26G15G16
  23522980.217   -11207843.14043  -8717952.82842  23522981.089    23522977.317
  20622435.643   -11559815.32643  -8996566.89142  20622436.804    20622432.049
  21177628.366   -20909443.14043 -16277133.67342  21177629.889    21177625.902
  24197226.258    21592596.26143  16820743.61542  24197226.745    24197225.728
  20938933.741     7780182.50743   6065622.81442  20938935.306    20938931.961
  22663349.561    -3428247.97543  -2664458.27342  22663351.359    22663347.990
  21894283.887   -15172753.54343 -11809307.01142  21894285.836    21894282.614
  23401462.996   -12080800.52543  -9106569.99942  23401464.135    23401462.826
  23324791.814   -12681168.24543  -9840553.01242  23324793.240    23324789.911
 04  5 14 18  1 30.0000000  0  9G22G21G18G17G 6G29G26G15G16
  23504141.588   -11306840.74343  -8795093.72542  23504142.439    23504138.570
  20617504.343   -11585729.62643  -9016759.85242  20617505.480    20617500.731
  21165851.623   -20971330.28343 -16325357.39442  21165853.140    21165849.139
  24212105.239    21670785.55243  16881670.27142  24212105.827    24212104.742
  20949629.789     7836390.64544   6109421.34542  20949631.373    20949628.029
  22665447.471    -3417223.36443  -2655867.67442  22665449.289    22665445.914
  21889982.165   -15195359.08943 -11826921.71642  21889984.103    21889980.914
  23386053.743   -12161776.71343  -9169668.27542  23386054.833    23386053.543
  23320746.207   -12702427.64243  -9857118.76242  23320747.675    23320744.351
 04  5 14 18  2  0.0000000  0  9G22G21G18G17G 6G29G26G15G16
  23485343.176   -11405626.93443  -8872069.87942  23485343.990    23485340.126
  20612618.025   -11611407.40643  -9036768.50442  20612619.160    20612614.408
  21154153.000   -21032806.97743 -16373261.28342  21154154.502    21154150.486
  24226996.805    21749040.99343  16942648.44542  24226997.393    24226996.446
  20960409.343     7893037.41643   6153561.66442  20960410.906    20960407.572
  22667653.016    -3405632.90643  -2646836.15142  22667654.832    22667651.516
  21885803.277   -15217319.27943 -11844033.53742  21885805.213    21885802.029
  23370659.550   -12242673.65943  -9232704.80342  23370660.653    23370659.322
  23316805.649   -12723135.62543  -9873254.86242  23316807.052    23316803.720
 04  5 14 18  2 30.0000000  0  9G22G21G18G17G 6G29G26G15G16
  23466586.177   -11504195.42743  -8948876.39942  23466586.955    23466583.082
  20607777.593   -11636844.05343  -9056589.26242  20607778.742    20607773.964
  21142533.527   -21093867.63043 -16420840.98442  21142535.039    21142530.999
  24241901.781    21827366.71043  17003681.41542  24241902.342    24241901.396
  20971273.031     7950126.41344   6198046.57842  20971274.612    20971271.269
  22669967.107    -3393472.33743  -2637360.39842  22669968.905    22669965.576
  21881748.294   -15238628.49743 -11860638.11342  21881750.227    21881747.009
  23355281.310   -12323486.64243  -9295675.89342  23355282.418    23355281.151
  23312970.895   -12743287.50043  -9888957.62042  23312972.240    23312968.958
 04  5 14 18  3  0.0000000  0  9G22G21G18G17G 6G29G26G15G16
  23447869.987   -11602549.42043  -9025515.77442  23447870.746    23447866.870
  20602982.214   -11662043.82544  -9076225.44642  20602983.410    20602978.617
  21130992.444   -21154516.33743 -16468099.69042  21130993.962    21130989.890
  24256819.181    21905758.03843  17064765.48142  24256819.669    24256818.790
  20982219.797     8007651.98443   6242871.67942  20982221.391    20982218.041
  22672388.770    -3380746.52443  -2627444.19242  22672390.567    22672387.254
  21877816.559   -15259289.70443 -11876737.75042  21877818.520    21877815.293
  23339918.203   -12404220.12943  -9358585.04542  23339919.328    23339917.980
  23309241.179   -12762887.61843  -9904230.44042  23309242.484    23309239.124
 04  5 14 18  3 30.0000000  0  9G22G21G18G17G 6G29G26G15G16
  23429195.636   -11700683.60043  -9101983.86742  23429196.368    23429192.519
  20598232.704   -11687002.77044  -9095673.96642  20598233.879    20598229.091
  21119530.651   -21214748.38143 -16515033.72042  21119532.179    21119528.083
  24271749.673    21984217.96743  17125903.03442  24271750.209    24271749.285
  20993250.178     8065616.90143   6288039.12242  20993251.750    20993248.413
  22674918.658    -3367452.01743  -2617084.84542  22674920.466    22674917.115
  21874009.026   -15279298.31143 -11892328.85542  21874010.970    21874007.771
  23324570.991   -12484870.21943  -9421429.20142  23324572.127    23324570.729
  23305617.122   -12781932.17743  -9919070.37242  23305618.414    23305615.001
 04  5 14 18  4  0.0000000  0  9G22G21G18G17G 6G29G26G15G16
  23410563.050   -11798597.97443  -9178280.68642  23410563.810    23410559.964
  20593528.769   -11711722.19643  -9114935.84942  20593529.935    20593525.139
  21108148.059   -21274564.22043 -16561643.43642  21108149.585    21108145.472
  24286693.035    22062745.53943  17187093.28342  24286693.537    24286692.649
  21004363.700     8124018.84843   6333547.11142  21004365.279    21004361.947
  22677556.464    -3353590.18343  -2606283.42042  22677558.320    22677554.971
  21870325.785   -15298653.93643 -11907411.15342  21870327.696    21870324.512
  23309239.472   -12565437.72343  -9484209.01542  23309240.669    23309239.209
  23302098.594   -12800422.01643  -9933478.03942  23302099.912    23302096.461
 04  5 14 18  4 30.0000000  0  8G22G21G18G 6G29G26G15G16
  23391973.911   -11896283.90543  -9254399.48942  23391974.697    23391970.915
  20588871.878   -11736194.36144  -9134005.06442  20588873.066    20588868.224
  21096846.106   -21333956.21243 -16607922.88342  21096847.638    21096843.507
  21015561.565     8182863.87943   6379400.36142  21015563.132    21015559.776
  22680303.469    -3339154.54143  -2595034.87942  22680305.330    22680302.012
  21866768.308   -15317348.82643 -11921978.59042  21866770.180    21866767.002
  23293925.059   -12645915.46343  -9546918.88642  23293926.203    23293924.737
  23298686.941   -12818350.17543  -9947448.04442  23298688.291    23298684.873
 04  5 14 18  5  0.0000000  0  8G22G21G18G 6G29G26G15G16
  23373426.128   -11993752.53643  -9330348.99642  23373426.882    23373423.158
  20584259.584   -11760432.17944  -9152891.66942  20584260.771    20584255.911
  21085622.520   -21392936.39643 -16653881.44042  21085624.062    21085619.947
  21026841.125     8242138.22244   6425588.15142  21026842.706    21026839.327
  22683157.166    -3324158.07643  -2583349.32942  22683159.057    22683155.785
  21863334.352   -15335394.48543 -11936040.13442  21863336.203    21863333.006
  23278625.315   -12726315.91043  -9609568.53442  23278626.435    23278625.031
  23295379.792   -12835729.06943  -9960990.04642  23295381.195    23295377.737
 04  5 14 18  5 30.0000000  0  8G22G21G18G 6G29G26G15G16
  23354921.153   -12090996.30243  -9406123.26742  23354921.890    23354918.174
  20579693.059   -11784429.30944  -9171590.72542  20579694.268    20579689.396
  21074478.623   -21451498.00043 -16699513.83142  21074480.164    21074476.017
  21038203.360     8301846.96843   6472114.42842  21038204.941    21038201.548
  22686118.752    -3308595.04143  -2571222.29942  22686120.656    22686117.350
  21860025.319   -15352783.39743 -11949589.92142  21860027.181    21860024.002
  23263341.516   -12806632.82443  -9672153.08442  23263342.603    23263341.172
  23292178.393   -12852552.41943  -9974099.14142  23292179.841    23292176.404
 04  5 14 18  6  0.0000000  0  8G22G21G18G 6G29G26G15G16
  23336459.036   -12188014.72043  -9481721.95042  23336459.783    23336456.062
  20575172.272   -11808186.29344  -9190102.65242  20575173.471    20575168.596
  21063414.341   -21509641.04343 -16744820.06842  21063415.907    21063411.751
  21049647.872     8361988.11144   6518977.62742  21049649.439    21049646.049
  22689187.899    -3292466.65943  -2558654.74242  22689189.787    22689186.495
  21856841.227   -15369515.59143 -11962627.98242  21856843.142    21856839.969
  23248073.349   -12886867.06843  -9734673.21142  23248074.433    23248073.089
  23289082.478   -12868821.31943  -9986776.20342  23289083.983    23289080.547
 04  5 14 18  6 30.0000000  0  8G22G21G18G 6G29G26G15G16
  23318040.730   -12284802.96243  -9557141.27742  23318041.443    23318037.775
  20570697.832   -11831699.62244  -9208424.72342  20570699.044    20570694.169
  21052430.584   -21567361.10643 -16789796.71042  21052432.141    21052427.980
  21061175.062     8422563.84743   6566179.47142  21061176.627    21061173.273
  22692365.115    -3275770.18743  -2545644.51642  22692366.996    22692363.723
  21853782.917   -15385586.69543 -11975150.90842  21853784.868    21853781.731
  23232821.717   -12967014.85643  -9797125.97642  23232822.757    23232821.435
  23286092.866   -12884531.97443  -9999018.27742  23286094.329    23286090.944
 04  5 14 18  7  0.0000000  0  8G22G21G18G 6G29G26G15G16
  23299665.625   -12381364.40843  -9632383.87542  23299666.344    23299662.676
  20566268.879   -11854973.83543  -9226560.46642  20566270.100    20566265.244
  21041526.382   -21624663.01143 -16834447.51642  21041527.930    21041523.765
  21072783.823     8483568.29043   6613715.37242  21072785.393    21072782.089
  22695649.473    -3258510.81043  -2532195.65942  22695651.325    22695648.125
  21850849.754   -15401000.40143 -11987161.56942  21850851.701    21850848.585
  23217585.665   -13047080.58443  -9859514.79842  23217586.752    23217585.392
  23283208.506   -12899689.36943 -10010829.22542  23283209.917    23283206.623
 04  5 14 18  7 30.0000000  0  8G22G21G18G 6G29G26G15G16
  23281334.996   -12477692.22143  -9707444.42942  23281335.720    23281332.049
  20561886.556   -11878002.99144  -9244505.25842  20561887.767    20561882.934
  21030702.962   -21681540.32643 -16878767.47642  21030704.497    21030700.335
  21084475.030     8545005.96143   6661588.85542  21084476.589    21084473.323
  22699041.856    -3240683.47243  -2518304.24142  22699043.760    22699040.578
  21848042.943   -15415750.17943 -11998654.89542  21848044.883    21848041.784
  23202366.364   -13127058.56043  -9921835.24542  23202367.425    23202366.030
  23280430.522   -12914287.86243 -10022204.67742  23280431.908    23280428.648
 04  5 14 18  8  0.0000000  0  8G22G21G18G 6G29G26G15G16
  23263048.360   -12573788.91243  -9782324.87342  23263049.024    23263045.400
  20557550.085   -11900791.20843  -9262262.30342  20557551.289    20557546.497
  21019959.632   -21737996.73343 -16922759.45242  21019961.153    21019957.012
  21096247.685     8606871.53743   6709795.77942  21096249.218    21096245.977
  22702541.517    -3222292.63443  -2503973.72742  22702543.417    22702540.216
  21845361.865   -15429839.38043 -12009633.47842  21845363.804    21845360.710
  23187162.975   -13206952.82943  -9984090.47142  23187164.032    23187162.692
  23277758.056   -12928331.83143 -10033148.01642  23277759.483    23277756.211
 04  5 14 18  8 30.0000000  0  8G22G21G18G 6G29G26G15G16
  23244805.944   -12669652.90243  -9857023.99942  23244806.662    23244803.032
  20553259.539   -11923338.18243  -9279831.36942  20553260.743    20553255.953
  21009296.581   -21794031.38843 -16966422.79942  21009298.095    21009293.942
  21108101.562     8669163.97043   6758335.30842  21108103.104    21108099.869
  22706148.346    -3203338.85643  -2489204.56142  22706150.207    22706146.995
  21842806.720   -15443266.86343 -12020096.43142  21842808.652    21842805.537
  23171975.661   -13286762.95743 -10046280.13342  23171976.639    23171975.260
  23275191.148   -12941821.03943 -10043659.10142  23275192.519    23275189.318
 04  5 14 18  9  0.0000000  0  8G22G21G18G 6G29G26G15G16
  23226608.396   -12765281.46943  -9931539.68942  23226609.090    23226605.474
  20549015.226   -11945642.20043  -9297211.11642  20549016.427    20549011.627
  20998714.144   -21849642.20543 -17009755.87442  20998715.668    20998711.550
  21120036.717     8731883.49443   6807207.63642  21120038.278    21120035.036
  22709862.457    -3183821.35243  -2473996.12842  22709864.293    22709861.068
  21840377.937   -15456030.34543 -12030041.97842  21840379.848    21840376.755
  23156804.554   -13366487.33543 -10108402.96342  23156805.510    23156804.174
  23272730.033   -12954754.12343 -10053736.83342  23272731.404    23272728.251
 04  5 14 18  9 30.0000000  0  8G22G21G18G 6G29G26G15G16
  23208456.271   -12860671.45243 -10005869.46842  23208456.925    23208453.274
  20544817.530   -11967701.21043  -9314399.94842  20544818.712    20544813.953
  20988212.831   -21904826.80043 -17052756.83542  20988214.343    20988210.228
  21132053.248     8795030.76643   6856413.27742  21132054.824    21132051.589
  22713684.006    -3163738.97043  -2458347.52442  22713685.858    22713682.610
  21838075.971   -15468127.18343 -12039468.06542  21838077.889    21838074.782
  23141650.217   -13446123.85043 -10170457.34442  23141651.164    23141649.765
  23270375.049   -12967129.74543 -10063380.16742  23270376.405    23270373.293
 04  5 14 18 10  0.0000000  0  8G22G21G18G 6G29G26G15G16
  23190349.768   -12955821.68543 -10080012.43642  23190350.402    23190346.702
  20540666.413   -11989515.38543  -9331398.00142  20540667.610    20540662.857
  20977792.638   -21959584.99143 -17095425.53242  20977794.161    20977790.074
  21144150.861     8858604.16943   6905950.97042  21144152.447    21144149.245
  22717612.960    -3143092.42443  -2442259.31042  22717614.776    22717611.514
  21835900.943   -15479557.02943 -12048374.42142  21835902.877    21835899.736
  23126512.488   -13525672.69743 -10232443.39742  23126513.394    23126512.097
  23268126.025   -12978948.00143 -10072589.20542  23268127.468    23268124.330
 04  5 14 18 10 30.0000000  0  8G22G21G18G 6G29G26G15G16
  23172288.729   -13050732.84143 -10153969.11442  23172289.395    23172285.589
  20536561.585   -12011086.47643  -9348206.63842  20536562.774    20536557.999
  20967453.327   -22013918.27843 -17137763.13842  20967454.860    20967450.780
  21156328.975     8922600.56143   6955818.28042  21156330.543    21156327.390
  22721648.681    -3121884.47643  -2425733.64142  22721650.505    22721647.268
  21833852.626   -15490320.96443 -12056761.87642  21833854.576    21833851.418
  23111391.157   -13605135.46443 -10294362.38242  23111392.060    23111390.741
  23265982.821   -12990210.91843 -10081365.51342  23265984.252    23265981.042
 04  5 14 18 11  0.0000000  0  8G22G21G18G 6G29G26G15G16
  23154274.297   -13145399.00243 -10227734.88042  23154274.991    23154271.148
  20532503.934   -12032409.58244  -9364822.04242  20532505.115    20532500.360
  20957195.880   -22067821.55843 -17179765.66842  20957197.400    20957193.313
  21168588.194     8987023.11343   7006017.65242  21168589.780    21168586.622
  22725791.969    -3100111.23543  -2408767.47842  22725793.813    22725790.584
  21831932.024   -15500413.66043 -12064626.30042  21831933.987    21831930.821
  23096287.117   -13684507.55243 -10356210.69642  23096288.023    23096286.642
  23263946.116   -13000914.26343 -10089705.78842  23263947.514    23263944.215
 04  5 14 18 11 30.0000000  0  8G22G21G18G 6G29G26G15G16
  23136305.657   -13239824.79043 -10301313.34042  23136306.356    23136302.436
  20528492.352   -12053490.50044  -9381248.73242  20528493.564    20528488.777
  20947019.219   -22121300.10943 -17221437.24342  20947020.753    20947016.650
  21180927.164     9051864.73843   7056543.57642  21180928.740    21180925.585
  22730041.634    -3077779.20743  -2391365.90042  22730043.442    22730040.219
  21830138.179   -15509840.32343 -12071971.73542  21830140.143    21830136.957
  23081199.217   -13763794.71443 -10417992.86142  23081200.185    23081198.697
  23262014.697   -13011064.15243 -10097614.80742  23262016.090    23262012.774
 04  5 14 18 12  0.0000000  0  8G22G21G18G 6G29G26G15G16
  23118383.654   -13334005.39043 -10374700.75442  23118384.408    23118380.370
  20524527.571   -12074325.55044  -9397483.83242  20524528.790    20524524.011
  20936924.140   -22174349.88843 -17262774.70542  20936925.688    20936921.588
  21193346.281     9117127.62543   7107397.74242  21193347.875    21193344.736
  22734398.088    -3054885.87043  -2373526.93842  22734399.951    22734396.656
  21828471.840   -15518596.99843 -12078795.10042  21828473.779    21828470.569
  23066128.127   -13842993.23243 -10479705.95042  23066129.173    23066127.640
  23260189.167   -13020657.46043 -10105090.11942  23260190.577    23260187.229
 04  5 14 18 12 30.0000000  0  8G22G21G18G 6G29G26G15G16
  23100508.804   -13427938.49343 -10447895.31142  23100509.524    23100505.404
  20520609.865   -12094913.32044  -9413526.24542  20520611.079    20520606.280
  20926911.011   -22226969.22143 -17303776.75942  20926912.545    20926908.443
  21205845.501     9182811.39343   7158579.86942  21205847.100    21205843.947
  22738861.417    -3031430.82743  -2355250.27942  22738863.319    22738859.966
  21826933.297   -15526681.94743 -12085095.04542  21826935.233    21826932.029
  23051074.221   -13922101.67743 -10541348.84242  23051075.278    23051073.741
  23258469.685   -13029693.49343 -10112131.19942  23258471.103    23258467.777
 04  5 14 18 13  0.0000000  0  8G22G21G18G 6G29G26G15G16
  23082680.876   -13521624.95643 -10520897.68442  23082681.566    23082677.408
  20516738.814   -12115255.78943  -9429377.51142  20516740.033    20516735.224
  20916979.331   -22279160.53443 -17344445.28742  20916980.853    20916976.754
  21218424.202     9248912.71143   7210087.36142  21218425.797    21218422.635
  22743431.082    -3007416.96143  -2336538.16942  22743433.000    22743429.676
  21825522.230   -15534096.71043 -12090872.76042  21825524.195    21825521.014
  23036037.118   -14001121.96043 -10602923.03042  23036038.147    23036036.603
  23256855.773   -13038174.49543 -10118739.78642  23256857.239    23256853.894
 04  5 14 18 13 30.0000000  0  8G22G21G18G 6G29G26G15G16
  23064900.214   -13615062.93043 -10593706.43842  23064900.886    23064896.688
  20512914.610   -12135352.35044  -9445037.16542  20512915.791    20512910.961
  20907129.292   -22330922.83043 -17384779.52242  20907130.824    20907126.664
  21231082.117     9315430.43543   7261919.31742  21231083.731    21231080.545
  22748107.012    -2982844.71743  -2317390.97142  22748108.924    22748105.644
  21824238.954   -15540840.29343 -12096127.49242  21824240.923    21824237.735
  23021016.885   -14080053.60643 -10664428.17242  23021017.940    23021016.354
  23255347.588   -13046100.42443 -10124915.84742  23255348.997    23255345.656
 04  5 14 18 14  0.0000000  0  8G22G21G18G 6G29G26G15G16
  23047168.140   -13708245.25543 -10666315.97042  23047168.843    23047164.609
  20509138.287   -12155197.06943  -9460500.57842  20509139.442    20509134.644
  20897362.183   -22382249.21843 -17424774.08642  20897363.725    20897359.560
  21243820.171     9382369.23143   7314079.38642  21243821.773    21243818.604
  22752890.163    -2957709.01743  -2297804.70242  22752892.103    22752888.856
  21823084.579   -15546906.53943 -12100854.42542  21823086.521    21823083.372
  23006014.721   -14158890.61043 -10725859.56342  23006015.762    23006014.106
  23253946.030   -13053465.86343 -10130655.16442  23253947.449    23253943.995
 04  5 14 18 14 30.0000000  0  8G22G21G18G 6G29G26G15G16
  23029482.714   -13801182.31343 -10738734.40042  23029483.400    23029479.182
  20505407.773   -12174801.11744  -9475776.45642  20505408.914    20505404.103
  20887675.813   -22433151.30943 -17464438.03342  20887677.368    20887673.182
  21256635.889     9449716.24343   7366557.54242  21256637.496    21256634.349
  22757778.174    -2932022.34143  -2277789.10942  22757780.102    22757776.866
  21822057.056   -15552306.08243 -12105061.85842  21822059.016    21822055.863
  22991028.499   -14237643.80043 -10787225.63642  22991029.538    22991027.782
  23252648.795   -13060282.70243 -10135966.99142  23252650.251    23252646.801
 04  5 14 18 15  0.0000000  0  8G22G21G18G 6G29G26G15G16
  23011846.690   -13893859.77143 -10810950.52842  23011847.361    23011843.135
  20501725.538   -12194151.32044  -9490854.53142  20501726.695    20501721.887
  20878072.795   -22483615.49243 -17503760.75042  20878074.338    20878070.164
  21269531.482     9517483.02743   7419362.80442  21269533.099    21269529.962
  22762773.397    -2905772.42643  -2257334.63442  22762775.305    22762772.059
  21821158.937   -15557025.78143 -12108739.53742  21821160.888    21821157.728
  22976060.685   -14316300.19943 -10848516.29042  22976061.717    22976059.929
  23251458.407   -13066538.29343 -10140841.50442  23251459.852    23251456.384
 04  5 14 18 15 30.0000000  0  8G22G21G18G 6G29G26G15G16
  22994258.399   -13986286.31543 -10882971.14842  22994259.061    22994254.867
  20498089.768   -12213257.29844  -9505742.29842  20498090.953    20498086.134
  20868551.276   -22533651.30843 -17542749.67142  20868552.812    20868548.627
  21282504.860     9585658.42943   7472486.46942  21282506.473    21282503.309
  22767873.691    -2878970.05443  -2236449.66642  22767875.651    22767872.434
  21820388.443   -15561074.83343 -12111894.63042  21820390.373    21820387.227
  22961109.489   -14394869.39143 -10909738.98742  22961110.512    22961108.629
  23250372.883   -13072242.71743 -10145286.51742  23250374.325    23250370.908
 04  5 14 18 16  0.0000000  0  8G22G21G18G 6G29G26G15G16
  22976719.170   -14078455.13243 -10954790.93342  22976719.842    22976715.660
  20494501.585   -12232113.25244  -9520435.24342  20494502.800    20494497.963
  20859112.345   -22583253.20243 -17581400.47742  20859113.871    20859109.683
  21295556.719     9654246.35543   7525931.57642  21295558.336    21295555.170
  22773080.017    -2851610.76443  -2215130.73742  22773081.935    22773078.762
  21819746.691   -15564447.46443 -12114522.65342  21819748.596    21819745.416
  22946175.949   -14473345.66043 -10970889.28442  22946176.972    22946175.085
  23249393.060   -13077391.26943 -10149298.39242  23249394.578    23249391.234
 04  5 14 18 16 30.0000000  0  8G22G21G18G 6G29G26G15G16
  22959229.097   -14170365.97743 -11026409.71642  22959229.720    22959225.541
  20490960.842   -12250720.08543  -9534934.07342  20490962.038    20490957.215
  20849755.900   -22632421.63443 -17619713.51842  20849757.416    20849753.208
  21308686.641     9723244.38243   7579696.23842  21308688.239    21308685.044
  22778391.935    -2823696.59943  -2193379.44142  22778393.813    22778390.709
  21819233.467   -15567144.51543 -12116624.24742  21819235.376    21819232.156
  22931259.966   -14551729.63543 -11031967.65542  22931260.963    22931259.090
  23248518.857   -13081985.25643 -10152878.12942  23248520.403    23248517.078
 04  5 14 18 17  0.0000000  0  8G22G21G18G 6G29G26G15G16
  22941788.481   -14262016.93543 -11097825.99442  22941789.102    22941784.902
  20487467.603   -12269077.06744  -9549238.21442  20487468.815    20487464.004
  20840482.141   -22681155.43043 -17657687.88142  20840483.665    20840479.462
  21321894.466     9792651.75743   7633779.87142  21321896.030    21321892.866
  22783809.352    -2795227.79943  -2171195.96442  22783811.223    22783808.170
  21818849.004   -15569164.93143 -12118198.59142  21818850.930    21818847.662
  22916361.657   -14630020.54443 -11092973.50642  22916362.652    22916360.841
  23247750.300   -13086024.62143 -10156025.69042  23247751.701    23247748.434
 04  5 14 18 17 30.0000000  0  8G22G21G18G 6G29G26G15G16
  22924397.651   -14353406.32943 -11169038.44042  22924398.201    22924393.989
  20484022.111   -12287183.21244  -9563346.89242  20484023.316    20484018.512
  20831291.189   -22729454.17743 -17695323.24642  20831292.695    20831288.466
  21335179.961     9862467.44843   7688181.68242  21335181.545    21335178.369
  22789332.212    -2766204.93343  -2148580.74242  22789334.107    22789331.030
  21818593.409   -15570507.94543 -12119245.09442  21818595.333    21818592.083
  22901481.161   -14708217.79543 -11153906.37942  22901482.170    22901480.366
  23247087.115   -13089509.52043 -10158741.19942  23247088.542    23247085.312
 04  5 14 18 18  0.0000000  0  8G22G21G18G 6G29G26G15G16
  22907056.828   -14444532.74643 -11240045.99042  22907057.369    22907053.122
  20480624.431   -12305038.10744  -9577259.79242  20480625.652    20480620.815
  20822183.158   -22777317.24043 -17732619.11842  20822184.658    20822180.400
  21348542.904     9932690.10243   7742900.60542  21348544.500    21348541.314
  22794960.334    -2736628.90843  -2125534.48342  22794962.240    22794959.149
  21818466.811   -15571173.21243 -12119763.48942  21818468.735    21818465.463
  22886618.538   -14786320.96443 -11214765.94242  22886619.543    22886617.790
  23246529.365   -13092440.35343 -10161024.96742  23246530.839    23246527.533
 04  5 14 18 18 30.0000000  0  8G22G21G18G 6G29G26G15G16
  22889765.888   -14535396.99143 -11310849.24542  22889766.459    22889762.145
  20477274.200   -12322643.62744  -9590978.37342  20477275.436    20477270.594
  20813157.705   -22824746.22243 -17769576.74942  20813159.196    20813154.948
  21361982.674    10003316.41943   7797934.08142  21361984.272    21361981.058
  22800693.149    -2706502.64643  -2102059.47942  22800695.087    22800691.969
  21818468.946   -15571162.30043 -12119754.98842  21818470.829    21818467.532
  22871773.588   -14864331.66543 -11275553.45642  22871774.570    22871772.793
  23246076.693   -13094819.48543 -10162878.84842  23246078.096    23246074.820
 04  5 14 18 19  0.0000000  0  8G22G21G18G 6G29G26G15G16
  22872525.204   -14625997.02843 -11381446.61442  22872525.796    22872521.506
  20473971.605   -12339998.89943  -9604501.95642  20473972.838    20473967.979
  20804214.994   -22871740.31243 -17806195.50042  20804216.497    20804212.253
  21375499.106    10074345.59843   7853281.47542  21375500.690    21375497.441
  22806530.657    -2675826.37443  -2078155.89442  22806532.590    22806529.429
  21818599.909   -15570474.14743 -12119218.76742  21818601.784    21818598.478
  22856946.442   -14942248.67343 -11336267.97242  22856947.422    22856945.649
  23245729.047   -13096646.65943 -10164302.62642  23245730.443    23245727.160
 04  5 14 18 19 30.0000000  0  8G22G21G18G 6G29G26G15G16
  22855334.958   -14716331.95743 -11451837.40642  22855335.549    22855331.230
  20470716.664   -12357103.68044  -9617830.35342  20470717.884    20470713.033
  20795355.086   -22918299.28043 -17842475.19442  20795356.584    20795352.367
  21389091.829    10145775.82343   7908941.36842  21389093.434    21389090.183
  22812472.553    -2644601.36843  -2053824.72142  22812474.495    22812471.343
  21818859.694   -15569109.05343 -12118155.06142  21818861.557    21818858.266
  22842137.083   -15020072.16243 -11396909.60542  22842138.042    22842136.283
  23245486.243   -13097922.88443 -10165297.09942  23245487.596    23245484.314
 04  5 14 18 20  0.0000000  0  8G22G21G18G 6G29G26G15G16
  22838195.829   -14806398.40343 -11522018.99542  22838196.434    22838192.083
  20467509.857   -12373955.57244  -9630961.69442  20467511.069    20467506.207
  20786578.466   -22964420.54443 -17878413.81542  20786579.968    20786575.777
  21402761.018    10217607.78743   7964914.30042  21402762.626    21402759.387
  22818519.092    -2612826.73043  -2029065.26342  22818521.001    22818517.842
  21819248.723   -15567064.58743 -12116561.96542  21819250.602    21819247.320
  22827346.007   -15097799.56243 -11457476.36442  22827346.975    22827345.184
  23245348.544   -13098646.57143 -10165861.02342  23245349.949    23245346.577
 04  5 14 18 20 30.0000000  0  8G22G21G18G 6G29G26G15G16
  22821108.252   -14896194.22743 -11591989.71942  22821108.854    22821104.416
  20464351.376   -12390553.40644  -9643895.06942  20464352.602    20464347.733
  20777885.334   -23010103.22743 -17914010.69042  20777886.826    20777882.621
  21416506.498    10289840.86943   8021199.78742  21416508.130    21416504.952
  22824670.133    -2580502.59843  -2003877.63142  22824672.085    22824668.902
  21819767.231   -15564339.77143 -12114438.73642  21819769.112    21819765.822
  22812573.460   -15175429.72643 -11517967.36042  22812574.402    22812572.591
  23245316.138   -13098817.40243 -10165994.15142  23245317.505    23245314.059
 04  5 14 18 21  0.0000000  0  8G22G21G18G 6G29G26G15G16
  22804072.126   -14985719.78643 -11661749.85442  22804072.745    22804068.190
  20461241.041   -12406898.36044  -9656631.39742  20461242.249    20461237.381
  20769275.384   -23055348.75643 -17949266.92642  20769276.891    20769272.666
  21430327.724    10362471.88143   8077795.34842  21430329.348    21430326.235
  22830925.248    -2547631.81943  -1978264.04642  22830927.150    22830923.985
  21820414.912   -15560936.25043 -12111786.63742  21820416.767    21820413.504
  22797819.157   -15252963.92043 -11578383.57442  22797820.126    22797818.283
  23245388.328   -13098437.94343 -10165698.48642  23245389.728    23245386.274
 04  5 14 18 21 30.0000000  0  8G22G21G18G 6G29G26G15G16
  22787088.000   -15074971.84843 -11731296.85242  22787088.626    22787084.028
  20458179.262   -12422988.20744  -9669168.94242  20458180.474    20458175.587
  20760749.068   -23100154.89243 -17984180.77942  20760750.546    20760746.320
  21444224.797    10435501.36843   8134701.41142  21444226.413    21444223.335
  22837284.566    -2514213.31343  -1952223.65242  22837286.470    22837283.299
  21821192.161   -15556851.91243 -12108604.03342  21821193.999    21821190.738
  22783083.562   -15330399.71243 -11638723.10942  22783084.554    22783082.684
  23245565.547   -13097506.58743 -10164972.78142  23245566.925    23245563.554
 04  5 14 18 22  0.0000000  0  8G22G21G18G 6G29G26G15G16
  22770154.912   -15163955.29743 -11800634.55342  22770155.560    22770150.988
  20455164.902   -12438828.73044  -9681512.20842  20455166.124    20455161.230
  20752305.314   -23144527.12743 -18018756.52742  20752306.801    20752302.528
  21458196.278    10508921.88643   8191912.16742  21458197.885    21458194.807
  22843746.753    -2480254.20443  -1925762.01442  22843748.677    22843745.507
  21822097.880   -15552092.42843 -12104895.33842  21822099.726    21822096.429
  22768365.665   -15407742.65843 -11698990.29742  22768366.634    22768364.768
  23245846.550   -13096030.08843 -10163822.26942  23245847.866    23245844.488
 04  5 14 18 22 30.0000000  0  8G22G21G18G 6G29G26G15G16
  22753275.173   -15252658.63943 -11869753.98942  22753275.830    22753271.226
  20452200.063   -12454409.08644  -9693652.74142  20452201.294    20452196.401
  20743946.119   -23188454.94643 -18052985.97442  20743947.619    20743943.344
  21472243.847    10582742.30443   8249434.54542  21472245.456    21472242.386
  22850313.579    -2445745.51243  -1898872.12142  22850315.494    22850312.270
  21823134.028   -15546647.50843 -12100652.53942  21823135.877    21823132.555
  22753667.413   -15484982.42643 -11759177.08742  22753668.389    22753666.523
  23246233.036   -13093998.76043 -10162239.43942  23246234.371    23246231.071
 04  5 14 18 23  0.0000000  0  8G22G21G18G 6G29G26G15G16
  22736447.210   -15341089.97343 -11938661.47642  22736447.882    22736443.208
  20449283.003   -12469738.43843  -9705597.69442  20449284.232    20449279.311
  20735669.697   -23231947.74643 -18086876.44342  20735671.225    20735666.925
  21486365.408    10656951.55543   8307259.90642  21486367.037    21486363.961
  22856983.010    -2410697.53743  -1871562.02142  22856984.940    22856981.652
  21824298.784   -15540526.67943 -12095883.05842  21824300.651    21824297.344
  22738987.022   -15562127.99543 -11819290.47442  22738988.063    22738986.206
  23246723.179   -13091422.67743 -10160232.11242  23246724.586    23246721.330
 04  5 14 18 23 30.0000000  0  8G22G21G18G 6G29G26G15G16
  22719671.619   -15429246.18743 -12007354.58142  22719672.290    22719667.570
  20446414.069   -12484814.87644  -9717345.56142  20446415.279    20446410.355
  20727476.432   -23275003.64244 -18120426.46642  20727477.956    20727473.634
  21500561.009    10731549.81743   8365388.39742  21500562.615    21500559.587
  22863755.112    -2375110.05943  -1843831.52942  22863757.021    22863753.679
  21825592.473   -15533728.24743 -12090585.57242  21825594.359    21825591.047
  22724325.016   -15639177.17143 -11879328.74942  22724326.045    22724324.203
  23247317.309   -13088300.91943 -10157799.58642  23247318.597    23247315.452
 04  5 14 18 24  0.0000000  0  8G22G21G18G 6G29G26G15G16
  22702949.920   -15517119.10343 -12075826.93342  22702950.565    22702945.842
  20443594.741   -12499630.56143  -9728890.24942  20443595.969    20443591.032
  20719367.842   -23317614.60943 -18153629.79942  20719369.385    20719365.009
  21514831.741    10806542.85943   8423824.50642  21514833.359    21514830.323
  22870631.116    -2338976.55443  -1815675.55742  22870633.039    22870629.605
  21827016.526   -15526244.74443 -12084754.27042  21827018.403    21827015.121
  22709682.891   -15716122.00943 -11939285.72042  22709683.927    22709682.053
  23248016.471   -13084626.86243 -10154936.69342  23248017.721    23248014.604
 04  5 14 18 24 30.0000000  0  8G22G21G18G 6G29G26G15G16
  22686280.905   -15604715.12443 -12144083.51942  22686281.572    22686276.831
  20440823.660   -12514192.65143  -9740237.32942  20440824.879    20440819.957
  20711342.455   -23359788.37443 -18186492.45642  20711343.971    20711339.601
  21529175.843    10881921.38743   8482560.99842  21529177.450    21529174.402
  22877609.221    -2302306.41743  -1787101.43142  22877611.156    22877607.733
  21828569.361   -15518084.50843 -12078395.64642  21828571.225    21828567.945
  22695059.214   -15792969.97143 -11999167.21342  22695060.239    22695058.328
  23248819.018   -13080409.32343 -10151650.31242  23248820.323    23248817.200
 04  5 14 18 25  0.0000000  0  8G22G21G18G 6G29G26G15G16
  22669665.344   -15692030.19243 -12212121.18642  22669666.012    22669661.264
  20438101.389   -12528498.21144  -9751384.51142  20438102.604    20438097.718
  20703400.829   -23401521.87043 -18219012.04242  20703402.342    20703397.969
  21543593.505    10957686.64343   8541598.83842  21543595.126    21543592.075
  22884689.827    -2265097.89843  -1758107.78442  22884691.701    22884688.271
  21830251.615   -15509244.23243 -12071507.12042  21830253.466    21830250.205
  22680454.560   -15869717.73143 -12058970.60742  22680455.605    22680453.676
  23249725.459   -13075645.95543 -10147938.60942  23249726.802    23249723.655
 04  5 14 18 25 30.0000000  0  8G22G21G18G 6G29G26G15G16
  22653103.604   -15779062.51543 -12279938.53342  22653104.291    22653099.516
  20435428.103   -12542546.37344  -9762331.12642  20435429.331    20435424.443
  20695543.009   -23442814.91943 -18251188.42342  20695544.529    20695540.149
  21558084.616    11033837.65243   8600937.25942  21558086.232    21558083.214
  22891872.732    -2227351.65643  -1728695.13642  22891874.607    22891871.149
  21832063.262   -15499723.81343 -12064088.61342  21832065.147    21832061.865
  22665869.108   -15946364.54943 -12118695.36742  22665870.166    22665868.233
  23250735.688   -13070336.98443 -10143801.76942  23250737.109    23250733.970
 04  5 14 18 26  0.0000000  0  8G22G21G18G 6G29G26G15G16
  22636596.178   -15865809.55143 -12347533.58342  22636596.851    22636592.021
  20432804.141   -12556335.28844  -9773075.72942  20432805.368    20432800.501
  20687769.397   -23483665.37143 -18283019.92142  20687770.923    20687766.533
  21572649.070    11110374.30443   8660576.18142  21572650.699    21572647.743
  22899158.034    -2189067.41443  -1698863.27242  22899159.840    22899156.372
  21834004.580   -15489521.85243 -12056139.04142  21834006.481    21834003.242
  22651303.244   -16022908.45843 -12178339.93042  22651304.285    22651302.358
  23251849.899   -13064482.07443 -10139239.52442  23251851.320    23251848.116
 04  5 14 18 26 30.0000000  0  8G22G21G18G 6G29G26G15G16
  22620142.277   -15952275.08843 -12414909.27842  22620142.964    22620138.126
  20430228.670   -12569869.46844  -9783621.84042  20430229.894    20430225.031
  20680079.085   -23524078.16343 -18314510.38842  20680080.596    20680076.212
  21587285.693    11187290.05943   8720510.51142  21587287.308    21587284.355
  22906544.487    -2150251.47443  -1668617.09842  22906546.279    22906542.817
  21836074.693   -15478643.48143 -12047662.38942  21836076.574    21836073.335
  22636756.118   -16099354.00243 -12237907.84742  22636757.122    22636755.206
  23253066.901   -13058086.85843 -10134256.26342  23253068.339    23253065.077
 04  5 14 18 27  0.0000000  0  8G22G21G18G 6G29G26G15G16
  22603742.829   -16038454.54743 -12482062.05742  22603743.499    22603738.744
  20427702.403   -12583145.18443  -9793966.54942  20427703.614    20427698.725
  20672472.702   -23564049.84443 -18345657.13042  20672474.214    20672469.816
  21601994.762    11264586.48643   8780741.47142  21601996.388    21601993.410
  22914032.478    -2110901.82043  -1637955.04842  22914034.261    22914030.860
  21838274.084   -15467085.69443 -12038656.32942  21838275.982    21838272.729
  22622228.411   -16175697.37143 -12297396.13742  22622229.406    22622227.497
  23254387.218   -13051148.96943 -10128850.14642  23254388.565    23254385.265
 04  5 14 18 27 30.0000000  0  8G22G21G18G 6G29G26G15G16
  22587398.591   -16124343.94943 -12548988.81642  22587399.257    22587394.541
  20425225.913   -12596159.15844  -9804107.30542  20425227.139    20425222.236
  20664950.865   -23603577.30543 -18376457.73342  20664952.340    20664947.971
  21616776.500    11342264.94043   8841270.10942  21616778.142    21616775.165
  22921622.297    -2071016.97143  -1606875.95742  22921624.085    22921620.761
  21840603.298   -15454845.60743 -12029118.60542  21840605.176    21840601.934
  22607720.798   -16251935.18143 -12356802.18842  22607721.812    22607719.828
  23255811.141   -13043666.23143 -10123019.46442  23255812.488    23255809.179
 04  5 14 18 28  0.0000000  0  8G22G21G18G 6G29G26G15G16
  22571108.882   -16209946.90743 -12615692.37742  22571109.533    22571104.812
  20422798.434   -12608915.63344  -9814047.40742  20422799.649    20422794.741
  20657512.552   -23642665.82143 -18406916.30142  20657514.035    20657509.645
  21631629.722    11420318.99343   8902091.41642  21631631.358    21631628.374
  22929312.813    -2030603.10043  -1575384.64642  22929314.580    22929311.321
  21843061.282   -15441928.82143 -12019053.58842  21843063.164    21843059.918
  22593232.391   -16328072.09843 -12416129.62142  22593233.371    22593231.427
  23257337.657   -13035644.57243 -10116768.84542  23257339.015    23257335.641
 04  5 14 18 28 30.0000000  0  8G22G21G18G 6G29G26G15G16
  22554874.508   -16295258.99643 -12682169.28942  22554875.147    22554870.413
  20420420.591   -12621411.29244  -9823784.28642  20420421.809    20420416.883
  20650158.614   -23681311.04943 -18437029.45042  20650160.109    20650155.701
  21646554.703    11498750.29243   8963206.68842  21646556.375    21646553.362
  22937104.359    -1989658.19543  -1543479.54242  22937106.155    22937102.916
  21845648.679   -15428332.05843 -12008458.71342  21845650.570    21845647.290
  22578763.980   -16404103.90943 -12475375.14442  22578764.973    22578763.002
  23258967.234   -13027081.48343 -10110096.32742  23258968.525    23258965.183
 04  5 14 18 29  0.0000000  0  8G22G21G18G 6G29G26G15G16
  22538695.497   -16380280.05543 -12748419.41842  22538696.144    22538691.426
  20418092.314   -12633646.60943  -9833318.29842  20418093.516    20418088.578
  20642888.694   -23719514.69743 -18466798.50942  20642890.188    20642885.772
  21661550.961    11577556.10243   9024613.78242  21661552.622    21661549.601
  22944996.495    -1948184.66843  -1511162.51942  22944998.290    22944995.120
  21848365.248   -15414056.66243 -11997335.03242  21848367.121    21848363.811
  22564315.481   -16480031.33943 -12534539.34642  22564316.432    22564314.465
  23260699.331   -13017979.07443 -10103003.56642  23260700.665    23260697.320
 04  5 14 18 29 30.0000000  0  9G22G21G18G 3G 6G29G26G15G16
  22522570.262   -16465018.60543 -12814449.41642  22522570.908    22522566.206
  20415811.929   -12645630.15643  -9842656.12942  20415813.129    20415808.184
  20635701.111   -23757285.66943 -18496230.42442  20635702.616    20635698.194
  24577129.804    -5925671.69853  -4544406.67252  24577131.569    24577130.392
  21676616.469    11656725.64543   9086304.29242  21676618.080    21676615.089
  22952987.126    -1906193.34843  -1478442.02842  22952988.966    22952985.762
  21851209.130   -15399112.25343 -11985690.04742  21851210.974    21851207.647
  22549885.072   -16555863.35643 -12593629.19442  22549886.073    22549884.102
  23262532.173   -13008347.75943 -10095498.67742  23262533.497    23262530.171
 04  5 14 18 30  0.0000000  0  9G22G21G18G 3G 6G29G26G15G16
  22506502.448   -16549455.43143 -12880244.30142  22506503.084    22506498.396
  20413582.809   -12657344.21543  -9851783.96942  20413584.002    20413579.089
  20628599.268   -23794606.12943 -18525311.28842  20628600.756    20628596.317
  24557865.391    -6026906.37343  -4623290.75242  24557867.211    24557865.923
  21691754.162    11736274.75143   9148290.56642  21691755.756    21691752.784
  22961079.482    -1863667.87643  -1445305.31042  22961081.258    22961078.082
  21854183.517   -15383481.63243 -11973510.34242  21854185.403    21854182.059
  22535476.312   -16631581.76743 -12652630.51342  22535477.295    22535475.338
  23264468.836   -12998170.54443 -10087568.39042  23264470.207    23264466.883
 04  5 14 18 30 30.0000000  0  9G22G21G18G 3G 6G29G26G15G16
  22490490.436   -16633598.90943 -12945810.60542  22490491.083    22490486.378
  20411403.276   -12668797.60543  -9860708.69042  20411404.489    20411399.590
  20621581.347   -23831485.55343 -18554048.48442  20621582.818    20621578.373
  24538627.365    -6128002.52443  -4702066.87242  24538629.256    24538628.000
  21706962.013    11816192.30043   9210563.94142  21706963.603    21706960.605
  22969271.478    -1820619.03843  -1411760.79142  22969273.235    22969270.015
  21857286.607   -15367174.77843 -11960803.71242  21857288.523    21857285.157
  22521087.518   -16707195.22743 -12711550.05942  22521088.483    22521086.504
  23266507.375   -12987458.15643 -10079221.09542  23266508.738    23266505.396
 04  5 14 18 31  0.0000000  0  9G22G21G18G 3G 6G29G26G15G16
  22474535.475   -16717442.78343 -13011143.45342  22474536.111    22474531.341
  20409274.506   -12679984.45244  -9869425.71642  20409275.705    20409270.803
  20614648.333   -23867918.59743 -18582437.85742  20614649.823    20614645.395
  24519417.159    -6228952.66943  -4780729.23142  24519418.960    24519417.960
  21722240.657    11896482.05443   9273127.35242  21722242.262    21722239.256
  22977563.756    -1777042.94843  -1377805.40942  22977565.501    22977562.262
  21860519.357   -15350186.65743 -11947566.22842  21860521.264    21860517.892
  22506719.727   -16782698.03843 -12770383.38342  22506720.723    22506718.743
  23268648.575   -12976206.17743 -10070453.33842  23268649.930    23268646.597
 04  5 14 18 31 30.0000000  0  9G22G21G18G 3G 6G29G26G15G16
  22458636.480   -16800992.47643 -13076247.07442  22458637.120    22458632.332
  20407195.225   -12690911.04044  -9877939.93442  20407196.449    20407191.540
  20607798.989   -23903912.01043 -18610484.65242  20607800.494    20607796.053
  24500233.823    -6329761.42843  -4859281.40642  24500235.720    24500234.796
  21737588.505    11977135.62243   9335974.26742  21737590.134    21737587.170
  22985954.784    -1732947.72943  -1343445.51742  22985956.594    22985953.345
  21863880.282   -15332524.58243 -11933803.56942  21863882.243    21863878.863
  22492371.846   -16858096.58843 -12829135.45742  22492372.853    22492370.855
  23270890.963   -12964422.40643 -10061271.19942  23270892.340    23270889.022
 04  5 14 18 32  0.0000000  0  9G22G21G18G 3G 6G29G26G15G16
  22442793.978   -16884245.04343 -13141119.16242  22442794.643    22442789.889
  20405165.823   -12701575.61644  -9886249.99142  20405167.063    20405162.163
  20601033.695   -23939463.74943 -18638187.29042  20601035.194    20601030.772
  24481078.165    -6430424.72843  -4937720.25042  24481080.021    24481079.160
  21753005.621    12058153.04343   9399104.68742  21753007.229    21753004.324
  22994444.634    -1688333.34743  -1308681.07842  22994446.457    22994443.164
  21867369.779   -15314187.11343 -11919514.63942  21867371.742    21867368.355
  22478044.276   -16933388.35243 -12887804.33742  22478045.326    22478043.260
  23273234.701   -12952106.10943 -10051674.10042  23273236.061    23273232.832
 04  5 14 18 32 30.0000000  0  9G22G21G18G 3G 6G29G26G15G16
  22427008.786   -16967196.79243 -13205756.85242  22427009.446    22427004.671
  20403186.957   -12711974.71744  -9894353.18342  20403188.195    20403183.295
  20594352.880   -23974571.49843 -18665543.96442  20594354.387    20594349.983
  24461951.122    -6530937.63643  -5016041.91442  24461952.971    24461951.939
  21768492.179    12139535.27243   9462519.37442  21768493.767    21768490.883
  23003033.562    -1643198.35743  -1273510.98042  23003035.379    23003032.066
  21870988.121   -15295172.43443 -11904698.01642  21870990.099    21870986.748
  22463737.599   -17008570.42343 -12946387.73142  22463738.645    22463736.549
  23275680.059   -12939255.72043 -10041660.84242  23275681.392    23275678.156
 04  5 14 18 33  0.0000000  0  9G22G21G18G 3G 6G29G26G15G16
  22411280.362   -17049850.21043 -13270162.07542  22411280.969    22411276.209
  20401258.043   -12722111.15743  -9902251.70242  20401259.286    20401254.408
  20587755.954   -24009238.39943 -18692557.11842  20587757.459    20587753.057
  24442852.493    -6631301.09443  -5094247.12342  24442854.433    24442853.268
  21784047.169    12221277.16343   9526214.31242  21784048.755    21784045.886
  23011720.562    -1597547.75143  -1237939.09642  23011722.397    23011719.129
  21874734.620   -15275484.33843 -11889356.64842  21874736.615    21874733.257
  22449451.242   -17083645.56943 -13004887.81142  22449452.295    22449450.181
  23278226.246   -12925875.75243 -10031234.91642  23278227.562    23278224.320
 04  5 14 18 33 30.0000000  0  9G22G21G18G 3G 6G29G26G15G16
  22395609.249   -17132202.39743 -13334332.55642  22395609.827    22395605.116
  20399379.479   -12731983.02244  -9909944.05742  20399380.719    20399375.864
  20581243.325   -24043462.48743 -18719225.22442  20581244.821    20581240.417
  24423783.111    -6731511.26543  -5172332.90842  24423784.921    24423783.743
  21799670.605    12303378.81743   9590189.59442  21799672.195    21799669.341
  23020505.688    -1551381.41143  -1201965.34342  23020507.544    23020504.323
  21878609.543   -15255121.68443 -11873489.65342  21878611.523    21878608.178
  22435185.719   -17158611.25143 -13063302.59042  22435186.808    22435184.650
  23280873.277   -12911965.76343 -10020395.99442  23280874.605    23280871.289
 04  5 14 18 34  0.0000000  0  9G22G21G18G 3G 6G29G26G15G16
  22379995.905   -17214251.04743 -13398266.52942  22379996.474    22379991.739
  20397551.576   -12741588.85644  -9917429.11942  20397552.807    20397547.919
  20574815.132   -24077242.93143 -18745547.63342  20574816.618    20574812.168
  24404743.565    -6831564.49243  -5250296.39142  24404745.436    24404744.193
  21815362.413    12385839.63643   9654444.75042  21815363.982    21815361.151
  23029388.988    -1504699.48843  -1165589.84242  23029390.834    23029387.625
  21882612.946   -15234083.87143 -11857096.55542  21882614.938    21882611.572
  22420941.289   -17233466.07043 -13121630.99442  22420942.416    22420940.227
  23283621.149   -12897525.68743 -10009144.00642  23283622.478    23283619.141
 04  5 14 18 34 30.0000000  0  9G22G21G18G 3G 6G29G26G15G16
  22364440.038   -17295997.56643 -13461965.08742  22364440.637    22364435.848
  20395773.921   -12750930.53944  -9924708.34842  20395775.142    20395770.241
  20568470.873   -24110582.32143 -18771526.36442  20568472.341    20568467.865
  24385733.804    -6931461.14443  -5328137.88242  24385735.715    24385734.328
  21831121.751    12468655.43443   9718976.51142  21831123.339    21831120.522
  23038369.623    -1457506.19043  -1128815.87042  23038371.423    23038368.233
  21886744.155   -15212374.27843 -11840179.99442  21886746.113    21886742.772
  22406717.638   -17308211.84643 -13179874.41942  22406718.747    22406716.518
  23286469.253   -12882559.19243  -9997481.84542  23286470.533    23286467.189
 04  5 14 18 35  0.0000000  0  9G22G21G18G 3G 6G29G26G15G16
  22348942.487   -17377437.56943 -13525424.79042  22348943.087    22348938.297
  20394047.288   -12760004.05143  -9931778.61642  20394048.520    20394043.613
  20562211.160   -24143477.33143 -18797158.82442  20562212.632    20562208.137
  24366754.935    -7031195.44843  -5405852.85742  24366756.823    24366755.406
  21846948.893    12551827.54943   9783785.92242  21846950.496    21846947.686
  23047447.831    -1409799.87543  -1091642.13342  23047449.657    23047446.437
  21891003.682   -15189990.12743 -11822737.80142  21891005.642    21891002.355
  22392515.480   -17382844.57943 -13238029.76242  22392516.540    22392514.354
  23289417.843   -12867064.10743  -9985407.76542  23289419.171    23289415.796
 04  5 14 18 35 30.0000000  0  9G22G21G18G 3G 6G29G26G15G16
  22333502.909   -17458572.76743 -13588646.97342  22333503.511    22333498.759
  20392371.242   -12768811.73144  -9938641.73942  20392372.481    20392367.563
  20556035.470   -24175930.84543 -18822447.26142  20556036.937    20556032.410
  24347806.881    -7130768.06543  -5483441.85042  24347808.687    24347807.277
  21862843.015    12635351.53343   9848869.51342  21862844.597    21862841.799
  23056622.825    -1361584.97943  -1054072.10742  23056624.657    23056621.455
  21895390.936   -15166935.05543 -11804772.81742  21895392.864    21895389.584
  22378334.457   -17457366.37643 -13296098.66542  22378335.483    22378333.292
  23292466.267   -12851044.57843  -9972925.04542  23292467.546    23292464.168
 04  5 14 18 36  0.0000000  0  9G22G21G18G 3G 6G29G26G15G16
  22318121.743   -17539401.11443 -13651630.05842  22318122.363    22318117.568
  20390746.079   -12777351.96344  -9945296.46342  20390747.302    20390742.408
  20549944.047   -24207941.55643 -18847390.66142  20549945.523    20549940.964
  24328890.309    -7230175.43543  -5560902.07742  24328891.995    24328890.654
  21878804.008    12719226.85743   9914226.86942  21878805.575    21878802.787
  23065894.580    -1312861.60143  -1016105.85042  23065896.412    23065893.236
  21899906.005   -15143208.54543 -11786284.63442  21899907.915    21899904.614
  22364174.857   -17531775.58343 -13354079.83242  22364175.896    22364173.655
  23295614.521   -12834500.42043  -9960033.52242  23295615.819    23295612.450
 04  5 14 18 36 30.0000000  0  9G22G21G18G 3G 6G29G26G15G16
  22302799.581   -17619919.45143 -13714371.57642  22302800.205    22302795.362
  20389172.295   -12785622.22444  -9951740.82542  20389173.511    20389168.628
  20543937.188   -24239507.70343 -18871987.64742  20543938.678    20543934.111
  24310005.960    -7329413.09943  -5638230.06042  24310007.636    24310006.301
  21894831.944    12803453.93543   9979858.31542  21894833.514    21894830.710
  23075263.192    -1263629.38343   -977743.10142  23075265.020    23075261.860
  21904549.069   -15118809.10743 -11767272.08542  21904550.986    21904547.693
  22350037.148   -17606069.75143 -13411971.35342  22350038.193    22350035.879
  23298862.707   -12817431.06443  -9946732.75642  23298863.976    23298860.613
 04  5 14 18 37  0.0000000  0  9G22G21G18G 3G 6G29G26G15G16
  22287535.425   -17700132.77943 -13776875.43042  22287536.053    22287531.198
  20387648.813   -12793628.12744  -9957979.19042  20387650.046    20387645.161
  20538013.761   -24270635.44143 -18896243.00842  20538015.259    20538010.680
  24291153.217    -7428484.70043  -5715428.64942  24291154.843    24291153.570
  21910925.287    12888024.86943  10045757.70842  21910926.884    21910924.055
  23084727.141    -1213896.01743   -938989.84142  23084728.978    23084725.836
  21909318.824   -15093743.85843 -11747740.72142  21909320.767    21909317.470
  22335920.259   -17680254.28643 -13469777.45642  22335921.318    22335918.985
  23302209.434   -12799843.59843  -9933028.26542  23302210.754    23302207.487
 04  5 14 18 37 30.0000000  0  9G22G21G18G 3G 6G29G26G15G16
  22272330.923   -17780032.66343 -13839135.03342  22272331.558    22272326.705
  20386177.165   -12801361.77044  -9964005.40942  20386178.381    20386173.497
  20532175.168   -24301317.32543 -18920150.95542  20532176.662    20532172.105
  24272333.857    -7527380.75043  -5792490.43142  24272335.411    24272334.291
  21927085.108    12972945.01943  10111929.20642  21927086.678    21927083.833
  23094287.520    -1163655.94743   -899841.75342  23094289.342    23094286.219
  21914216.421   -15068006.42143 -11727685.58342  21914218.393    21914215.138
  22321825.751   -17754321.25543 -13527491.93942  22321826.780    22321824.496
  23305655.904   -12781732.33543  -9918915.62442  23305657.246    23305653.967
 04  5 14 18 38  0.0000000  0  9G22G21G18G 3G 6G29G26G15G16
  22257184.934   -17859625.16543 -13901155.12642  22257185.577    22257180.709
  20384756.106   -12808829.58844  -9969824.48842  20384757.317    20384752.408
  20526419.991   -24331560.85943 -18943717.33042  20526421.471    20526416.925
  24253547.029    -7626105.87843  -5869419.04042  24253548.664    24253547.451
  21943309.732    13058205.61343  10178365.99442  21943311.306    21943308.430
  23103942.735    -1112917.74243   -860305.50542  23103944.507    23103941.429
  21919240.557   -15041604.33443 -11707112.53342  21919242.514    21919239.308
  22307752.441   -17828276.99743 -13585119.76142  22307753.471    22307751.126
  23309200.538   -12763105.45043  -9904401.19542  23309201.849    23309198.595
 04  5 14 18 38 30.0000000  0  9G22G21G18G 3G 6G29G26G15G16
  22242098.934   -17938902.42943 -13962929.57842  22242099.601    22242094.685
  20383387.096   -12816023.74644  -9975430.32742  20383388.316    20383383.369
  20520749.534   -24361359.32443 -18966936.89842  20520751.022    20520746.470
  24234794.497    -7724650.89843  -5946207.28842  24234796.121    24234794.928
  21959600.104    13143811.76643  10245072.04742  21959601.662    21959598.814
  23113693.628    -1061676.61343   -820377.37442  23113695.406    23113692.328
  21924392.290   -15014531.84543 -11686017.08542  21924394.228    21924391.043
  22293701.677   -17902114.12943 -13642655.16242  22293702.724    22293700.341
  23312844.323   -12743957.34443  -9889480.61542  23312845.601    23312842.419
 04  5 14 18 39  0.0000000  0  9G22G21G18G 3G 6G29G26G15G16
  22227071.971   -18017869.41643 -14024462.25942  22227072.610    22227067.688
  20382068.956   -12822950.64844  -9980827.91242  20382070.182    20382065.218
  20515162.769   -24390717.97743 -18989813.75742  20515164.258    20515159.718
  24216075.486    -7823019.19243  -6022857.84842  24216077.230    24216076.005
  21975954.715    13229755.68343  10312041.29242  21975956.295    21975953.430
  23123538.895    -1009939.54643   -780062.80642  23123540.670    23123537.633
  21929670.291   -14986795.73743 -11664404.53742  21929672.243    21929669.030
  22279672.482   -17975837.93143 -13700102.25042  22279673.531    22279671.113
  23316585.872   -12724295.42143  -9874159.66942  23316587.185    23316584.068
 04  5 14 18 39 30.0000000  0  9G22G21G18G 3G 6G29G26G15G16
  22212105.377   -18096519.22643 -14085747.79342  22212106.011    22212101.089
  20380802.837   -12829604.23744  -9986012.53342  20380804.056    20380799.082
  20509660.688   -24419631.51943 -19012343.77542  20509662.191    20509657.653
  24197391.746    -7921202.67443  -6099364.37642  24197393.524    24197392.359
  21992374.395    13316041.54643  10379276.98342  21992375.979    21992373.107
  23133479.282     -957702.71043   -739358.79942  23133481.047    23133477.994
  21935075.520   -14958391.11843 -11642271.06842  21935077.488    21935074.243
  22265666.097   -18049441.72743 -13757455.82842  22265667.138    22265664.750
  23320426.128   -12704115.28043  -9858434.91142  23320427.420    23320424.276
 04  5 14 18 40  0.0000000  0  9G22G21G18G 3G 6G29G26G15G16
  22197198.026   -18174857.59743 -14146790.62642  22197198.673    22197193.810
  20379587.707   -12835989.92144  -9990988.39342  20379588.903    20379583.930
  20504241.839   -24448107.54243 -19034532.86942  20504243.366    20504238.857
  24178742.333    -8019205.94543  -6175730.49242  24178744.059    24178742.742
  22008857.441    13402660.47843  10446772.21642  22008859.041    22008856.199
  23143513.085     -904974.89643   -698272.20742  23143514.817    23143511.750
  21940606.521   -14929325.83043 -11619622.79242  21940608.462    21940605.189
  22251681.326   -18122931.76443 -13814720.76042  22251682.410    22251680.000
  23324363.367   -12683425.03243  -9842312.65042  23324364.679    23324361.513
 04  5 14 18 40 30.0000000  0  9G22G21G18G 3G 6G29G26G15G16
  22182350.828   -18252880.04143 -14207587.29042  22182351.458    22182346.640
  20378424.309   -12842103.51644  -9995752.23842  20378425.535    20378420.551
  20498906.993   -24476142.36443 -19056378.17742  20498908.489    20498904.000
  24160128.423    -8117022.62143  -6251951.23242  24160130.158    24160128.749
  22025404.256    13489614.43443  10514528.49942  22025405.849    22025403.038
  23153640.701     -851753.79143   -656801.24542  23153642.455    23153639.397
  21946263.705   -14899597.22143 -11596457.64742  21946265.652    21946262.395
  22237719.087   -18196303.57143 -13871893.57042  22237720.165    22237717.798
  23328398.083   -12662222.37443  -9825791.13542  23328399.446    23328396.220
 04  5 14 18 41  0.0000000  0  9G22G21G18G 3G 6G29G26G15G16
  22167564.633   -18330582.09043 -14268134.30642  22167565.262    22167560.414
  20377313.396   -12847941.29044 -10000301.15742  20377314.638    20377309.639
  20493656.924   -24503731.68443 -19077876.33442  20493658.401    20493653.904
  24141551.122    -8214646.87043  -6328021.98942  24141552.828    24141551.351
  22042015.183    13576905.08743  10582547.14542  22042016.783    22042013.936
  23163862.545     -798037.69943   -614944.57042  23163864.326    23163861.263
  21952047.620   -14869202.57843 -11572773.50542  21952049.581    21952046.294
  22223780.121   -18269553.08243 -13928971.07342  22223781.183    22223778.849
  23332530.719   -12640505.32143  -9808868.79542  23332532.031    23332528.885
 04  5 14 18 41 30.0000000  0  9G22G21G18G 3G 6G29G26G15G16
  22152838.785   -18407966.97343 -14328434.17142  22152839.407    22152834.530
  20376254.297   -12853506.92444 -10004638.01842  20376255.522    20376250.533
  20488490.644   -24530880.56843 -19099031.30242  20488492.135    20488487.631
  24123010.048    -8312080.60443  -6403944.32142  24123011.742    24123010.270
  22058688.967    13664526.25443  10650823.33642  22058690.571    22058687.703
  23174177.428     -743832.81243   -572707.01442  23174179.212    23174176.126
  21957957.272   -14838147.42843 -11548574.69242  21957959.193    21957955.893
  22209863.739   -18342684.01243 -13985956.18442  22209864.799    22209862.446
  23336760.121   -12618279.56243  -9791550.05442  23336761.486    23336758.311
 04  5 14 18 42  0.0000000  0  9G22G21G18G 3G 6G29G26G15G16
  22138173.224   -18485034.86643 -14388487.04142  22138173.868    22138168.963
  20375246.850   -12858801.27044 -10008763.49142  20375248.062    20375243.040
  20483407.961   -24557590.21943 -19119844.00542  20483409.425    20483404.939
  24104505.426    -8409322.72243  -6479717.32042  24104507.127    24104505.585
  22075425.088    13752475.12543  10719354.88942  22075426.724    22075423.864
  23184584.775     -689141.90743   -530090.75042  23184586.550    23184583.436
  21963992.162   -14806433.98943 -11523862.92842  21963994.076    21963990.751
  22195969.814   -18415696.88343 -14042849.29742  22195970.847    22195968.542
  23341085.855   -12595547.75843  -9773836.98942  23341087.193    23341084.042
 04  5 14 18 42 30.0000000  0  9G22G21G18G 3G 6G29G26G15G16
  22123568.983   -18561780.57043 -14448288.84942  22123569.640    22123564.716
  20374292.057   -12863818.89144 -10012673.33142  20374293.264    20374288.232
  20478409.611   -24583856.62943 -19140311.32742  20478411.074    20478406.589
  24086038.577    -8506366.50343  -6555335.78842  24086040.146    24086038.720
  22092223.984    13840753.83643  10788143.45242  22092225.610    22092222.762
  23195085.119     -633962.51843   -487093.84842  23195086.877    23195083.742
  21970152.900   -14774059.02343 -11498635.68642  21970154.839    21970151.488
  22182099.327   -18488586.71543 -14099646.53942  22182100.331    22182098.032
  23345508.356   -12572307.17543  -9755727.47242  23345509.796    23345506.571
 04  5 14 18 43  0.0000000  0  9G22G21G18G 3G 6G29G26G15G16
  22109025.438   -18638207.42143 -14507842.20142  22109026.071    22109021.118
  20373389.108   -12868563.90944 -10016370.75242  20373390.345    20373385.314
  20473494.717   -24609684.45643 -19160436.89742  20473496.192    20473491.685
  24067609.175    -8603213.60343  -6630801.00442  24067610.637    24067609.313
  22109084.518    13929356.50543  10857184.44342  22109086.160    22109083.331
  23205677.220     -578300.92243   -443721.20142  23205678.985    23205675.819
  21976438.440   -14741028.05343 -11472897.27042  21976440.413    21976437.061
  22168251.623   -18561356.92343 -14156350.56542  22168252.630    22168250.343
  23350026.694   -12548563.35743  -9737225.83142  23350028.099    23350024.896
 04  5 14 18 43 30.0000000  0  9G22G21G18G 3G 6G29G26G15G16
  22094543.437   -18714310.62043 -14567143.34942  22094544.079    22094539.135
  20372538.838   -12873032.15944 -10019852.50642  20372540.083    20372535.060
  20468663.902   -24635070.59243 -19180218.29142  20468665.368    20468660.839
  24049218.338    -8699857.75943  -6706108.07542  24049219.923    24049218.514
  22126007.056    14018284.82443  10926479.19942  22126008.671    22126005.876
  23216361.478     -522154.92343   -399971.10142  23216363.236    23216360.063
  21982849.398   -14707338.21443 -11446645.44642  21982851.362    21982848.004
  22154427.502   -18634003.05843 -14212957.90442  22154428.545    22154426.207
  23354641.213   -12524314.06943  -9718330.31642  23354642.622    23354639.438
 04  5 14 18 44  0.0000000  0  9G22G21G18G 3G 6G29G26G15G16
  22080122.106   -18790095.18743 -14626196.21942  22080122.734    22080117.807
  20371740.162   -12877229.24844 -10023122.97042  20371741.408    20371736.399
  20463915.975   -24660021.01143 -19199660.16442  20463917.461    20463912.918
  24030865.393    -8796302.62543  -6781259.85542  24030867.076    24030865.589
  22142990.092    14107531.11643  10996021.71642  22142991.696    22142988.912
  23227136.452     -465532.27643   -355849.56742  23227138.202    23227134.970
  21989384.328   -14672996.87843 -11419885.96842  21989386.294    21989382.985
  22140626.008   -18706530.38043 -14269472.67242  22140627.057    22140624.657
  23359350.455   -12499566.91643  -9699046.85942  23359351.832    23359348.679
 04  5 14 18 44 30.0000000  0  9G22G21G18G 3G 6G29G26G15G16
  22065763.105   -18865552.17143 -14684993.83342  22065763.729    22065758.776
  20370994.917   -12881145.61044 -10026174.68242  20370996.171    20370991.143
  20459252.529   -24684527.36943 -19218756.01642  20459254.039    20459249.493
  24012552.407    -8892537.48843  -6856247.99042  24012554.138    24012552.599
  22160034.802    14197101.55343  11065816.82142  22160036.408    22160033.636
  23238003.340     -408426.68143   -311351.73442  23238005.081    23238001.853
  21996044.572   -14637997.01843 -11392613.35642  21996046.557    21996043.247
  22126848.808   -18778930.03243 -14325887.95642  22126849.856    22126847.453
  23364155.711   -12474315.28843  -9679370.29242  23364157.161    23364153.950
 04  5 14 18 45  0.0000000  0  9G22G21G18G 3G 6G29G26G15G16
  22051464.983   -18940689.13543 -14743542.07142  22051465.592    22051460.641
  20370301.525   -12884789.31144 -10029013.93142  20370302.807    20370297.770
  20454671.946   -24708598.45543 -19237512.69542  20454673.448    20454668.897
  23994278.222    -8988568.45743  -6931077.26142  23994279.950    23994278.377
  22177139.283    14286985.89343  11135856.51642  22177140.838    22177138.130
  23248960.115     -350848.48943   -266485.63342  23248961.862    23248958.656
  22002828.280   -14602348.30143 -11364835.13642  22002830.274    22002826.951
  22113094.410   -18851209.67743 -14382209.71842  22113095.459    22113093.077
  23369055.075   -12448569.17043  -9659308.42042  23369056.550    23369053.287
 04  5 14 18 45 30.0000000  0  9G22G21G18G 3G 6G29G26G15G16
  22037229.835   -19015495.17843 -14801832.45342  22037230.465    22037225.452
  20369661.910   -12888150.36444 -10031632.92842  20369663.191    20369658.194
  20450175.951   -24732225.00143 -19255922.97942  20450177.464    20450172.909
  23976045.193    -9084383.25743  -7005738.08442  23976046.987    23976045.300
  22194304.970    14377191.90343  11206146.87242  22194306.526    22194303.855
  23260008.273     -292789.91843   -221245.21042  23260010.071    23260006.844
  22009737.124   -14566042.15143 -11336544.63542  22009739.074    22009735.783
  22099364.834   -18923358.88643 -14438429.84942  22099365.868    22099363.505
  23374050.000   -12422320.57543  -9638854.99642  23374051.485    23374048.209
 04  5 14 18 46  0.0000000  0  9G22G21G18G 3G 6G29G26G15G16
  22023055.936   -19089979.38443 -14859872.05642  22023056.554    22023051.528
  20369074.326   -12891238.07044 -10034038.93542  20369075.613    20369070.641
  20445762.713   -24755416.85143 -19273994.54642  20445764.209    20445759.652
  23957851.963    -9179989.26943  -7080236.21142  23957853.689    23957851.963
  22211529.635    14467707.93843  11276678.80442  22211531.203    22211528.555
  23271145.689     -234262.34343   -175639.34142  23271147.521    23271144.319
  22016768.919   -14529089.65943 -11307750.49742  22016770.877    22016767.591
  22085658.335   -18995386.86443 -14494555.52242  22085659.338    22085657.006
  23379138.474   -12395580.85143  -9618018.88642  23379139.898    23379136.577
 04  5 14 18 46 30.0000000  0  9G22G21G18G 3G 6G29G26G15G16
  22008944.386   -19164135.68443 -14917656.14442  22008945.022    22008939.993
  20368539.949   -12894046.25944 -10036227.13042  20368541.232    20368536.262
  20441433.060   -24778169.45643 -19291723.83842  20441434.545    20441429.982
  23939699.831    -9275379.12943  -7154565.92042  23939701.595    23939699.856
  22228813.927    14558537.20443  11347454.81242  22228815.476    22228812.903
  23282372.953     -175262.80743   -129665.70442  23282374.743    23282371.570
  22023924.400   -14491487.27543 -11278449.94942  22023926.383    22023923.082
  22071976.056   -19067287.49543 -14550581.94942  22071977.067    22071974.775
  23384321.062   -12368346.46343  -9596797.31942  23384322.420    23384319.176
 04  5 14 18 47  0.0000000  0  9G22G21G18G 3G 6G29G26G15G16
  21994895.536   -19237962.63743 -14975183.60342  21994896.146    21994891.128
  20368058.880   -12896574.39644 -10038197.10642  20368060.138    20368055.177
  20437187.085   -24800482.24843 -19309110.42042  20437188.571    20437184.007
  23921589.460    -9370549.57243  -7228724.65742  23921591.250    23921589.492
  22246157.530    14649678.28043  11418473.78842  22246159.068    22246156.515
  23293689.790     -115792.73043    -83325.41142  23293691.571    23293688.347
  22031203.512   -14453235.54043 -11248643.41242  22031205.486    22031202.106
  22058318.245   -19139059.59143 -14606508.22842  22058319.259    22058316.983
  23389597.514   -12340618.45943  -9575191.11642  23389598.903    23389595.686
 04  5 14 18 47 30.0000000  0  9G22G21G18G 3G 6G29G26G15G16
  21980908.492   -19311464.69343 -15032457.88942  21980909.119    21980904.123
  20367630.249   -12898826.87844 -10039952.28042  20367631.518    20367626.540
  20433023.695   -24822360.78243 -19326158.61742  20433025.212    20433020.667
  23903520.402    -9465503.22243  -7302714.46242  23903522.278    23903520.355
  22263559.118    14741124.03543  11489730.18142  22263560.684    22263558.123
  23305094.811      -55859.07743    -36623.88842  23305096.614    23305093.362
  22038604.910   -14414341.12843 -11218336.08542  22038606.824    22038603.467
  22044684.091   -19210707.59643 -14662337.81442  22044685.110    22044682.780
  23394966.603   -12312403.82443  -9553205.72442  23394967.952    23394964.821
 04  5 14 18 48  0.0000000  0  9G22G21G18G 3G 6G29G26G15G16
  21966984.941   -19384633.34043 -15089472.37942  21966985.565    21966980.578
  20367255.606   -12900795.62244 -10041486.37042  20367256.866    20367251.896
  20428944.295   -24843798.06543 -19342862.98642  20428945.845    20428941.274
  23885494.481    -9560230.08643  -7376527.54942  23885496.263    23885494.367
  22281019.734    14832880.01843  11561228.30642  22281021.329    22281018.740
  23316589.133        4543.94143     10443.36342  23316590.921    23316587.678
  22046129.733   -14374797.85443 -11187523.15742  22046131.653    22046128.317
  22031075.159   -19282222.97843 -14718064.05642  22031076.175    22031073.835
  23400429.464   -12283696.42543  -9530836.35942  23400430.790    23400427.678
 04  5 14 18 48 30.0000000  0  9G22G21G18G 3G 6G29G26G15G16
  21953123.889   -19457473.41243 -15146230.83342  21953124.556    21953119.534
  20366934.053   -12902485.49644 -10042803.15942  20366935.296    20366930.330
  20424947.756   -24864800.04043 -19359228.15542  20424949.287    20424944.732
  23867511.045    -9654733.43043  -7450166.45342  23867512.836    23867510.928
  22298537.987    14924938.79943  11632962.38442  22298539.556    22298536.970
  23328171.246       65408.47043     57870.24342  23328173.077    23328169.834
  22053776.682   -14334612.77743 -11156210.12242  22053778.599    22053775.303
  22017490.489   -19353610.78343 -14773690.89242  22017491.512    22017489.155
  23405984.629   -12254504.04643  -9508089.09542  23405985.953    23405982.855
 04  5 14 18 49  0.0000000  0  9G22G21G18G 3G 6G29G26G15G16
  21939326.386   -19529979.76043 -15202729.25242  21939327.025    21939321.998
  20366666.406   -12903892.01944 -10043899.15142  20366667.652    20366662.672
  20421034.792   -24885362.88243 -19375251.14142  20421036.299    20421031.738
  23849571.389    -9749006.69143  -7523626.08042  23849573.180    23849571.368
  22316114.243    15017302.53043  11704934.08842  22316115.839    22316113.217
  23339841.671      126736.94643    105658.62842  23339843.475    23339840.292
  22061546.289   -14293783.09443 -11124394.80142  22061548.183    22061544.949
  22003931.101   -19424865.77643 -14829214.23542  22003932.120    22003929.735
  23411632.598   -12224823.81743  -9484961.67142  23411634.001    23411630.847
 04  5 14 18 49 30.0000000  0  9G22G21G18G 3G 6G29G26G15G16
  21925591.704   -19602156.13943 -15258970.54842  21925592.344    21925587.230
  20366451.953   -12905018.98044 -10044777.30042  20366453.199    20366448.213
  20417204.416   -24905491.56343 -19390935.81842  20417205.934    20417201.362
  23831675.210    -9843051.71343  -7596907.85242  23831676.972    23831675.167
  22333747.274    15109964.60143  11777138.26142  22333748.867    22333746.230
  23351599.123      188522.66943    153803.32042  23351600.876    23351597.763
  22069437.383   -14252314.93543 -11092081.96342  22069439.306    22069436.111
  21990396.172   -19495992.09443 -14884637.30742  21990397.221    21990394.832
  23417372.203   -12194662.18943  -9461459.14942  23417373.626    23417370.505
 04  5 14 18 50  0.0000000  0  9G22G21G18G 3G 6G29G26G15G16
  21911920.295   -19673999.90643 -15314952.67042  21911920.921    21911915.784
  20366291.221   -12905863.68244 -10045435.50942  20366292.468    20366287.467
  20413457.015   -24925184.33143 -19406280.82042  20413458.508    20413453.937
  23813823.183    -9936864.42043  -7670008.59842  23813824.955    23813823.143
  22351437.121    15202925.27843  11849575.11842  22351438.714    22351436.090
  23363443.610      250765.67543    202304.32042  23363445.338    23363442.241
  22077450.139   -14210207.82843 -11059271.24442  22077452.059    22077448.805
  21976886.311   -19566986.71943 -14939957.75542  21976887.368    21976884.969
  23423203.446   -12164019.00743  -9437581.38542  23423204.856    23423201.743
 04  5 14 18 50 30.0000000  0  9G22G21G18G 3G 6G29G26G15G16
  21898312.556   -19745508.74043 -15370673.79842  21898313.208    21898308.065
  20366184.532   -12906424.25844 -10045872.32542  20366185.781    20366180.772
  20409792.708   -24944440.42843 -19421285.56642  20409794.205    20409789.628
  23796016.192   -10030440.76543  -7742925.17142  23796017.925    23796016.132
  22369183.645    15296183.69443  11922243.97242  22369185.222    22369182.588
  23375374.995      313465.41243    251161.22742  23375376.698    23375373.694
  22085584.503   -14167461.89743 -11025962.74442  22085586.411    22085583.102
  21963401.923   -19637847.44143 -14995173.87242  21963402.965    21963400.607
  23429126.200   -12132894.80943  -9413328.80142  23429127.591    23429124.586
 04  5 14 18 51  0.0000000  0  9G22G21G18G 3G 6G29G26G15G16
  21884768.355   -19816683.78843 -15426134.83742  21884769.027    21884763.861
  20366131.668   -12906702.13944 -10046088.85442  20366132.884    20366127.879
  20406211.120   -24963261.80843 -19435951.56742  20406212.604    20406208.018
  23778254.261   -10123779.96943  -7815656.95842  23778256.004    23778254.225
  22386986.095    15389736.00043  11995141.83842  22386987.674    22386985.015
  23387392.498      376617.76043    300370.81742  23387394.200    23387391.179
  22093839.703   -14124080.65143 -10992159.19142  22093841.628    22093838.292
  21949942.767   -19708575.54843 -15050286.65042  21949943.858    21949941.448
  23435139.856   -12101293.12543  -9388704.14742  23435141.186    23435138.261
 04  5 14 18 51 30.0000000  0  9G22G21G18G 3G 6G29G26G15G16
  21871287.202   -19887527.48743 -15481337.68342  21871287.865    21871282.726
  20366132.084   -12906699.95144 -10046087.14842  20366133.282    20366128.284
  20402711.521   -24981652.28443 -19450281.80142  20402712.996    20402708.427
  23760537.280   -10216882.90943  -7888204.63642  23760539.030    23760537.267
  22404843.464    15483576.94743  12068264.62742  22404845.042    22404842.320
  23399495.204      440217.77243    349929.23842  23399496.895    23399493.943
  22102214.835   -14080068.98643 -10957864.41342  22102216.761    22102213.425
  21936508.431   -19779173.45743 -15105297.97642  21936509.519    21936507.100
  23441243.413   -12069218.98743  -9363711.34842  23441244.804    23441241.749
 04  5 14 18 52  0.0000000  0  9G22G21G18G 3G 6G29G26G15G16
  21857870.484   -19958032.58943 -15536276.68542  21857871.164    21857866.035
  20366187.177   -12906410.34444 -10045861.47742  20366188.381    20366183.417
  20399295.060   -24999605.77343 -19464271.52142  20399296.563    20399291.973
  23742867.035   -10309740.35643  -7960561.03442  23742868.738    23742866.960
  22422756.695    15577711.31743  12141616.04642  22422758.273    22422755.523
  23411683.909      504269.71943    399839.82542  23411685.585    23411682.656
  22110710.959   -14035421.65043 -10923074.30242  22110712.882    22110709.563
  21923100.295   -19849633.60243 -15160201.96042  21923101.380    21923098.957
  23447437.765   -12036667.74743  -9338346.78742  23447439.092    23447436.105
 04  5 14 18 52 30.0000000  0  9G22G21G18G 3G 6G29G26G15G16
  21844518.021   -20028200.11343 -15590952.64042  21844518.685    21844513.555
  20366296.682   -12905834.82844 -10045413.02142  20366297.892    20366292.953
  20395961.324   -25017124.65943 -19477922.59142  20395962.836    20395958.230
  23725243.594   -10402352.11043  -8032725.97442  23725245.249    23725243.510
  22440724.949    15672135.03043  12215192.92642  22440726.546    22440723.810
  23423957.936      568769.86743    450099.63642  23423959.575    23423956.644
  22119327.367   -13990142.28543 -10887791.70142  22119329.266    22119325.943
  21909718.178   -19919957.13043 -15214999.48142  21909719.233    21909716.837
  23453722.158   -12003643.22443  -9312613.42942  23453723.513    23453720.451
 04  5 14 18 53  0.0000000  0  9G22G21G18G 3G 6G29G26G15G16
  21831229.641   -20098030.76243 -15645366.09742  21831230.297    21831225.181
  20366460.437   -12904974.31144 -10044742.48542  20366461.652    20366456.730
  20392709.979   -25034210.75643 -19491236.42642  20392711.465    20392706.839
  23707667.133   -10494716.85343  -8104698.45742  23707668.779    23707666.959
  22458747.612    15766844.57343  12288992.54842  22458749.242    22458746.474
  23436316.509      633714.75443    500706.01342  23436318.229    23436315.286
  22128063.461   -13944234.12943 -10852019.14242  22128065.331    22128061.984
  21896361.959   -19990144.66343 -15269691.04242  21896362.983    21896360.587
  23460096.023   -11970148.56243  -9286513.71942  23460097.383    23460094.278
 04  5 14 18 53 30.0000000  0  9G22G21G18G 3G 6G29G26G15G16
  21818005.171   -20167525.53043 -15699517.82442  21818005.820    21818000.720
  20366678.255   -12903829.72544 -10043850.60042  20366679.454    20366674.558
  20389540.546   -25050866.24143 -19504214.71942  20389542.029    20389537.377
  23690137.790   -10586833.81943  -8176477.84042  23690139.441    23690137.569
  22476824.006    15861836.48743  12363012.18242  22476825.654    22476822.863
  23448759.002      699100.48443    551655.89742  23448760.748    23448757.810
  22136918.542   -13897700.32143 -10815759.05142  22136920.437    22136917.081
  21883031.464   -20060196.88243 -15324277.16542  21883032.461    21883030.052
  23466558.659   -11936187.38443  -9260050.49242  23466559.978    23466556.943
 04  5 14 18 54  0.0000000  0  9G22G21G18G 3G 6G29G26G15G16
  21804844.761   -20236683.59343 -15753407.18742  21804845.415    21804840.351
  20366950.219   -12902400.60344 -10042736.99842  20366951.423    20366946.520
  20386452.910   -25067091.81943 -19516858.01942  20386454.398    20386449.765
  23672656.146   -10678700.55643  -8248062.27242  23672657.722    23672655.859
  22494953.674    15957108.52843  12437250.10142  22494955.337    22494952.590
  23461284.966      764924.96343    602947.66442  23461286.743    23461283.856
  22145892.371   -13850542.68743 -10779012.87042  22145894.252    22145890.894
  21869726.841   -20130113.02343 -15378757.25042  21869727.843    21869725.400
  23473109.680   -11901761.69943  -9233225.31642  23473110.959    23473107.940
 04  5 14 18 54 30.0000000  0  9G22G21G18G 3G 6G29G26G15G16
  21791749.933   -20305497.38143 -15807028.28342  21791750.571    21791745.514
  20367277.690   -12900679.58844 -10041395.94342  20367278.913    20367274.020
  20383448.309   -25082881.01343 -19529161.28042  20383449.800    20383445.177
  23655223.835   -10770307.83643  -8319444.50142  23655225.444    23655223.549
  22513137.532    16052665.18343  12511709.78442  22513139.188    22513136.486
  23473895.294      831192.60043    654584.74142  23473897.109    23473894.212
  22154985.822   -13802756.48443 -10741776.89342  22154987.680    22154984.320
  21856449.473   -20199885.94143 -15433125.72842  21856450.469    21856448.013
  23479750.023   -11866866.66543  -9206034.43042  23479751.302    23479748.275
 04  5 14 18 55  0.0000000  0  9G22G21G18G 3G 6G29G26G15G16
  21778719.433   -20373973.20243 -15860386.02442  21778720.082    21778714.980
  20367659.523   -12898672.96244 -10039832.33842  20367660.748    20367655.872
  20380525.365   -25098241.05443 -19541130.13542  20380526.852    20380522.266
  23637840.081   -10861660.02743  -8390627.97842  23637841.665    23637839.798
  22531373.951    16148497.91943  12586384.59542  22531375.580    22531372.901
  23486588.295      897894.82843    706560.46542  23486590.152    23486587.222
  22164197.284   -13754349.99243 -10704057.56942  22164199.156    22164195.815
  21843198.315   -20269521.16543 -15487386.91942  21843199.317    21843196.831
  23486478.029   -11831510.98643  -9178484.57542  23486479.275    23486476.303
 04  5 14 18 55 30.0000000  0  9G22G21G18G 3G 6G29G26G15G16
  21765753.234   -20442111.15643 -15913480.49942  21765753.861    21765748.710
  20368095.750   -12896380.61844 -10038046.09942  20368096.985    20368092.085
  20377683.851   -25113173.25243 -19552765.60542  20377685.332    20377680.762
  23620505.264   -10952755.07343  -8461611.07942  23620506.802    23620505.010
  22549662.347    16244603.82943  12661272.26542  22549663.959    22549661.265
  23499363.505      965028.75543    758872.57842  23499365.358    23499362.375
  22173526.300   -13705325.66443 -10665856.81942  22173528.172    22173524.890
  21829973.393   -20339018.45143 -15541540.62442  21829974.390    21829971.926
  23493293.117   -11795697.30143  -9150577.84542  23493294.433    23493291.435
 04  5 14 18 56  0.0000000  0  9G22G21G18G 3G 6G29G26G15G16
  21752853.094   -20509901.80743 -15966304.34742  21752853.737    21752848.550
  20368588.049   -12893793.62644 -10036030.26642  20368589.282    20368584.377
  20374925.263   -25127669.62843 -19564061.47642  20374926.773    20374922.187
  23603221.409   -11043582.02843  -8532385.27342  23603222.970    23603221.162
  22568004.015    16340989.51743  12736377.95542  22568005.591    22568002.851
  23512222.077     1032600.60743    811525.92342  23512223.928    23512220.890
  22182974.171   -13655676.96643 -10627169.53542  22182976.043    22182972.798
  21816776.469   -20408368.66543 -15595579.72842  21816777.477    21816775.018
  23500196.591   -11759419.34543  -9122309.33942  23500197.951    23500194.953
 04  5 14 18 56 30.0000000  0  9G22G21G18G 3G 6G29G26G15G16
  21740017.186   -20577354.92143 -16018865.17842  21740017.803    21740012.594
  20369134.573   -12890921.67744 -10033792.38742  20369135.804    20369130.886
  20372247.642   -25141740.73043 -19575025.96242  20372249.137    20372244.536
  23585987.103   -11134148.66443  -8602956.62442  23585988.713    23585986.849
  22586396.579    16437642.62643  12811692.02142  22586398.145    22586395.342
  23525161.633     1100598.09443    864510.94342  23525163.429    23525160.434
  22192538.530   -13605416.00843 -10588005.17342  22192540.392    22192537.156
  21803605.745   -20477581.16143 -15649511.52842  21803606.762    21803604.309
  23507186.066   -11722689.30943  -9093688.56442  23507187.435    23507184.571
 04  5 14 18 57  0.0000000  0  9G22G21G18G 3G 6G29G26G15G16
  21727246.489   -20644465.20443 -16071158.87042  21727247.132    21727241.888
  20369736.333   -12887759.51444 -10031328.36242  20369737.539    20369732.626
  20369651.581   -25155382.96343 -19585656.26642  20369653.084    20369648.510
  23568803.655   -11224448.02643  -8673319.70642  23568805.289    23568803.458
  22604840.435    16534565.29243  12887216.12742  22604842.028    22604839.131
  23538182.697     1169023.72143    917829.57842  23538184.432    23538181.438
  22202219.891   -13554540.01943 -10548361.57142  22202221.773    22202218.521
  21790462.338   -20546650.29743 -15703331.61342  21790463.325    21790460.848
  23514262.152   -11685504.45143  -9064713.39542  23514263.527    23514260.572
 04  5 14 18 57 30.0000000  0  9G22G21G18G 3G 6G29G26G15G16
  21714541.426   -20711230.67043 -16123183.87242  21714542.076    21714536.802
  20370393.672   -12884305.22944 -10028636.70942  20370394.859    20370389.938
  20367137.351   -25168595.28543 -19595951.56642  20367138.850    20367134.295
  23551671.822   -11314476.11643  -8743471.40342  23551673.463    23551671.645
  22623335.504    16631757.19743  12962950.03542  22623337.098    22623334.182
  23551284.997     1237876.36143    971480.95242  23551286.668    23551283.694
  22212018.192   -13503049.51543 -10508239.11842  22212020.135    22212016.846
  21777346.611   -20615573.81243 -15757038.22242  21777347.602    21777345.127
  23521424.648   -11647865.62443  -9035384.47342  23521426.003    23521423.035
 04  5 14 18 58  0.0000000  0  9G22G21G18G 3G 6G29G26G15G16
  21701901.133   -20777655.80643 -16174943.68342  21701901.751    21701896.495
  20371105.724   -12880563.41744 -10025721.01542  20371106.910    20371101.989
  20364703.824   -25181383.66243 -19605916.52442  20364705.309    20364700.731
  23534591.097   -11404235.90043  -8813414.04442  23534592.700    23534590.824
  22641880.385    16729210.86143  13038887.90342  22641881.986    22641879.060
  23564467.152     1307148.77943   1025459.41942  23564468.799    23564465.881
  22221932.112   -13450951.70043 -10467643.43442  22221934.021    22221930.784
  21764257.750   -20684356.15643 -15810634.82942  21764258.752    21764256.244
  23528672.124   -11609780.02543  -9005707.43442  23528673.491    23528670.519
 04  5 14 18 58 30.0000000  0  9G22G21G18G 3G 6G29G26G15G16
  21689327.591   -20843729.90643 -16226429.95442  21689328.228    21689323.020
  20371874.495   -12876523.47844 -10022573.01442  20371875.689    20371870.764
  20362352.762   -25193738.56543 -19615543.71242  20362354.256    20362349.661
  23517563.853   -11493714.60843  -8883137.66142  23517565.385    23517563.626
  22660476.585    16826934.22743  13115035.92842  22660478.206    22660475.214
  23577730.675     1376848.89043   1079771.16842  23577732.342    23577729.416
  22231963.135   -13398238.44443 -10426568.18142  22231965.062    22231961.814
  21751197.862   -20752986.28443 -15864112.82342  21751198.857    21751196.350
  23536006.149   -11571239.89143  -8975676.19542  23536007.512    23536004.493
 04  5 14 18 59  0.0000000  0  9G22G21G18G 3G 6G29G26G15G16
  21676818.470   -20909465.64643 -16277652.57142  21676819.100    21676813.899
  20372697.610   -12872198.14644 -10019202.62542  20372698.790    20372693.842
  20360081.501   -25205674.02943 -19624844.06342  20360083.006    20360078.394
  23500588.007   -11582923.01743  -8952650.66142  23500589.530    23500587.757
  22679121.221    16924911.96643  13191382.17142  22679122.808    22679119.801
  23591072.677     1446961.18143   1134404.08342  23591074.339    23591071.351
  22242108.369   -13344924.91543 -10385025.19042  22242110.283    22242107.043
  21738164.531   -20821476.75243 -15917481.98642  21738165.548    21738163.047
  23543423.709   -11532260.36743  -8945302.58842  23543425.095    23543422.042
 04  5 14 18 59 30.0000000  0  9G22G21G18G 3G 6G29G26G15G16
  21664375.814   -20974852.14043 -16328603.05342  21664376.420    21664371.203
  20373577.056   -12867576.55544 -10015601.38942  20373578.260    20373573.291
  20357892.004   -25217179.86943 -19633809.64742  20357893.513    20357888.901
  23483666.011   -11671848.30343  -9021943.04842  23483667.571    23483665.796
  22697815.811    17023152.43543  13267933.13642  22697817.385    22697814.416
  23604494.646     1517493.82443   1189364.54742  23604496.307    23604493.239
  22252369.435   -13291002.63843 -10343007.85342  22252371.348    22252368.128
  21725159.927   -20889816.35143 -15970733.59642  21725160.964    21725158.450
  23550926.497   -11492833.20143  -8914580.16742  23550927.791    23550924.799
 04  5 14 19  0  0.0000000  0  9G22G21G18G 3G 6G29G26G15G16
  21651999.151   -21039892.00743 -16379283.43642  21651999.744    21651994.478
  20374512.417   -12862661.19844 -10011771.24242  20374513.631    20374508.634
  20355783.472   -25228260.30243 -19642443.73942  20355784.982    20355780.354
  23466797.830   -11760491.06143  -9091015.27242  23466799.372    23466797.549
  22716559.335    17121650.16843  13344684.56242  22716560.897    22716558.014
  23617995.508     1588441.50343   1244648.42142  23617997.214    23617994.177
  22262745.414   -13236476.84043 -10300520.23142  22262747.295    22262744.071
  21712183.650   -20958007.05243 -16023869.17542  21712184.680    21712182.175
  23558513.495   -11452963.69243  -8883513.06442  23558514.672    23558511.761
 04  5 14 19  0 30.0000000  0  9G22G21G18G 3G 6G29G26G15G16
  21639687.939   -21104587.86343 -16429695.76142  21639688.505    21639683.231
  20375503.127   -12857454.97344 -10007714.44542  20375504.328    20375499.363
  20353755.126   -25238919.31543 -19650749.45942  20353756.627    20353752.003
  23449983.121   -11848852.46443  -9159868.25442  23449984.700    23449982.862
  22735350.724    17220399.58943  13421632.10942  22735352.295    22735349.520
  23631574.299     1659798.43443   1300251.17942  23631575.968    23631572.952
  22273235.135   -13181353.14343 -10257566.72142  22273237.004    22273233.805
  21699235.217   -21026051.48243 -16076890.78642  21699236.238    21699233.739
  23566183.501   -11412657.55643  -8852105.72142  23566184.740    23566181.829
 04  5 14 19  1  0.0000000  0  9G22G21G18G 3G 6G29G26G15G16
  21627443.328   -21168933.43943 -16479835.13142  21627443.919    21627438.674
  20376550.447   -12851951.25944 -10003425.83442  20376551.654    20376546.668
  20351808.000   -25249151.57643 -19658722.64542  20351809.487    20351804.866
  23433223.611   -11936924.25443  -9228495.58042  23433225.176    23433223.283
  22754190.686    17319404.40843  13498778.65942  22754192.268    22754189.610
  23645231.582     1731568.00443   1356175.49142  23645233.274    23645230.285
  22283839.357   -13125627.75243 -10214144.35342  22283841.240    22283838.021
  21686315.930   -21093942.83443 -16129793.11342  21686316.947    21686314.406
  23573937.372   -11371910.95443  -8820355.16642  23573938.600    23573935.739
 04  5 14 19  1 30.0000000  0  9G22G21G18G 3G 6G29G26G15G16
  21615264.595   -21232932.94943 -16529704.84742  21615265.209    21615259.945
  20377653.570   -12846154.33844  -9998908.75942  20377654.774    20377649.810
  20349941.128   -25258961.98243 -19666367.11542  20349942.631    20349938.006
  23416518.786   -12024708.36943  -9296898.72742  23416520.410    23416518.457
  22773077.952    17418657.79643  13576118.90242  22773079.566    22773076.952
  23658966.161     1803743.52343   1412416.11142  23658967.836    23658964.865
  22294556.789   -13069307.34643 -10170258.34442  22294558.698    22294555.441
  21673425.051   -21161684.87843 -16182579.10042  21673426.057    21673423.490
  23581773.760   -11330730.95043  -8788266.89042  23581774.917    23581772.049
 04  5 14 19  2  0.0000000  0  9G22G21G18G 3G 6G29G26G15G16
  21603152.095   -21296584.38843 -16579303.33842  21603152.723    21603147.450
  20378812.845   -12840062.27744  -9994161.69842  20378814.034    20378809.093
  20348154.522   -25268350.61243 -19673682.92642  20348156.015    20348151.413
  23399869.475   -12112200.94943  -9365074.70442  23399871.092    23399869.114
  22792012.407    17518159.02743  13653652.26042  22792014.046    22792011.456
  23672777.753     1876324.01243   1468972.29442  23672779.481    23672776.500
  22305387.288   -13012392.74643 -10125909.32342  22305389.210    22305385.925
  21660562.966   -21229275.42043 -16235247.03242  21660563.986    21660561.416
  23589692.389   -11289118.30643  -8755841.48942  23589693.629    23589690.784
 04  5 14 19  2 30.0000000  0  9G22G21G18G 3G 6G29G26G15G16
  21591106.379   -21359884.84443 -16628628.33042  21591107.017    21591101.745
  20380028.816   -12833672.34744  -9989182.52242  20380029.998    20380025.078
  20346448.526   -25277315.47943 -19680668.52942  20346450.037    20346445.446
  23383276.512   -12199397.24443  -9433019.80142  23383278.097    23383276.183
  22810994.094    17617908.25143  13731378.86142  22810995.714    22810993.190
  23686666.406     1949309.47843   1525844.06042  23686668.122    23686665.193
  22316330.863   -12954883.79643 -10081097.17342  22316332.788    22316329.549
  21647730.324   -21296711.26143 -16287794.41642  21647731.330    21647728.760
  23597693.319   -11247072.81743  -8723078.80842  23597694.630    23597691.778
 04  5 14 19  3  0.0000000  0  9G22G21G18G 3G 6G29G26G15G16
  21579126.673   -21422838.49043 -16677683.08442  21579127.292    21579122.025
  20381300.768   -12826988.12244  -9983974.04042  20381301.983    20381297.052
  20344822.115   -25285862.31143 -19687328.39242  20344823.605    20344819.059
  23366739.603   -12286299.12843  -9500735.51142  23366741.131    23366739.211
  22830021.698    17717898.73043  13809293.46242  22830023.345    22830020.827
  23700630.848     2022693.06843   1583026.03942  23700632.555    23700629.703
  22327386.296   -12896787.00843 -10035826.97642  22327388.240    22327385.033
  21634926.486   -21363995.84543 -16340223.93142  21634927.468    21634924.907
  23605775.367   -11204601.29043  -8689984.15442  23605776.694    23605773.872
 04  5 14 19  3 30.0000000  0  9G22G21G18G 3G 6G29G26G15G16
  21567213.594   -21485441.78843 -16726464.83642  21567214.229    21567208.979
  20382629.379   -12820006.24344  -9978533.62242  20382630.606    20382625.685
  20343275.774   -25293988.31243 -19693660.33242  20343277.280    20343272.724
  23350259.687   -12372901.36043  -9568217.70842  23350261.241    23350259.288
  22849095.336    17818131.17643  13887396.61442  22849097.004    22849094.517
  23714671.256     2096475.53243   1640518.82042  23714672.936    23714670.114
  22338553.756   -12838101.72143  -9990098.19842  22338555.703    22338552.479
  21622152.116   -21431125.36243 -16392532.61542  21622153.138    21622150.558
  23613938.630   -11161703.13143  -8656557.06242  23613939.965    23613937.164
 04  5 14 19  4  0.0000000  0  9G22G21G18G 3G 6G29G26G15G16
  21555367.147   -21547695.07643 -16774973.85442  21555367.791    21555362.533
  20384014.587   -12812726.84244  -9972861.36542  20384015.829    20384010.917
  20341809.158   -25301695.44443 -19699665.88442  20341810.653    20341806.107
  23333837.056   -12459202.46043  -9635465.26842  23333838.627    23333836.644
  22868214.468    17918602.64343  13965686.01142  22868216.112    22868213.648
  23728786.874     2170653.65443   1698319.92442  23728788.583    23728785.722
  22349832.673   -12778830.83643  -9943913.11742  22349834.578    22349831.368
  21609407.308   -21498099.61243 -16444720.32142  21609408.330    21609405.743
  23622182.578   -11118381.36143  -8622799.89442  23622183.910    23622181.045
 04  5 14 19  4 30.0000000  0  9G22G21G18G 3G 6G29G26G15G16
  21543587.846   -21609595.64143 -16823208.02242  21543588.476    21543583.191
  20385456.963   -12805147.18644  -9966955.13942  20385458.202    20385453.292
  20340422.519   -25308982.20443 -19705343.87142  20340424.036    20340419.469
  23317472.696   -12545197.44143  -9702474.28242  23317474.309    23317472.322
  22887379.051    18019313.16543  14044161.67842  22887380.706    22887378.288
  23742977.781     2245227.51243   1756429.38142  23742979.553    23742976.704
  22361222.989   -12718974.50943  -9897271.85242  22361224.900    22361221.683
  21596692.693   -21564915.38043 -16496784.52842  21596693.706    21596691.079
  23630507.088   -11074636.03743  -8588712.66042  23630508.356    23630505.547
 04  5 14 19  5  0.0000000  0  9G22G21G18G 3G 6G29G26G15G16
  21531875.119   -21671146.20343 -16871169.46342  21531875.749    21531870.459
  20386955.915   -12797270.19244  -9960817.23042  20386957.156    20386952.268
  20339115.119   -25315852.77443 -19710697.55742  20339116.621    20339112.052
  23301166.402   -12630887.46243  -9769245.68242  23301168.002    23301165.968
  22906588.070    18120257.22843  14122819.32742  22906589.736    22906587.402
  23757242.882     2320191.22143   1814842.62142  23757244.701    23757241.873
  22372723.693   -12658538.23443  -9850178.68342  22372725.549    22372722.377
  21584007.735   -21631575.10543 -16548727.14342  21584008.779    21584006.143
  23638911.059   -11030472.85443  -8554299.82842  23638912.376    23638909.578
 04  5 14 19  5 30.0000000  0  9G22G21G18G 3G 6G29G26G15G16
  21520229.733   -21732343.06143 -16918855.29042  21520230.348    21520225.032
  20388512.194   -12789091.98344  -9954444.60942  20388513.442    20388508.516
  20337887.514   -25322304.00743 -19715724.48542  20337889.017    20337884.420
  23284919.304   -12716266.55843  -9835774.80242  23284920.871    23284918.736
  22925841.799    18221436.04943  14201659.90442  22925843.451    22925841.153
  23771582.402     2395545.75243   1873560.39742  23771584.261    23771581.357
  22384334.925   -12597520.90843  -9802632.74042  22384336.780    22384333.648
  21571353.282   -21698074.56843 -16600544.88342  21571354.367    21571351.689
  23647394.767   -10985890.67743  -8519560.50742  23647396.045    23647393.330
 04  5 14 19  6  0.0000000  0  9G22G21G18G 3G 6G29G26G15G16
  21508650.801   -21793190.64943 -16966268.96242  21508651.420    21508646.068
  20390124.978   -12780616.85744  -9947840.62142  20390126.195    20390121.283
  20336738.606   -25328341.53443 -19720429.04542  20336740.120    20336735.500
  23268730.921   -12801336.94943  -9902063.36342  23268732.453    23268730.329
  22945138.768    18322842.22543  14280677.63442  22945140.397    22945138.204
  23785994.972     2471284.02343   1932577.18242  23785996.787    23785993.911
  22396055.368   -12535929.84043  -9754639.73242  22396057.180    22396054.102
  21558728.645   -21764417.52843 -16652240.67842  21558729.696    21558727.001
  23655956.853   -10940896.78143  -8484500.37242  23655958.134    23655955.507
 04  5 14 19  6 30.0000000  0  9G22G21G18G 3G 6G29G26G15G16
  21497139.372   -21853683.51243 -17013406.22742  21497139.982    21497134.593
  20391795.365   -12771838.92644  -9941000.67842  20391796.550    20391791.669
  20335669.164   -25333961.34243 -19724808.10842  20335670.695    20335666.071
  23252602.701   -12886090.97743  -9968105.41442  23252604.284    23252602.135
  22964479.654    18424479.16243  14359875.18142  22964481.269    22964479.140
  23800481.071     2547408.76743   1991895.12042  23800482.946    23800480.011
  22407885.575   -12473761.93943  -9706197.24042  22407887.414    22407884.295
  21546134.924   -21830597.92943 -16703809.79742  21546135.987    21546133.258
  23664597.830   -10895488.33443  -8449117.20442  23664599.096    23664596.523
 04  5 14 19  7  0.0000000  0  9G22G21G18G 3G 6G29G26G15G16
  21485694.604   -21913826.15543 -17060270.59042  21485695.196    21485689.792
  20393522.489   -12762762.81344  -9933928.37942  20393523.672    20393518.769
  20334678.074   -25339169.59143 -19728866.47942  20334679.579    20334674.951
  23236534.152   -12970531.57743 -10033903.23842  23236535.797    23236533.578
  22983863.033    18526339.34543  14439246.68142  22983864.639    22983862.584
  23815039.320     2623912.54043   2051508.41142  23815041.212    23815038.314
  22419824.091   -12411024.68743  -9657311.09242  22419825.979    22419822.825
  21533571.368   -21896619.77643 -16755255.37442  21533572.421    21533569.705
  23673316.196   -10849672.99543  -8413416.97942  23673317.467    23673314.955
 04  5 14 19  7 30.0000000  0  9G22G21G18G 3G 6G29G26G15G16
  21474317.472   -21973613.21643 -17106857.87442  21474318.067    21474312.639
  20395307.371   -12753383.06844  -9926619.48642  20395308.577    20395303.672
  20333766.190   -25343961.42343 -19732600.37142  20333767.699    20333763.084
  23220526.672   -13054651.29343 -10099451.02342  23220528.326    23220526.090
  23003289.402    18628425.38943  14518794.18842  23003291.031    23003288.959
  23829670.126     2700797.77143   2111418.93842  23829671.969    23829669.169
  22431871.438   -12347715.51843  -9607979.30742  22431873.338    22431870.182
  21521039.111   -21962477.27843 -16806572.89242  21521040.143    21521037.418
  23682112.576   -10803448.15043  -8377397.65742  23682113.820    23682111.261
 04  5 14 19  8  0.0000000  0  9G22G21G18G 3G 6G29G26G15G16
  21463008.144   -22033043.94943 -17153167.50242  21463008.748    21463003.319
  20397150.271   -12743698.67544  -9919073.21042  20397151.453    20397146.537
  20332933.500   -25348337.28243 -19736010.12842  20332935.002    20332930.386
  23204580.825   -13138447.16643 -10164746.45342  23204582.474    23204580.228
  23022758.463    18730735.62043  14598516.38242  23022760.049    23022758.047
  23844373.225     2778062.79543   2171625.38942  23844375.027    23844372.262
  22444027.256   -12283836.40343  -9558203.40542  22444029.151    22444025.999
  21508538.404   -22028168.88443 -16857761.13742  21508539.434    21508536.709
  23690986.538   -10756815.33343  -8341060.44242  23690987.739    23690985.169
 04  5 14 19  8 30.0000000  0  9G22G21G18G 3G 6G29G26G15G16
  21451765.362   -22092125.20243 -17199204.80742  21451765.961    21451760.535
  20399049.844   -12733716.39544  -9911294.81442  20399051.033    20399046.108
  20332178.371   -25352305.57743 -19739102.30042  20332179.859    20332175.226
  23188695.745   -13221923.96643 -10229793.26742  23188697.371    23188695.037
  23042268.372    18833260.41143  14678405.77642  23042269.913    23042267.931
  23859146.707     2855697.72543   2232120.09042  23859148.565    23859145.763
  22456289.653   -12219396.90243  -9507990.83642  22456291.576    22456288.456
  21496068.059   -22093700.91943 -16908825.04042  21496069.083    21496066.356
  23699936.216   -10709784.65043  -8304413.19242  23699937.499    23699934.732
 04  5 14 19  9  0.0000000  0  9G22G21G18G 3G 6G29G26G15G16
  21440590.236   -22150850.67843 -17244964.88142  21440590.854    21440585.431
  20401007.361   -12723429.60744  -9903279.14142  20401008.559    20401003.612
  20331501.648   -25355861.69143 -19741873.29042  20331503.168    20331498.514
  23172872.855   -13305073.65143 -10294585.19242  23172874.483    23172872.126
  23061819.804    18936003.43843  14758465.19942  23061821.340    23061819.345
  23873991.222     2933705.90143   2292905.64142  23873993.047    23873990.328
  22468659.354   -12154393.74643  -9457339.06842  22468661.249    22468658.141
  21483629.370   -22159066.63243 -16959759.34042  21483630.377    21483627.644
  23708962.313   -10662352.61943  -8267453.22242  23708963.570    23708960.804
 04  5 14 19  9 30.0000000  0  9G22G21G18G 3G 6G29G26G15G16
  21429482.658   -22209221.32243 -17290448.46442  21429483.278    21429477.889
  20403022.630   -12712839.29344  -9895026.94942  20403023.836    20403018.868
  20330903.009   -25359007.61043 -19744324.64842  20330904.513    20330899.871
  23157112.438   -13387894.98743 -10359121.26142  23157114.090    23157111.696
  23081412.063    19038961.18843  14838691.95642  23081413.607    23081411.562
  23888906.090     3012083.87043   2353979.32542  23888907.903    23888905.232
  22481135.628   -12088830.58643  -9406250.92342  22481137.515    22481134.423
  21471222.285   -22224266.25243 -17010564.21642  21471223.262    21471220.548
  23718064.051   -10614522.86943  -8230183.34842  23718065.260    23718062.567
 04  5 14 19 10  0.0000000  0  9G22G21G18G 3G 6G29G26G15G16
  21418443.027   -22267234.80143 -17335653.74442  21418443.665    21418438.271
  20405096.188   -12701942.63044  -9886536.04842  20405097.383    20405092.454
  20330382.750   -25361741.51843 -19746454.95742  20330384.261    20330379.630
  23141415.404   -13470383.26543 -10423397.79742  23141417.053    23141414.650
  23101045.147    19142133.29943  14919085.73042  23101046.675    23101044.595
  23903891.299     3090831.24643   2415340.85742  23903893.099    23903890.391
  22493718.424   -12022707.66143  -9354726.59942  22493720.330    22493717.195
  21458847.358   -22289296.81443 -17061237.35642  21458848.345    21458845.618
  23727241.378   -10566295.70343  -8192603.78142  23727242.663    23727240.006
 04  5 14 19 10 30.0000000  0  9G22G21G18G 3G 6G29G26G15G16
  21407470.886   -22324893.66743 -17380582.70242  21407471.514    21407466.123
  20407227.594   -12690742.02944  -9877808.31542  20407228.776    20407223.864
  20329940.187   -25364067.21343 -19748267.18242  20329941.707    20329937.077
  23125781.664   -13552539.03143 -10487415.22842  23125783.303    23125780.872
  23120718.068    19245515.00243  14999642.82142  23120719.585    23120717.498
  23918945.753     3169942.67743   2476986.07542  23918947.551    23918944.837
  22506406.767   -11956030.29343  -9302770.24642  22506408.607    22506405.514
  21446504.317   -22354159.85143 -17111779.96642  21446505.302    21446502.558
  23736493.395   -10517676.56843  -8154718.79542  23736494.627    23736491.950
 04  5 14 19 11  0.0000000  0  9G22G21G18G 3G 6G29G26G15G16
  21396566.413   -22382197.04543 -17425234.65542  21396567.023    21396561.599
  20409417.010   -12679236.59644  -9868843.05042  20409418.197    20409413.278
  20329575.122   -25365985.54743 -19749761.97842  20329576.662    20329572.023
  23110211.766   -13634359.21743 -10551171.18642  23110213.382    23110210.955
  23140430.456    19349104.23343  15080361.63042  23140431.983    23140429.959
  23934069.127     3249416.15443   2538913.40342  23934070.884    23934068.194
  22519200.163   -11888800.69943  -9250383.58342  22519201.999    22519198.940
  21434193.393   -22418854.11943 -17162191.06542  21434194.382    21434191.609
  23745819.547   -10468667.44243  -8116529.91542  23745820.795    23745818.110
 04  5 14 19 11 30.0000000  0  9G22G21G18G 3G 6G29G26G15G16
  21385730.168   -22439141.69543 -17469607.08242  21385730.787    21385725.328
  20411665.132   -12667422.77944  -9859637.48942  20411666.311    20411661.362
  20329287.956   -25367494.78843 -19750938.00842  20329289.445    20329284.815
  23094706.690   -13715838.72743 -10614661.67642  23094708.283    23094705.894
  23160182.505    19452901.44543  15161242.48742  23160184.014    23160182.015
  23949261.488     3329252.03243   2601123.12442  23949263.176    23949260.513
  22532098.720   -11821018.49843  -9197566.32242  22532100.548    22532097.472
  21421915.307   -22483375.71343 -17212467.61342  21421916.307    21421913.549
  23755219.925   -10419268.24443  -8078037.08842  23755221.175    23755218.538
 04  5 14 19 12  0.0000000  0  9G22G21G18G 3G 6G29G26G15G16
  21374961.138   -22495733.01943 -17513704.19042  21374961.771    21374956.303
  20413970.926   -12655305.88644  -9850195.75942  20413972.115    20413967.130
  20329077.428   -25368601.06843 -19751800.03942  20329078.927    20329074.276
  23079265.799   -13796980.74343 -10677889.16742  23079267.397    23079265.039
  23179972.639    19556898.96743  15242279.43842  23179974.195    23179972.176
  23964521.272     3409442.25343   2663608.95842  23964522.976    23964520.319
  22545100.874   -11752691.87143  -9144324.83742  22545102.705    22545099.634
  21409669.232   -22547729.28443 -17262613.23742  21409670.216    21409667.447
  23764693.029   -10369486.94843  -8039246.51942  23764694.250    23764691.698
 04  5 14 19 12 30.0000000  0  9G22G21G18G 3G 6G29G26G15G16
  21364260.355   -22551965.87543 -17557521.97242  21364260.961    21364255.482
  20416335.411   -12642880.31744  -9840513.49542  20416336.625    20416331.642
  20328944.347   -25369300.31743 -19752344.90442  20328945.846    20328941.201
  23063890.534   -13877778.01443 -10740848.03642  23063892.138    23063889.827
  23199801.397    19661099.24143  15323474.37742  23199802.929    23199800.949
  23979848.866     3489989.22443   2726372.78142  23979850.627    23979847.903
  22558207.082   -11683818.27543  -9090657.13242  22558208.916    22558205.874
  21397456.270   -22611908.76943 -17312623.20442  21397457.256    21397454.461
  23774239.340   -10319321.05943  -8000156.25842  23774240.590    23774238.035
 04  5 14 19 13  0.0000000  0  9G22G21G18G 3G 6G29G26G15G16
  21353627.469   -22607842.04043 -17601061.81642  21353628.068    21353622.571
  20418758.318   -12630147.84644  -9830592.08842  20418759.545    20418754.551
  20328888.161   -25369595.72043 -19752575.08342  20328889.637    20328884.984
  23048580.990   -13958229.95843 -10803537.81242  23048582.612    23048580.275
  23219667.897    19765497.95643  15404823.94642  23219669.462    23219667.466
  23995243.551     3570888.54643   2789411.16042  23995245.248    23995242.572
  22571416.475   -11614402.37243  -9036566.86342  22571418.341    22571415.314
  21385276.256   -22675915.08043 -17362498.23242  21385277.209    21385274.443
  23783857.965   -10268775.17543  -7960769.91142  23783859.185    23783856.733
 04  5 14 19 13 30.0000000  0  9G22G21G18G 3G 6G29G26G15G16
  21343062.852   -22663359.37343 -17644322.04742  21343063.454    21343057.950
  20421240.180   -12617105.58044  -9820429.28742  20421241.390    20421236.427
  20328908.973   -25369486.28443 -19752489.80542  20328910.459    20328905.809
  23033337.981   -14038332.46943 -10865955.31042  23033339.577    23033337.248
  23239572.170    19870094.92043  15486328.00442  23239573.698    23239571.686
  24010705.117     3652139.67543   2852723.67642  24010706.903    24010704.269
  22584728.955   -11544444.87943  -8982054.56742  22584730.852    22584727.808
  21373129.722   -22739745.46143 -17412236.17342  21373130.641    21373127.908
  23793548.760   -10217849.96443  -7921087.98742  23793549.918    23793547.488
 04  5 14 19 14  0.0000000  0  9G22G21G18G 3G 6G29G26G15G16
  21332566.036   -22718520.49243 -17687304.70642  21332566.626    21332561.128
  20423780.507   -12603756.20044  -9810027.17542  20423781.707    20423776.733
  20329006.104   -25368975.69743 -19752091.94142  20329007.600    20329002.949
  23018161.265   -14118086.35943 -10928101.15842  23018162.878    23018160.528
  23259513.091    19974884.65843  15567982.27242  23259514.598    23259512.589
  24026232.638     3733737.00743   2916305.94742  24026234.441    24026231.748
  22598143.461   -11473951.41043  -8927124.63042  22598145.342    22598142.283
  21361016.274   -22803401.89943 -17461838.56942  21361017.179    21361014.494
  23803310.621   -10166551.10643  -7881114.91042  23803311.787    23803309.384
 04  5 14 19 14 30.0000000  0  9G22G21G18G 3G 6G29G26G15G16
  21322137.140   -22773324.64943 -17730009.21742  21322137.753    21322132.235
  20426379.441   -12590098.79344  -9799385.04342  20426380.636    20426375.674
  20329179.445   -25368064.67043 -19751382.04742  20329180.958    20329176.282
  23003051.562   -14197488.32943 -10989972.77242  23003053.154    23003050.844
  23279490.380    20079865.41943  15649785.37442  23279491.843    23279489.874
  24041825.668     3815678.70743   2980156.57142  24041827.437    24041824.807
  22611659.596   -11402923.82743  -8871778.49842  22611661.484    22611658.424
  21348936.290   -22866882.59243 -17511304.02242  21348937.190    21348934.525
  23813143.260   -10114880.46943  -7840852.12742  23813144.421    23813142.059
 04  5 14 19 15  0.0000000  0  9G22G21G18G 3G 6G29G26G15G16
  21311776.519   -22827769.98043 -17772434.12442  21311777.140    21311771.614
  20429037.404   -12576131.14844  -9788501.16842  20429038.617    20429033.626
  20329429.201   -25366752.27843 -19750359.39842  20329430.700    20329426.016
  22988009.526   -14276534.35743 -11051567.04142  22988011.124    22988008.825
  23299503.888    20185036.73643  15731736.97242  23299505.346    23299503.390
  24057484.099     3897963.91843   3044274.85942  24057485.874    24057483.197
  22625277.115   -11331363.35243  -8816017.12342  22625279.018    22625275.941
  21336890.240   -22930184.87543 -17560630.45542  21336891.149    21336888.484
  23823046.437   -10062839.08843  -7800300.45942  23823047.652    23823045.294
 04  5 14 19 15 30.0000000  0  9G22G21G18G 3G 6G29G26G15G16
  21301484.698   -22881853.78243 -17814577.32242  21301485.330    21301479.813
  20431755.000   -12561850.06344  -9777373.05042  20431756.231    20431751.235
  20329755.623   -25365037.06943 -19749022.86942  20329757.103    20329752.407
  22973036.141   -14355219.73743 -11112880.28042  22973037.745    22973035.497
  23319553.597    20290398.38543  15813836.88042  23319555.088    23319553.178
  24073207.845     3980592.26143   3108660.51942  24073209.506    24073206.907
  22638995.997   -11259270.20543  -8759840.67842  22638997.932    22638994.835
  21324878.818   -22993305.32743 -17609815.20142  21324879.705    21324877.034
  23833020.093   -10010427.28243  -7759460.13942  23833021.441    23833018.962
 04  5 14 19 16  0.0000000  0  9G22G21G18G 3G 6G29G26G15G16
  21291260.512   -22935582.22543 -17856443.61642  21291261.125    21291255.625
  20434531.086   -12547261.68144  -9766005.48542  20434532.316    20434527.321
  20330157.260   -25362926.48643 -19747378.25842  20330158.763    20330154.034
  22958130.655   -14433548.28043 -11173915.46442  22958132.301    22958129.999
  23339637.876    20395941.83343  15896078.44042  23339639.340    23339637.497
  24088995.166     4063555.27143   3173306.95642  24088996.842    24088994.313
  22652814.574   -11186653.28543  -8703256.10142  22652816.465    22652813.367
  21312901.000   -23056249.16143 -17658862.32442  21312901.882    21312899.200
  23843062.604    -9957653.84443  -7718338.04142  23843064.024    23843061.490
 04  5 14 19 16 30.0000000  0  9G22G21G18G 3G 6G29G26G15G16
  21281105.046   -22988949.36943 -17898028.37942  21281105.652    21281100.192
  20437366.823   -12532359.80744  -9754393.64242  20437368.052    20437363.061
  20330635.052   -25360415.65043 -19745421.76242  20330636.573    20330631.839
  22943294.643   -14511512.15843 -11234666.51442  22943296.254    22943293.929
  23359757.415    20501670.51343  15978464.34342  23359758.932    23359757.042
  24104846.735     4146855.78443   3238216.38442  24104848.462    24104845.915
  22666733.389   -11113509.76043  -8646261.18142  22666735.256    22666732.150
  21300958.014   -23119009.98043 -17707766.83742  21300958.902    21300956.205
  23853174.531    -9904515.77343  -7676931.81042  23853175.931    23853173.355
 04  5 14 19 17  0.0000000  0  9G22G21G18G 3G 6G29G26G15G16
  21271017.671   -23041958.77143 -17939334.38142  21271018.272    21271012.841
  20440261.653   -12517147.44044  -9742539.84742  20440262.891    20440257.887
  20331188.046   -25357509.73443 -19743157.40942  20331189.545    20331184.835
  22928527.767   -14589112.69243 -11295134.42742  22928529.319    22928527.041
  23379911.089    20607578.39243  16060989.87542  23379912.567    23379910.676
  24120761.443     4230487.95643   3303384.24942  24120763.187    24120760.608
  22680751.257   -11039845.78043  -8588860.70642  22680753.095    22680750.008
  21289049.427   -23181590.05843 -17756530.51642  21289050.292    21289047.601
  23863354.646    -9851019.22543  -7635246.24842  23863356.109    23863353.473
 04  5 14 19 17 30.0000000  0  9G22G21G18G 3G 6G29G26G15G16
  21260998.987   -23094607.15643 -17980359.06842  21260999.588    21260994.160
  20443216.214   -12501621.04444  -9730441.34742  20443217.456    20443212.476
  20331816.716   -25354205.99843 -19740583.06442  20331818.215    20331813.531
  22913831.078   -14666344.17843 -11355314.76742  22913832.622    22913830.344
  23400098.986    20713666.33743  16143655.73642  23400100.545    23400098.606
  24136739.329     4314452.19443   3368810.86542  24136741.100    24136738.515
  22694868.197   -10965660.91643  -8531054.34542  22694870.027    22694866.944
  21277176.025   -23243985.12343 -17805150.02942  21277176.899    21277174.176
  23873603.029    -9797163.82443  -7593281.04642  23873604.463    23873601.926
 04  5 14 19 18  0.0000000  0  9G22G21G18G 3G 6G29G26G15G16
  21251048.435   -23146897.52343 -18021104.78242  21251049.040    21251043.604
  20446230.073   -12485783.18544  -9718100.16742  20446231.292    20446226.314
  20332520.305   -25350508.63943 -19737702.00542  20332521.801    20332517.109
  22899204.366   -14743207.67443 -11415208.36042  22899205.943    22899203.648
  23420320.056    20819928.70543  16226457.50642  23420321.645    23420319.702
  24152779.318     4398742.90443   3434491.86542  24152781.151    24152778.538
  22709083.101   -10890961.13743  -8472846.76142  22709084.925    22709081.877
  21265337.419   -23306197.23743 -17853626.98342  21265338.298    21265335.586
  23883918.612    -9742955.53243  -7551040.88042  23883919.951    23883917.447
 04  5 14 19 18 30.0000000  0  9G22G21G18G 3G 6G29G26G15G16
  21241166.625   -23198826.70243 -18061569.05542  21241167.223    21241161.765
  20449303.815   -12469630.58644  -9705513.73742  20449305.037    20449300.061
  20333299.055   -25346416.30843 -19734513.17642  20333300.547    20333295.864
  22884648.809   -14819697.66843 -11474810.92642  22884650.368    22884648.025
  23440574.472    20926366.11643  16309395.65242  23440576.047    23440574.177
  24168881.544     4483360.24743   3500427.38942  24168883.365    24168880.730
  22723396.028   -10815746.31943  -8414237.84942  22723397.879    22723394.835
  21253534.389   -23368222.49343 -17901958.33142  21253535.282    21253532.551
  23894301.341    -9688394.09943  -7508525.54042  23894302.613    23894300.186
 04  5 14 19 19  0.0000000  0  9G22G21G18G 3G 6G29G26G15G16
  21231353.189   -23250396.48243 -18101753.27142  21231353.796    21231348.326
  20452437.213   -12453164.43944  -9692682.98142  20452438.428    20452433.460
  20334152.457   -25341931.52343 -19731018.54342  20334153.962    20334149.316
  22870164.417   -14895813.57243 -11534121.98742  22870165.961    22870163.608
  23460861.460    21032974.59543  16392467.10342  23460863.014    23460861.222
  24185045.141     4568300.18143   3566614.28042  24185046.956    24185044.270
  22737806.151   -10740020.79943  -8355230.98242  22737807.974    22737804.943
  21241766.857   -23430061.32343 -17950144.41542  21241767.766    21241765.015
  23904750.500    -9633483.67543  -7465738.25142  23904751.810    23904749.347
